[[{"header":{"parameterUnit":"m.s-1","parameterCategory":1,"la1":30.6,"la2":28.766,"lo1":-90.7593,"lo2":-88.6598,"dy":0.0162,"dx":0.0183,"nx":116,"ny":114,"refTime":"2024-07-03T00:00:00:Z","depth":0,"parameterNumber":2,"parameterNumberName":"U-component_of_WINDS"},"data":[0.0,0.0,0.0,0.0,0.0,0.0,0.0,0.0,0.0,0.0,0.0,0.0,0.0,0.0,0.0,0.0,0.0,0.0,0.0,0.0,0.0,0.0,0.0,0.0,0.0,0.0,0.0,0.0,0.0,0.0,0.0,0.0,0.0,0.0,0.0,0.0,0.0,0.0,0.0,0.0,0.0,0.0,0.0,0.0,0.0,0.0,0.0,0.0,0.0,0.0,0.0,0.0,0.0,0.0,0.0,0.0,0.0,0.0,0.0,0.0,0.0,0.0,0.0,0.0,0.0,0.0,0.0,0.0,0.0,0.0,0.0,0.0,0.0,0.0,0.0,0.0,0.0,0.0,0.0,0.0,0.0,0.0,0.0,0.0,0.0,0.0,0.0,0.0,0.0,0.0,0.0,0.0,0.0,0.0,0.0,0.0,0.0,0.0,0.0,0.0,0.0,0.0,0.0,0.0,0.0,0.0,0.0,0.0,0.0,0.0,0.0,0.0,0.0,0.0,0.0,0.0,0.0,0.0,0.0,0.0,0.0,0.0,0.0,0.0,0.0,0.0,0.0,0.0,0.0,0.0,0.0,0.0,0.0,0.0,0.0,0.0,0.0,0.0,0.0,0.0,0.0,0.0,0.0,0.0,0.0,0.0,0.0,0.0,0.0,0.0,0.0,0.0,0.0,0.0,0.0,0.0,0.0,0.0,0.0,0.0,0.0,0.0,0.0,0.0,0.0,0.0,0.0,0.0,0.0,0.0,0.0,0.0,0.0,0.0,0.0,0.0,0.0,0.0,0.0,0.0,0.0,0.0,0.0,0.0,0.0,0.0,0.0,0.0,0.0,0.0,0.0,0.0,0.0,0.0,0.0,0.0,0.0,0.0,0.0,0.0,0.0,0.0,0.0,0.0,0.0,0.0,0.0,0.0,0.0,0.0,0.0,0.0,0.0,0.0,0.0,0.0,0.0,0.0,0.0,0.0,0.0,0.0,0.0,0.0,0.0,0.0,0.0,0.0,0.0,0.0,0.0,0.0,0.0,0.0,0.0,0.0,0.0,0.0,0.0,0.0,0.0,0.0,0.0,0.0,0.0,0.0,0.0,0.0,0.0,0.0,0.0,0.0,0.0,0.0,0.0,0.0,0.0,0.0,0.0,0.0,0.0,0.0,0.0,0.0,0.0,0.0,0.0,0.0,0.0,0.0,0.0,0.0,0.0,0.0,0.0,0.0,0.0,0.0,0.0,0.0,0.0,0.0,0.0,0.0,0.0,0.0,0.0,0.0,0.0,0.0,0.0,0.0,0.0,0.0,0.0,0.0,0.0,0.0,0.0,0.0,0.0,0.0,0.0,0.0,0.0,0.0,0.0,0.0,0.0,0.0,0.0,0.0,0.0,0.0,0.0,0.0,0.0,0.0,0.0,0.0,0.0,0.0,0.0,0.0,0.0,0.0,0.0,0.0,0.0,0.0,0.0,0.0,0.0,0.0,0.0,0.0,0.0,0.0,0.0,0.0,0.0,0.0,0.0,0.0,0.0,0.0,0.0,0.0,0.0,0.0,0.0,0.0,0.0,0.0,0.0,0.0,0.0,0.0,0.0,0.0,0.0,0.0,0.0,0.0,0.0,0.0,0.0,0.0,0.0,0.0,0.0,0.0,0.0,0.0,0.0,0.0,0.0,0.0,0.0,0.0,0.0,0.0,0.0,0.0,0.0,0.0,0.0,0.0,0.0,0.0,0.0,0.0,0.0,0.0,0.0,0.0,0.0,0.0,0.0,0.0,0.0,0.0,0.0,0.0,0.0,0.0,0.0,0.0,0.0,0.0,0.0,0.0,0.0,0.0,0.0,0.0,0.0,0.0,0.0,0.0,0.0,0.0,0.0,0.0,0.0,0.0,0.0,0.0,0.0,0.0,0.0,0.0,0.0,0.0,0.0,0.0,0.0,0.0,0.0,0.0,0.0,0.0,0.0,0.0,0.0,0.0,0.0,0.0,0.0,0.0,0.0,0.0,0.0,0.0,0.0,0.0,0.0,0.0,0.0,0.0,0.0,0.0,0.0,0.0,0.0,0.0,0.0,0.0,0.0,0.0,0.0,0.0,0.0,0.0,0.0,0.0,0.0,0.0,0.0,0.0,0.0,0.0,0.0,0.0,0.0,0.0,0.0,0.0,0.0,0.0,0.0,0.0,0.0,0.0,0.0,0.0,0.0,0.0,0.0,0.0,0.0,0.0,0.0,0.0,0.0,0.0,0.0,0.0,0.0,0.0,0.0,0.0,0.0,0.0,0.0,0.0,0.0,0.0,0.0,0.0,0.0,0.0,0.0,0.0,0.0,0.0,0.0,0.0,0.0,0.0,0.0,0.0,0.0,0.0,0.0,0.0,0.0,0.0,0.0,0.0,0.0,0.0,0.0,0.0,0.0,0.0,0.0,0.0,0.0,0.0,0.0,0.0,0.0,0.0,0.0,0.0,0.0,0.0,0.0,0.0,0.0,0.0,0.0,0.0,0.0,0.0,0.0,0.0,0.0,0.0,0.0,0.0,0.0,0.0,0.0,0.0,0.0,0.0,0.0,0.0,0.0,0.0,0.0,0.0,0.0,0.0,0.0,0.0,0.0,0.0,0.0,0.0,0.0,0.0,0.0,0.0,0.0,0.0,0.0,0.0,0.0,0.0,0.0,0.0,0.0,0.0,0.0,0.0,0.0,0.0,0.0,0.0,0.0,0.0,0.0,0.0,0.0,0.0,0.0,0.0,0.0,0.0,0.0,0.0,0.0,0.0,0.0,0.0,0.0,0.0,0.0,0.0,0.0,0.0,0.0,0.0,0.0,0.0,0.0,0.0,0.0,0.0,0.0,0.0,0.0,0.0,0.0,0.0,0.0,0.0,0.0,0.0,0.0,0.0,0.0,0.0,0.0,0.0,0.0,0.0,0.0,0.0,0.0,0.0,0.0,0.0,0.0,0.0,0.0,0.0,0.0,0.0,0.0,0.0,0.0,0.0,0.0,0.0,0.0,0.0,0.0,0.0,0.0,0.0,0.0,0.0,0.0,0.0,0.0,0.0,0.0,0.0,0.0,0.0,0.0,0.0,0.0,0.0,0.0,0.0,0.0,0.0,0.0,0.0,0.0,0.0,0.0,0.0,0.0,0.0,0.0,0.0,0.0,0.0,0.0,0.0,0.0,0.0,0.0,0.0,0.0,0.0,0.0,0.0,0.0,0.0,0.0,0.0,0.0,0.0,0.0,0.0,0.0,0.0,0.0,0.0,0.0,0.0,0.0,0.0,0.0,0.0,0.0,0.0,0.0,0.0,0.0,0.0,0.0,0.0,0.0,0.0,0.0,0.0,0.0,0.0,0.0,0.0,0.0,0.0,0.0,0.0,0.0,0.0,0.0,0.0,0.0,0.0,0.0,0.0,0.0,0.0,0.0,0.0,0.0,0.0,0.0,0.0,0.0,0.0,0.0,0.0,0.0,0.0,0.0,0.0,0.0,0.0,0.0,0.0,0.0,0.0,0.0,0.0,0.0,0.0,0.0,0.0,0.0,0.0,0.0,0.0,0.0,0.0,0.0,0.0,0.0,0.0,0.0,0.0,0.0,0.0,0.0,0.0,0.0,0.0,0.0,0.0,0.0,0.0,0.0,0.0,0.0,0.0,0.0,0.0,0.0,0.0,0.0,0.0,0.0,0.0,0.0,0.0,0.0,0.0,0.0,0.0,0.0,0.0,0.0,0.0,0.0,0.0,0.0,0.0,0.0,0.0,0.0,0.0,0.0,0.0,0.0,0.0,0.0,0.0,0.0,0.0,0.0,0.0,0.0,0.0,0.0,0.0,0.0,0.0,0.0,0.0,0.0,0.0,0.0,0.0,0.0,0.0,0.0,0.0,0.0,0.0,0.0,0.0,0.0,0.0,0.0,0.0,0.0,0.0,0.0,0.0,0.0,0.0,0.0,0.0,0.0,0.0,0.0,0.0,0.0,0.0,0.0,0.0,0.0,0.0,0.0,0.0,0.0,0.0,0.0,0.0,0.0,0.0,0.0,0.0,0.0,0.0,0.0,0.0,0.0,0.0,0.0,0.0,0.0,0.0,0.0,0.0,0.0,0.0,0.0,0.0,0.0,0.0,0.0,0.0,0.0,0.0,0.0,0.0,0.0,0.0,0.0,0.0,0.0,0.0,0.0,0.0,0.0,0.0,0.0,0.0,0.0,0.0,0.0,0.0,0.0,0.0,0.0,0.0,0.0,0.0,0.0,0.0,0.0,0.0,0.0,0.0,0.0,0.0,0.0,0.0,0.0,0.0,0.0,0.0,0.0,0.0,0.0,0.0,0.0,0.0,0.0,0.0,0.0,0.0,0.0,0.0,0.0,0.0,0.0,0.0,0.0,0.0,0.0,0.0,0.0,0.0,0.0,0.0,0.0,0.0,0.0,0.0,0.0,0.0,0.0,0.0,0.0,0.0,0.0,0.0,0.0,0.0,0.0,0.0,0.0,0.0,0.0,0.0,0.0,0.0,0.0,0.0,0.0,0.0,0.0,0.0,0.0,0.0,0.0,0.0,0.0,0.0,0.0,0.0,0.0,0.0,0.0,0.0,0.0,0.0,0.0,0.0,0.0,0.0,0.0,0.0,0.0,0.0,0.0,0.0,0.0,0.0,0.0,0.0,0.0,0.0,0.0,0.0,0.0,0.0,0.0,0.0,0.0,0.0,0.0,0.0,0.0,0.0,0.0,0.0,0.0,0.0,0.0,0.0,0.0,0.0,0.0,0.0,0.0,0.0,0.0,0.0,0.0,0.0,0.0,0.0,0.0,0.0,0.0,0.0,0.0,0.0,0.0,0.0,0.0,0.0,0.0,0.0,0.0,0.0,0.0,0.0,0.0,0.0,0.0,0.0,0.0,0.0,0.0,0.0,0.0,0.0,0.0,0.0,0.0,0.0,0.0,0.0,0.0,0.0,0.0,0.0,0.0,0.0,0.0,0.0,0.0,0.0,0.0,0.0,0.0,0.0,0.0,0.0,0.0,0.0,0.0,0.0,0.0,0.0,0.0,0.0,0.0,0.0,0.0,0.0,0.0,0.0,0.0,0.0,0.0,0.0,0.0,0.0,0.0,0.0,0.0,0.0,0.0,0.0,0.0,0.0,0.0,0.0,0.0,0.0,0.0,0.0,0.0,0.0,0.0,0.0,0.0,0.0,0.0,0.0,0.0,0.0,0.0,0.0,0.0,0.0,0.0,0.0,0.0,0.0,0.0,0.0,0.0,0.0,0.0,0.0,0.0,0.0,0.0,0.0,0.0,0.0,0.0,0.0,0.0,0.0,0.0,0.0,0.0,0.0,0.0,0.0,0.0,0.0,0.0,0.0,0.0,0.0,0.0,0.0,0.0,0.0,0.0,0.0,0.0,0.0,0.0,0.0,0.0,0.0,0.0,0.0,0.0,0.0,0.0,0.0,0.0,0.0,0.0,0.0,0.0,0.0,0.0,0.0,0.0,0.0,0.0,0.0,0.0,0.0,0.0,0.0,0.0,0.0,0.0,0.0,0.0,0.0,0.0,0.0,0.0,0.0,0.0,0.0,0.0,0.0,0.0,0.0,0.0,0.0,0.0,0.0,0.0,0.0,0.0,0.0,0.0,0.0,0.0,0.0,0.0,0.0,0.0,0.0,0.0,0.0,0.0,0.0,0.0,0.0,0.0,0.0,0.0,0.0,0.0,0.0,0.0,0.0,0.0,0.0,0.0,0.0,0.0,0.0,0.0,0.0,0.0,0.0,0.0,0.0,0.0,0.0,0.0,0.0,0.0,0.0,0.0,0.0,0.0,0.0,0.0,0.0,0.0,0.0,0.0,0.0,0.0,0.0,0.0,0.0,0.0,0.0,0.0,0.0,0.0,0.0,0.0,0.0,0.0,0.0,0.0,0.0,0.0,0.0,0.0,0.0,0.0,0.0,0.0,0.0,0.0,0.0,0.0,0.0,0.0,0.0,0.0,0.0,0.0,0.0,0.0,0.0,0.0,0.0,0.0,0.0,0.0,0.0,0.0,0.0,0.0,0.0,0.0,0.0,0.0,0.0,0.0,0.0,0.0,0.0,0.0,0.0,0.0,0.0,0.0,0.0,-1.324,0.0,0.0,0.0,0.0,0.0,0.0,0.0,0.0,0.0,0.0,0.0,0.0,0.0,0.0,0.0,0.0,0.0,0.0,0.0,0.0,0.0,0.0,0.0,0.0,-0.7099,-0.7099,-0.7099,-0.7099,-0.7099,-0.7099,0.0,0.0,0.0,0.0,0.0,-0.7101,-0.7349,-0.7485,-0.7485,-0.8312,-0.884,-0.9113,-0.9375,-0.8706,-0.7315,0.0,0.0,0.0,0.0,0.0,0.0,0.0,0.0,0.0,0.0,0.0,0.0,0.0,0.0,0.0,0.0,0.0,0.0,0.0,0.0,0.0,0.0,0.0,0.0,0.0,0.0,0.0,0.0,0.0,0.0,0.0,0.0,0.0,0.0,0.0,0.0,0.0,0.0,0.0,0.0,0.0,0.0,0.0,0.0,0.0,0.0,0.0,0.0,0.0,0.0,0.0,0.0,0.0,0.0,0.0,0.0,0.0,0.0,0.0,0.0,0.0,0.0,0.0,0.0,0.0,0.0,0.0,0.0,0.0,0.0,0.0,-1.459,0.0,0.0,0.0,0.0,0.0,0.0,0.0,0.0,0.0,0.0,0.0,0.0,0.0,0.0,0.0,0.0,0.0,0.0,0.0,0.0,0.0,-0.7171,-0.7107,-0.7099,-0.7139,-0.7248,-0.7153,-0.7139,-0.7248,-0.7153,0.0,0.0,0.0,-0.7096,-0.7104,-0.7623,-0.7944,-0.8044,-0.9364,-1.0346,-1.1018,-1.2042,-1.145,-0.9517,-0.9802,0.0,0.0,0.0,0.0,0.0,0.0,0.0,0.0,0.0,0.0,0.0,0.0,0.0,0.0,0.0,0.0,0.0,0.0,0.0,0.0,0.0,0.0,0.0,0.0,0.0,0.0,0.0,0.0,0.0,0.0,0.0,0.0,0.0,0.0,0.0,0.0,0.0,0.0,0.0,0.0,0.0,0.0,0.0,0.0,0.0,0.0,0.0,0.0,0.0,0.0,0.0,0.0,0.0,0.0,0.0,0.0,0.0,0.0,0.0,0.0,0.0,0.0,0.0,-1.9029,-1.9584,-1.9667,-2.0419,-2.064,-2.0367,-1.8642,-1.7257,-1.6249,-1.6204,0.0,0.0,0.0,0.0,0.0,0.0,0.0,0.0,0.0,0.0,0.0,0.0,0.0,0.0,0.0,0.0,0.0,0.0,0.0,-0.7171,-0.7107,-0.7099,-0.731,-0.7833,-0.7405,-0.7323,-0.7847,-0.7391,0.0,0.0,-0.7099,-0.7096,-0.7104,-0.7623,-0.8125,-0.86,-1.0677,-1.2259,-1.3376,-1.3975,-1.3857,-1.3056,-1.21,-1.1082,-1.0052,0.0,0.0,0.0,0.0,0.0,0.0,0.0,0.0,0.0,0.0,0.0,0.0,0.0,0.0,0.0,0.0,0.0,0.0,0.0,0.0,0.0,0.0,0.0,0.0,0.0,0.0,0.0,0.0,0.0,0.0,0.0,0.0,0.0,0.0,0.0,0.0,0.0,0.0,0.0,0.0,0.0,-0.9014,-0.9169,0.0,0.0,0.0,0.0,0.0,0.0,0.0,0.0,0.0,0.0,0.0,0.0,0.0,-1.7186,-1.8323,-1.9081,-1.9708,-2.0253,-2.0496,-2.0599,-2.0637,-2.137,-2.1636,-2.152,-2.1745,0.0,-1.8476,-1.8476,0.0,0.0,0.0,0.0,0.0,0.0,0.0,0.0,0.0,0.0,0.0,0.0,0.0,0.0,0.0,0.0,0.0,0.0,0.0,0.0,0.0,-0.7608,-0.7851,-0.8451,-0.8262,-0.8235,-0.8491,-0.7946,-0.7608,-0.7608,-0.7285,-0.7238,-0.7544,-0.8379,-0.9713,-1.1569,-1.2834,-1.3905,-1.4773,-1.533,-1.5322,-1.476,-1.4559,-1.364,-1.2233,-1.1659,0.0,0.0,0.0,0.0,0.0,0.0,0.0,0.0,0.0,0.0,0.0,0.0,0.0,0.0,0.0,0.0,0.0,0.0,0.0,0.0,0.0,0.0,0.0,0.0,0.0,0.0,0.0,0.0,0.0,0.0,0.0,0.0,0.0,0.0,0.0,0.0,0.0,0.0,0.0,-0.9459,-1.0612,-1.125,-1.1877,-1.2272,0.0,0.0,0.0,0.0,0.0,0.0,0.0,0.0,0.0,-1.7891,-1.8737,-1.9719,-2.0857,-2.176,-2.2518,-2.3108,-2.3535,-2.3721,-2.3734,-2.4156,-2.4275,-2.4145,-2.4408,-2.3664,-2.2231,-2.091,-1.9407,-1.7826,0.0,0.0,0.0,0.0,-1.5461,-1.631,0.0,0.0,0.0,0.0,0.0,0.0,0.0,0.0,0.0,0.0,0.0,0.0,-0.7964,-0.828,-0.8704,-0.9303,-0.9357,-0.9346,-0.9325,-0.8769,-0.8351,-0.8179,-0.7753,-0.7761,-0.8303,-0.9665,-1.1632,-1.4219,-1.4781,-1.5356,-1.5944,-1.6388,-1.6382,-1.5944,-1.6402,-1.5722,-1.4197,-1.3595,-1.2679,0.0,0.0,0.0,0.0,0.0,0.0,0.0,0.0,0.0,0.0,0.0,0.0,0.0,0.0,0.0,0.0,0.0,0.0,0.0,0.0,0.0,0.0,0.0,0.0,0.0,0.0,0.0,0.0,0.0,0.0,0.0,0.0,0.0,0.0,0.0,0.0,0.0,0.0,-1.1017,-1.2287,-1.3438,-1.4105,-1.4524,0.0,0.0,0.0,0.0,0.0,0.0,-1.7813,-1.8715,-1.959,-2.044,-2.1328,-2.2219,-2.3042,-2.4047,-2.4766,-2.5227,-2.5708,-2.5936,-2.5936,-2.6091,-2.6091,-2.5936,-2.5936,-2.5669,-2.507,-2.3158,-2.1721,-2.0597,-1.9747,-1.9237,-1.8885,-1.8192,-1.8623,-1.959,0.0,0.0,0.0,0.0,0.0,0.0,0.0,0.0,0.0,0.0,0.0,-0.8113,-0.8005,-0.9016,-0.995,-1.0557,-1.0611,-1.0575,0.0,-0.9953,-0.933,-0.8691,-0.8641,-0.8875,-0.9404,-1.1593,-1.3608,-1.5408,-1.6029,-1.6584,-1.712,-1.7146,-1.7146,-1.712,-1.7146,-1.6506,-1.5369,-1.4768,-1.387,-1.2718,0.0,0.0,0.0,0.0,0.0,0.0,0.0,0.0,0.0,0.0,0.0,0.0,0.0,0.0,0.0,0.0,0.0,0.0,0.0,0.0,0.0,0.0,0.0,0.0,0.0,0.0,0.0,0.0,0.0,0.0,0.0,0.0,0.0,0.0,0.0,0.0,0.0,0.0,0.0,-1.5225,-1.5892,0.0,0.0,0.0,0.0,-1.7878,-1.8427,-1.9002,-1.9643,-2.1276,-2.2204,-2.2257,-2.3893,-2.4809,-2.4861,-2.5432,-2.5715,-2.5754,-2.578,-2.5824,-2.5824,-2.5824,-2.5824,-2.5824,-2.5824,-2.5798,-2.5702,-2.5097,-2.4099,-2.3013,-2.296,-2.2296,-2.1407,-2.1917,-2.1799,-2.1459,0.0,0.0,0.0,-0.7925,-0.7855,-0.7775,-0.7627,-0.7574,-0.7663,-0.7913,-0.8095,-0.8617,-0.9684,-1.0146,-1.0763,-1.171,-1.1791,-1.1603,-1.1135,-1.0549,-1.011,-0.9874,-0.9446,-0.9994,-1.1645,-1.3582,-1.5055,-1.6075,-1.6637,-1.7003,-1.7199,-1.7199,-1.7199,-1.7199,-1.7199,-1.6977,-1.6558,-1.6016,-1.5291,-1.4428,-1.2915,-1.1814,0.0,0.0,0.0,0.0,0.0,0.0,0.0,0.0,0.0,0.0,0.0,0.0,0.0,0.0,0.0,0.0,0.0,0.0,0.0,0.0,0.0,0.0,0.0,0.0,0.0,0.0,0.0,0.0,0.0,0.0,0.0,0.0,0.0,0.0,0.0,0.0,0.0,-1.7029,-1.8009,0.0,-1.8858,-1.9235,-1.9679,-2.0257,-2.0832,-2.1577,-2.2531,-2.3511,-2.4217,-2.4583,-2.5197,-2.5876,-2.6608,-2.6785,-2.7301,-2.8046,-2.8046,-2.8046,-2.8046,-2.8046,-2.8046,-2.8046,-2.8046,-2.8046,-2.8033,-2.7857,-2.6621,-2.4827,-2.4491,-2.4321,-2.424,-2.4112,-2.4151,-2.4292,-0.8211,-0.818,0.0,-0.7998,-0.7927,-0.7849,-0.7694,-0.7635,-0.7775,-0.8276,-0.8442,-0.9085,-1.0637,-1.1096,-1.1669,-1.2624,-1.2893,-1.2701,-1.1987,-1.1574,-1.1229,-1.1018,-1.0965,-1.1829,-1.3739,-1.5113,-1.6094,-1.6663,-1.7225,-1.7499,-1.7512,-1.7695,-1.7774,-1.7774,-1.7774,-1.7774,-1.7748,-1.7382,-1.6676,-1.5683,-1.431,-1.3304,-1.244,0.0,0.0,0.0,0.0,0.0,0.0,0.0,0.0,0.0,0.0,0.0,0.0,0.0,0.0,0.0,0.0,0.0,0.0,0.0,0.0,0.0,0.0,0.0,0.0,0.0,0.0,0.0,0.0,0.0,0.0,0.0,0.0,0.0,0.0,0.0,-1.7622,-1.8819,-1.9799,-2.0453,-2.0674,-2.121,-2.1786,-2.2348,-2.2936,-2.3694,-2.4605,-2.5419,-2.6007,-2.6354,-2.6778,-2.7353,-2.8111,-2.8124,-2.8503,-2.931,-2.931,-2.931,-2.931,-2.931,-2.931,-2.931,-2.931,-2.931,-2.931,-2.931,-2.8373,-2.6935,-2.6379,-2.6112,-2.6059,-2.5712,-2.5654,-2.5793,-0.8205,-0.815,-0.8102,-0.8099,-0.7993,-0.7885,-0.782,-0.7687,-0.7797,-0.8367,-0.8828,-0.955,-1.0719,-1.1844,-1.2723,-1.327,-1.3864,-1.3853,-1.305,-1.301,-1.2727,-1.2086,-1.3239,-1.4406,-1.5487,-1.6114,-1.6676,-1.7225,-1.7813,-1.8114,-1.814,-1.8662,-1.8911,-1.8911,-1.8911,-1.8911,-1.8911,-1.8911,-1.7957,-1.6415,-1.58,-1.4886,-1.3762,0.0,0.0,0.0,0.0,0.0,0.0,0.0,0.0,0.0,0.0,0.0,0.0,0.0,0.0,0.0,0.0,0.0,0.0,0.0,0.0,0.0,0.0,0.0,0.0,0.0,0.0,0.0,0.0,0.0,0.0,0.0,0.0,0.0,-1.648,-1.7917,-1.942,-2.0622,-2.1237,-2.1812,-2.2414,-2.2962,-2.3509,-2.4096,-2.4713,-2.5288,-2.5819,-2.6929,-2.7555,-2.7555,-2.8686,-2.9323,-2.9301,-2.9301,-2.9314,-2.9362,-2.9362,-2.9362,-2.9362,-2.9362,-2.9362,-2.9362,-2.9362,-2.9362,-2.9362,-2.9362,-2.9327,-2.9284,-2.8669,-2.7753,-2.6758,-2.6758,-2.636,-2.5845,-0.8205,-0.818,-0.8154,-0.8099,-0.8028,-0.7942,-0.7885,-0.7753,-0.8019,-0.9003,-0.9103,-0.9891,-1.195,-1.2361,-1.2842,-1.3728,-1.3968,-1.373,-1.2988,-1.2933,-1.3035,-1.3291,-1.482,-1.5826,-1.614,-1.6689,-1.7264,-1.7852,-1.8022,-1.8296,-1.8689,-1.8832,-1.8911,-1.8911,-1.8911,-1.8911,-1.8911,-1.8911,-1.8636,-1.8127,-1.7133,-1.6545,-1.6088,0.0,0.0,0.0,0.0,0.0,0.0,0.0,0.0,0.0,0.0,0.0,0.0,0.0,0.0,0.0,0.0,0.0,0.0,0.0,0.0,0.0,0.0,0.0,0.0,0.0,0.0,0.0,0.0,0.0,0.0,0.0,0.0,-1.8218,-1.8218,-1.9708,-2.1224,-2.2374,-2.3041,-2.3629,-2.422,-2.4766,-2.514,-2.531,-2.6237,-2.6896,-2.702,-2.8164,-2.8804,-2.8804,-2.9118,-2.9483,-2.9902,-2.9865,-3.0111,-3.0516,-3.0516,-3.0516,-3.0516,-3.0516,-3.0516,-3.0516,-3.0516,-3.0516,-3.0516,-3.0516,-3.0268,-2.98,-2.9261,-2.8603,-2.7949,-2.7949,-2.7549,-2.7033,-0.8158,-0.8202,-0.8176,-0.8104,-0.8071,-0.8021,-0.7942,-0.7834,-0.8155,-0.9293,-0.9264,-0.9951,-1.2085,-1.2198,-1.2561,-1.361,-1.3656,-1.3536,-1.3329,-1.3507,-1.3866,-1.4498,-1.5722,-1.6506,-1.6728,-1.729,-1.7748,-1.81,-1.8571,-1.8976,-1.929,-1.9525,-1.9643,-1.9643,-1.9643,-1.9643,-1.9643,-1.9643,-1.9643,-1.9588,-1.8649,-1.7852,-1.7094,-1.6075,-1.5382,-1.4807,-1.3536,-1.3092,-1.2818,-1.1004,0.0,0.0,0.0,0.0,0.0,0.0,0.0,0.0,0.0,0.0,0.0,0.0,0.0,0.0,0.0,0.0,0.0,0.0,0.0,0.0,0.0,0.0,0.0,0.0,-1.9447,-2.0806,-2.1054,-2.1956,-2.2936,-2.3851,-2.4478,-2.4962,-2.5288,-2.585,-2.6282,-2.6485,-2.7346,-2.7994,-2.8242,-2.9131,-2.964,-2.964,-2.9862,-3.015,-3.049,-3.049,-3.066,-3.0986,-3.0986,-3.0986,-3.0986,-3.0986,-3.0986,-3.0986,-3.0986,-3.0986,-3.0986,-3.0986,-3.079,0.0,0.0,0.0,0.0,0.0,-2.8177,-2.785,-0.7949,-0.8155,-0.8183,-0.8116,-0.8097,-0.8071,-0.8021,-0.7899,-0.8195,-0.9258,-0.9284,-0.9838,-1.1517,-1.1651,-1.2034,-1.3095,-1.3071,-1.3258,-1.3852,-1.4402,-1.4964,-1.5584,-1.6166,-1.6702,-1.7186,-1.7787,-1.8127,-1.8192,-1.9277,-1.9839,-1.9904,-2.0438,-2.0699,-2.0699,-2.0699,-2.0699,-2.0699,-2.0699,-2.0699,-2.066,-2.0137,-1.8885,-1.7382,-1.7316,-1.6624,-1.5604,-1.5021,-1.4794,-1.4642,-1.349,0.0,0.0,0.0,0.0,0.0,0.0,0.0,0.0,0.0,0.0,0.0,0.0,0.0,0.0,0.0,0.0,0.0,0.0,0.0,0.0,0.0,0.0,0.0,0.0,-2.1956,-2.3576,-2.4295,-2.437,-2.4596,-2.5136,-2.5602,-2.5936,-2.6067,-2.6569,-2.7105,-2.7646,-2.8255,-2.8817,-2.934,0.0,0.0,0.0,0.0,-3.0986,-3.0986,-3.0986,-3.0986,-3.0986,-3.0986,-3.0986,-3.0986,-3.0986,-3.0986,-3.0986,-3.0986,-3.0986,-3.0986,-3.0986,-3.0986,-3.0934,-3.0322,-2.9823,-2.9301,-2.8734,-2.8512,-2.8399,-0.7265,-0.7836,-0.8183,-0.8116,-0.8097,-0.81,-0.8078,-0.7972,-0.8101,-0.8691,-0.9019,-0.9675,-1.0936,-1.1378,-1.1858,-1.2517,-1.2497,-1.2845,0.0,0.0,-1.5591,-1.6192,-1.6754,-1.7094,-1.7199,-1.7787,-1.831,-1.8754,-1.946,-2.0035,-2.0517,-2.066,-2.0699,-2.0699,-2.0699,-2.0699,-2.0699,-2.0699,-2.0699,-2.0699,-2.0581,-1.9745,-1.8532,-1.8087,-1.7486,-1.6794,-1.6245,-1.6049,-1.5866,-1.4663,-1.3922,-1.3304,-1.2496,0.0,0.0,0.0,0.0,0.0,0.0,0.0,0.0,0.0,0.0,0.0,0.0,0.0,0.0,0.0,0.0,0.0,0.0,0.0,0.0,-2.2151,-2.3313,-2.4465,-2.5968,-2.6209,-2.6248,-2.6366,-2.647,-2.6902,-2.7798,-2.8014,-2.8328,-2.8895,-2.947,-2.9813,-2.9931,-3.0516,-3.083,-3.083,-3.0934,-3.0986,-3.0986,-3.0986,-3.0986,-3.0986,0.0,0.0,-3.0986,-3.0986,-3.0986,-3.0986,-3.0986,-3.0986,-3.0986,-3.0986,-3.0986,-3.0934,-3.0322,-3.0035,-2.9865,-2.9314,-2.914,-2.9048,-0.7027,-0.7723,-0.8183,-0.8116,-0.8096,-0.8097,-0.8092,-0.7992,-0.8079,-0.8574,-0.8772,-0.9171,-1.0003,-1.025,-1.0697,-1.1533,-1.2258,0.0,0.0,-1.4895,-1.5761,-1.6362,-1.6911,-1.7199,-1.7199,-1.8048,-1.8636,-1.8911,-1.9823,-2.0399,-2.0699,-2.0699,-2.0699,-2.0699,-2.0699,-2.0699,-2.0699,-2.0699,-2.0699,-2.0699,-2.0699,-1.998,-1.8872,-1.861,-1.814,-1.7578,-1.7003,-1.6794,-1.6702,-1.6101,-1.5539,-1.5008,-1.4393,-1.3213,-1.1878,0.0,0.0,0.0,0.0,0.0,0.0,0.0,0.0,0.0,0.0,0.0,0.0,0.0,0.0,-1.7735,0.0,0.0,-2.2073,-2.3812,-2.4831,-2.5694,-2.6588,-2.6922,-2.7105,-2.7105,-2.7105,-2.7432,-2.8328,-2.842,-2.8752,-2.964,-2.9931,-3.0218,-3.0542,-3.083,-3.0986,-3.0986,-3.0986,-3.0986,-3.0986,-3.0986,-3.0986,-3.0986,-3.0986,-3.0986,-3.0986,-3.0986,-3.0986,-3.0986,-3.0986,-3.0986,-3.0986,-3.0986,-3.0986,-3.096,-3.0673,-3.0555,-3.049,-2.9915,-2.9706,-2.9627,-0.7199,-0.7781,-0.8161,-0.8109,-0.8094,-0.8102,-0.8106,-0.8005,-0.8086,-0.8485,-0.8528,-0.8674,-0.9095,-0.9122,-0.9519,-1.0541,0.0,0.0,0.0,-1.4954,-1.5871,-1.6559,-1.7018,-1.7233,-1.7199,-1.8323,-1.8911,-1.8911,-2.0111,-2.0699,-2.0699,-2.0699,-2.0699,-2.0699,-2.0699,-2.0699,-2.0699,-2.0699,-2.0699,-2.0699,-2.0699,-2.0046,-1.9068,-1.895,-1.8493,-1.7852,-1.7369,-1.7199,-1.7199,-1.7199,-1.6911,-1.6467,-1.597,-1.5061,-1.3931,-1.2975,-1.1786,0.0,0.0,0.0,0.0,0.0,0.0,0.0,0.0,0.0,-1.7382,-1.8532,-1.9669,-2.0963,-2.2609,-2.3354,-2.4073,-2.5149,-2.6104,-2.6745,-2.6831,-2.7236,-2.749,-2.749,-2.749,-2.7764,-2.849,-2.859,-2.9039,-3.0179,-3.0257,-3.0503,-3.096,-3.0986,-3.0986,-3.0986,-3.0986,-3.0986,-3.0986,-3.0986,-3.0986,-3.0986,-3.0986,-3.0986,-3.0986,-3.0986,-3.0986,-3.0986,-3.0986,-3.0986,-3.0986,-3.0986,-3.0986,-3.0986,-3.0986,-3.0986,-3.0934,-3.0464,-3.0257,-3.0179,-0.7949,-0.8099,-0.8109,-0.8094,-0.8094,-0.8094,-0.8102,-0.809,-0.8051,-0.8004,-0.8349,-0.8596,-0.8588,-0.8954,-0.9407,-0.9952,0.0,0.0,-1.3893,-1.5101,-1.6214,-1.7239,-1.7357,-1.7329,-1.7199,-1.8323,-1.8911,-1.8911,-2.0111,-2.0699,-2.0699,-2.0699,-2.0699,-2.0699,-2.0699,-2.0699,-2.0699,-2.0699,-2.0699,-2.0699,-2.0699,-2.0294,-1.9643,-1.9107,-1.8231,-1.729,-1.7225,-1.7199,-1.7199,-1.7199,-1.716,-1.7094,-1.7029,-1.6219,-1.5278,-1.5147,0.0,-1.2718,-1.3189,-1.4066,-1.4977,-1.5644,-1.6676,-1.7539,0.0,0.0,-1.9747,-2.0884,-2.2047,-2.321,-2.4482,-2.5145,-2.5746,-2.6418,-2.6627,-2.6857,-2.732,-2.7451,-2.749,-2.749,-2.749,-2.7968,-2.91,-2.9218,-2.9653,-3.0803,-3.0895,-3.0921,-3.0986,-3.0986,-3.0986,-3.0986,-3.0986,-3.0986,-3.0986,-3.0986,-3.0986,-3.0986,-3.0986,-3.0986,-3.0986,-3.0986,-3.0986,-3.0986,-3.0986,-3.0986,-3.0986,-3.0986,-3.0986,-3.0986,-3.0986,-3.0986,-3.0973,-3.0908,-3.0895,-3.0803,-0.8064,-0.8145,-0.8094,-0.8094,-0.8094,-0.8094,-0.8094,-0.8097,-0.8071,-0.8021,-0.8124,-0.8183,-0.8159,-0.8576,-0.9038,-0.9511,-1.0828,-1.2183,-1.351,-1.4971,-1.6139,-1.6897,-1.724,-1.737,-1.7329,-1.8066,-1.844,-1.844,-1.9237,-1.9836,-2.019,-2.019,-2.036,-2.0699,-2.0699,-2.0699,-2.0699,-2.0699,-2.0699,-2.0673,-2.0321,-1.9799,-1.9211,-1.8649,-1.7917,-1.7199,-1.7199,-1.699,0.0,0.0,-1.6728,-1.6728,-1.6728,-1.6611,-1.6428,-1.6114,-1.55,0.0,-1.5617,-1.6611,0.0,0.0,-1.9509,-2.0608,-2.0597,-2.1747,-2.2977,-2.3448,-2.4164,-2.4988,-2.5842,-2.6183,-2.6504,0.0,-2.7445,-2.7641,-2.7516,-2.7811,-2.7902,-2.7529,-2.749,-2.796,-2.917,-2.931,-2.9758,-3.0895,-3.0986,-3.0986,-3.0986,-3.0986,-3.0986,-3.0986,-3.0986,-3.0986,-3.0986,-3.0986,-3.0986,-3.0986,-3.0986,-3.0986,-3.0986,-3.0986,-3.0986,-3.0986,-3.0986,-3.0986,-3.0986,-3.0986,-3.0986,-3.0986,-3.0986,-3.0986,-3.0986,-3.0986,-3.0986,-3.0947,-0.8111,-0.8145,-0.8094,-0.8094,-0.8094,-0.8094,-0.8094,-0.8104,-0.8099,-0.8092,-0.8005,-0.7948,-0.7904,-0.8182,-0.857,-0.9057,-1.0462,-1.184,-1.3082,-1.46,-1.5814,-1.6649,-1.7037,-1.7294,-1.7404,-1.7886,-1.8109,-1.81,-1.8636,-1.9133,-1.9551,-1.9551,-1.9773,-2.0203,-2.0203,-2.0203,-2.0203,-2.0203,-2.0203,-2.0164,-1.9721,-1.9198,-1.8636,-1.8244,-1.763,-1.6977,-1.6977,-1.6728,0.0,0.0,-1.614,-1.614,-1.614,-1.6532,-1.6898,-1.6506,-1.6611,-1.7055,-1.7939,0.0,0.0,-2.0518,-2.1799,-2.2924,-2.308,-2.4204,-2.521,-2.521,-2.5537,-2.591,-2.636,-2.6601,0.0,-2.7236,-2.7902,-2.8177,-2.7568,-2.802,-2.8177,-2.7555,-2.749,-2.7928,-2.8935,-2.9218,-2.9693,-3.0673,-3.0895,-3.0986,-3.0986,-3.0986,-3.0986,-3.0986,-3.0986,-3.0986,-3.0986,-3.0986,-3.0986,-3.0986,-3.0986,-3.0986,-3.0986,-3.0986,-3.0986,-3.0986,-3.0986,-3.0986,-3.0986,-3.0986,-3.0986,-3.0986,-3.0986,-3.0986,-3.0986,-3.0986,-3.0986,-3.0986,-0.8197,-0.8145,-0.8094,-0.8094,-0.8094,-0.8094,-0.8094,-0.8094,-0.8096,-0.8099,-0.8092,-0.8041,-0.7911,-0.7863,-0.8041,-0.8574,-0.9676,-1.105,-1.2705,-1.3907,-1.5247,-1.6807,-1.6825,-1.6996,-1.7391,-1.7924,-1.817,-1.81,-1.8636,-1.8911,-1.8937,-1.8937,-1.8937,-1.8963,-1.8963,-1.8963,-1.8963,-1.8963,-1.8963,-1.8963,-1.8937,-1.861,-1.8127,-1.8114,-1.7395,-1.6415,-1.6415,0.0,0.0,0.0,-1.5526,-1.5526,-1.5526,-1.5931,0.0,-1.6402,-1.7173,0.0,0.0,0.0,-2.1027,-2.2701,-2.3561,-2.4204,-2.4796,-2.5354,-2.5767,-2.5767,-2.578,-2.5806,-2.5806,-2.6308,-2.6719,-2.6732,-2.7674,-2.8177,-2.7568,-2.802,-2.8177,-2.7555,-2.749,-2.7725,0.0,-2.897,-2.9523,-3.0087,-3.0673,-3.0986,-3.0986,-3.0986,-3.0986,-3.0986,-3.0986,-3.0986,-3.0986,-3.0986,-3.0986,-3.0986,-3.0986,-3.0986,-3.0986,-3.0986,-3.0986,-3.0986,-3.0986,-3.0986,-3.0986,-3.0986,-3.0986,-3.0986,-3.0986,-3.0986,-3.0986,-3.0986,-3.0986,-3.0986,-0.8207,-0.8188,-0.8145,-0.8109,-0.8094,-0.8094,-0.8094,-0.8094,-0.8102,-0.8096,-0.8096,0.0,0.0,0.0,0.0,0.0,-0.9782,-1.08,-1.1678,-1.36,-1.4902,-1.5342,-1.6085,-1.6508,-1.6588,-1.6648,-1.6863,-1.7236,-1.7286,-1.7697,-1.8424,-1.8384,-1.8558,-1.8911,-1.8911,-1.8911,-1.8911,-1.8911,-1.8911,-1.8872,-1.8506,-1.8257,-1.8022,-1.7251,-1.6728,-1.6245,0.0,0.0,0.0,-1.4964,-1.4899,-1.4964,-1.5369,0.0,0.0,-1.7303,0.0,0.0,0.0,0.0,-2.3093,-2.3668,-2.4818,-2.5895,-2.6078,-2.6287,-2.6386,-2.6386,-2.5816,-2.5262,-2.5262,-2.545,-2.5698,-2.6046,-2.7392,-2.8307,-2.8124,-2.8643,-2.8752,-2.8164,-2.7758,0.0,0.0,0.0,0.0,-3.0061,-3.066,-3.0986,-3.0986,-3.0986,-3.0986,-3.0986,-3.0986,-3.0986,-3.0986,-3.0986,-3.0986,-3.0986,-3.1123,-3.1123,-3.0986,-3.1123,-3.1123,-3.0986,-3.0986,-3.0986,-3.0986,-3.0986,-3.0986,-3.0986,-3.0986,-3.0986,-3.0986,-3.0986,-3.0986,-3.0986,-0.8252,-0.8222,-0.819,-0.8139,-0.8116,0.0,0.0,0.0,0.0,0.0,0.0,0.0,0.0,0.0,0.0,0.0,0.0,-1.023,-1.0962,-1.2627,-1.3841,-1.4428,-1.5296,-1.5817,-1.5946,-1.6027,-1.6231,-1.6548,-1.6401,-1.6678,-1.7381,-1.7515,-1.7742,-1.8083,-1.8315,-1.8394,-1.8394,-1.8394,-1.8289,-1.8044,-1.7689,-1.746,-1.7197,-1.6461,-1.5922,0.0,0.0,0.0,0.0,-1.4001,0.0,0.0,0.0,0.0,0.0,0.0,0.0,-2.0361,0.0,-2.2975,-2.4269,-2.487,-2.5863,-2.6706,-2.6706,-2.6706,-2.6536,-2.589,-2.5171,-2.4543,-2.4154,-2.4387,-2.4844,-2.5419,-2.6961,-2.8137,-2.8381,-2.893,-2.9179,-2.8786,-2.8386,-2.8294,0.0,0.0,0.0,-3.0074,-3.066,-3.0986,-3.0986,-3.0986,-3.0986,-3.0986,-3.1061,-3.1099,-3.1099,-3.1174,-3.1211,-3.1224,-3.136,-3.1323,-3.1224,-3.136,-3.1286,-3.1099,-3.1099,-3.1061,-3.0986,-3.0986,-3.0986,-3.0986,-3.0986,-3.0986,-3.0986,-3.0986,-3.0986,-3.0986,-0.8315,-0.8247,-0.8197,0.0,0.0,0.0,0.0,0.0,0.0,0.0,0.0,0.0,0.0,0.0,0.0,0.0,0.0,0.0,-1.0525,-1.1088,0.0,-1.3983,-1.4467,-1.4922,-1.5379,-1.5941,-1.6168,-1.6,-1.5955,-1.591,-1.5891,-1.6369,-1.6578,-1.6604,-1.7183,-1.7443,-1.7443,-1.7423,-1.7096,-1.6558,-1.6532,-1.6199,-1.5753,-1.5699,0.0,0.0,0.0,0.0,0.0,0.0,0.0,0.0,0.0,0.0,0.0,0.0,0.0,-2.1302,-2.3511,-2.4178,-2.4635,-2.63,-2.6706,-2.6706,-2.6706,-2.6641,-2.6104,-2.4413,-2.4008,-2.3602,0.0,0.0,-2.4138,-2.4769,-2.6295,-2.7633,-2.8294,-2.893,-2.9323,0.0,0.0,0.0,0.0,0.0,0.0,-3.0176,0.0,-3.0986,-3.0986,-3.0986,-3.0986,-3.1024,-3.1198,-3.131,-3.131,-3.1522,-3.1609,-3.1609,-3.1609,-3.1609,-3.1609,-3.1609,-3.1522,-3.131,-3.131,-3.1198,-3.1024,-3.0986,-3.0986,-3.0986,-3.0986,-3.0986,-3.0986,-3.0986,-3.0986,-3.0986,0.0,0.0,0.0,0.0,0.0,0.0,0.0,0.0,0.0,0.0,0.0,0.0,0.0,0.0,0.0,0.0,0.0,0.0,0.0,0.0,0.0,0.0,0.0,-1.3427,-1.401,-1.4056,0.0,0.0,0.0,-1.5233,-1.561,-1.6122,-1.6386,-1.6386,-1.6536,-1.6605,-1.6605,-1.6493,-1.6374,-1.618,0.0,-1.5318,-1.5105,0.0,0.0,0.0,0.0,0.0,0.0,0.0,0.0,0.0,0.0,0.0,-1.9342,0.0,0.0,-2.2792,-2.3838,-2.5053,-2.6125,-2.6601,-2.6706,-2.6706,-2.6706,-2.5694,-2.4517,-2.36,-2.2426,-2.1341,-2.0597,0.0,0.0,-2.2885,-2.4844,0.0,-2.8211,-2.893,0.0,0.0,0.0,-2.9444,-2.9839,-3.0155,0.0,0.0,-3.1007,-3.0986,-3.0986,-3.0986,-3.1061,-3.1235,-3.1272,-3.1347,-3.1522,-3.1572,-3.1609,-3.1609,-3.1743,-3.1743,-3.1609,-3.1743,-3.1706,-3.1522,-3.136,-3.1272,-3.1198,-3.1061,-3.0986,-3.0986,-3.0986,-3.0986,-3.0986,-3.0986,-3.0986,-3.0986,0.0,0.0,0.0,0.0,0.0,0.0,0.0,0.0,0.0,0.0,0.0,0.0,0.0,0.0,0.0,0.0,0.0,0.0,0.0,0.0,0.0,0.0,0.0,-1.2103,-1.2742,-1.2952,-1.3331,0.0,0.0,0.0,0.0,-1.5037,-1.5296,-1.531,-1.5544,-1.5638,-1.5638,-1.5554,0.0,0.0,0.0,0.0,0.0,0.0,0.0,0.0,0.0,0.0,0.0,0.0,0.0,-1.7382,-1.8423,-1.9418,-2.0465,-2.1812,0.0,-2.3851,-2.4936,-2.5942,-2.6706,-2.6706,-2.6706,-2.651,-2.572,-2.4609,-2.3406,-2.2322,-2.1145,0.0,0.0,0.0,0.0,0.0,0.0,0.0,-2.826,-2.9048,-2.9695,0.0,-3.0361,0.0,-3.0587,-3.0797,-3.1053,0.0,-3.1336,-3.1211,-3.1136,-3.1123,-3.1161,-3.131,-3.1397,-3.1582,-3.1853,-3.1853,-3.1853,-3.1853,-3.1963,-3.1963,-3.1853,-3.1963,-3.1927,-3.172,0.0,-3.1508,-3.1434,-3.1323,-3.1261,-3.1261,-3.1174,-3.1123,-3.1123,-3.1024,-3.0986,-3.0986,0.0,0.0,0.0,0.0,0.0,0.0,0.0,0.0,0.0,0.0,0.0,0.0,0.0,0.0,0.0,0.0,0.0,0.0,0.0,0.0,0.0,0.0,0.0,-1.0892,-1.1563,0.0,0.0,0.0,0.0,0.0,0.0,0.0,0.0,0.0,0.0,0.0,0.0,0.0,0.0,0.0,0.0,0.0,0.0,0.0,0.0,0.0,0.0,0.0,0.0,0.0,-1.6866,-1.78,-2.0018,-2.0804,-2.1315,-2.3393,-2.4135,-2.4674,-2.6164,-2.6706,-2.6798,-2.6719,-2.6588,-2.6052,-2.4374,-2.3326,-2.2296,-2.0699,0.0,0.0,-1.8685,0.0,-2.0671,-2.1904,0.0,-2.5708,-2.8047,-2.8976,-2.986,-3.1095,-3.1307,-3.1347,-3.1347,-3.1522,-3.1646,-3.1646,-3.1646,-3.1596,-3.1347,-3.1347,-3.1347,-3.1384,-3.1582,-3.1853,-3.2218,-3.2218,-3.2218,-3.2218,-3.2218,-3.2218,-3.2218,-3.2218,-3.2109,-3.1927,-3.189,-3.178,-3.1646,-3.1609,-3.1609,-3.1559,-3.1397,-3.131,-3.1272,-3.1099,-3.1024,-3.0986,0.0,0.0,0.0,0.0,0.0,0.0,0.0,0.0,0.0,0.0,0.0,0.0,0.0,0.0,0.0,0.0,0.0,0.0,0.0,0.0,0.0,0.0,0.0,0.0,0.0,0.0,0.0,0.0,0.0,0.0,0.0,0.0,0.0,0.0,0.0,0.0,0.0,0.0,0.0,0.0,0.0,0.0,0.0,0.0,0.0,0.0,0.0,0.0,0.0,0.0,-1.7481,-1.8845,-2.0255,-2.1354,-2.227,-2.3119,-2.437,-2.5558,-2.5858,-2.6628,-2.7262,-2.6824,-2.5999,-2.4966,-2.3668,-2.1825,0.0,0.0,0.0,-1.7054,-1.7009,-1.758,0.0,-2.0306,0.0,0.0,0.0,0.0,-2.944,0.0,0.0,0.0,0.0,0.0,0.0,0.0,0.0,-3.1927,-3.1572,-3.1559,-3.1633,-3.178,-3.2,-3.2146,-3.2218,-3.2218,-3.2218,-3.2218,-3.2218,-3.2218,-3.2218,-3.2218,-3.2182,-3.2146,-3.1963,0.0,-3.1853,-3.1683,-3.1609,-3.1609,-3.1572,-3.1434,-3.131,-3.1272,-3.1123,-3.0986,0.0,0.0,0.0,0.0,0.0,0.0,0.0,0.0,0.0,0.0,0.0,0.0,0.0,0.0,0.0,0.0,0.0,0.0,0.0,0.0,0.0,0.0,0.0,0.0,0.0,0.0,0.0,0.0,0.0,0.0,0.0,0.0,0.0,0.0,0.0,0.0,0.0,0.0,0.0,0.0,0.0,0.0,0.0,0.0,0.0,0.0,0.0,0.0,0.0,0.0,-1.6804,-1.8477,-2.0221,-2.1498,-2.2557,-2.3433,-2.476,-2.6002,-2.6304,-2.6867,-2.7221,-2.6614,-2.5612,-2.4358,-2.2867,0.0,0.0,0.0,0.0,-1.6148,-1.6186,0.0,0.0,0.0,0.0,0.0,0.0,0.0,0.0,0.0,0.0,0.0,0.0,0.0,0.0,0.0,0.0,-3.2073,-3.178,-3.1743,-3.178,-3.189,-3.2109,-3.2218,-3.2218,-3.2218,-3.2218,-3.2218,-3.2218,-3.2218,-3.2218,-3.2218,-3.2218,-3.2182,-3.2109,0.0,-3.2036,-3.1963,-3.189,-3.189,-3.178,-3.1706,-3.1582,-3.1384,-3.1235,-3.1123,0.0,0.0,0.0,0.0,0.0,0.0,0.0,0.0,-0.8116,-0.8094,-0.8094,-0.8094,-0.8094,-0.8094,0.0,0.0,0.0,0.0,0.0,0.0,0.0,0.0,0.0,0.0,0.0,0.0,0.0,0.0,0.0,0.0,0.0,0.0,0.0,0.0,0.0,0.0,0.0,0.0,0.0,0.0,0.0,0.0,0.0,0.0,0.0,0.0,0.0,0.0,0.0,0.0,-1.5814,-1.739,-1.9402,-2.0993,-2.2337,-2.3491,-2.4734,-2.5871,-2.6453,-2.6844,-2.6934,-2.6199,-2.5237,-2.3967,-2.2042,-2.0251,0.0,0.0,0.0,-1.5604,-1.5725,0.0,0.0,0.0,0.0,0.0,0.0,0.0,0.0,0.0,0.0,0.0,0.0,0.0,0.0,0.0,0.0,0.0,-3.1963,-3.1963,-3.1963,-3.1963,-3.2109,-3.2218,-3.2218,-3.2218,-3.2218,-3.2218,-3.2218,-3.2218,-3.2218,-3.2218,-3.2218,-3.2218,-3.2218,0.0,0.0,-3.2218,-3.2218,-3.2182,-3.2036,-3.1927,-3.1853,-3.1545,-3.1384,-3.136,0.0,0.0,0.0,0.0,0.0,0.0,0.0,0.0,-0.8168,-0.8109,-0.8094,-0.8094,-0.8094,-0.8094,0.0,0.0,0.0,0.0,0.0,0.0,0.0,0.0,0.0,0.0,0.0,0.0,0.0,0.0,0.0,0.0,0.0,0.0,0.0,0.0,0.0,0.0,0.0,0.0,0.0,0.0,0.0,0.0,0.0,0.0,0.0,0.0,0.0,0.0,0.0,0.0,0.0,-1.5745,-1.7101,-1.918,-2.1357,-2.2565,0.0,0.0,-2.5517,-2.6217,-2.6472,-2.5309,-2.4679,-2.366,-2.1185,0.0,0.0,0.0,-1.5514,-1.4969,-1.5524,-1.5688,0.0,0.0,0.0,0.0,0.0,0.0,0.0,0.0,0.0,0.0,0.0,0.0,0.0,0.0,0.0,0.0,-3.2182,-3.2182,-3.2182,-3.2182,-3.2182,-3.2218,-3.2218,-3.2218,-3.2218,-3.2218,-3.2218,-3.2218,-3.2218,-3.2218,-3.2218,-3.2218,-3.2218,0.0,0.0,-3.2218,-3.2218,-3.2218,-3.2182,-3.2073,-3.189,-3.1853,-3.1743,-3.1596,0.0,0.0,0.0,0.0,0.0,0.0,0.0,0.0,-0.8168,-0.8109,-0.8094,-0.8094,-0.8094,-0.8094,0.0,0.0,0.0,0.0,0.0,0.0,0.0,0.0,0.0,0.0,0.0,0.0,0.0,0.0,0.0,0.0,0.0,0.0,0.0,0.0,0.0,0.0,0.0,0.0,0.0,0.0,0.0,0.0,0.0,0.0,0.0,0.0,0.0,0.0,0.0,0.0,0.0,0.0,-1.5541,-1.6983,0.0,0.0,-2.2635,-2.4164,-2.541,-2.5978,-2.6189,-2.5785,-2.4694,-2.3192,-2.1052,0.0,0.0,-1.6277,-1.5419,-1.4959,-1.5184,-1.5503,-1.6213,0.0,-1.8861,-2.0398,0.0,0.0,0.0,0.0,0.0,0.0,0.0,0.0,0.0,0.0,0.0,0.0,-3.2503,-3.2314,-3.2218,-3.2218,-3.2218,-3.2218,-3.2218,-3.2218,-3.2218,-3.2218,-3.2218,-3.2218,-3.2218,-3.2218,-3.2218,-3.2218,-3.2218,0.0,0.0,-3.2218,-3.2218,-3.2218,-3.2218,-3.2146,-3.2073,-3.2073,-3.2036,-3.2,0.0,0.0,0.0,0.0,0.0,0.0,-0.8167,-0.8195,-0.8168,-0.8109,-0.8094,-0.8094,-0.8094,-0.8094,-0.8094,-0.8094,0.0,0.0,0.0,0.0,0.0,0.0,0.0,0.0,0.0,0.0,0.0,0.0,0.0,0.0,0.0,0.0,0.0,0.0,0.0,0.0,0.0,0.0,0.0,0.0,0.0,0.0,0.0,0.0,0.0,0.0,0.0,0.0,0.0,0.0,0.0,0.0,0.0,0.0,0.0,0.0,-2.1393,-2.2978,-2.4707,-2.5299,-2.5386,-2.5328,-2.434,-2.2847,0.0,0.0,-1.7625,-1.6328,-1.5582,-1.5165,-1.5149,-1.5461,-1.6129,-1.7434,-1.8565,-2.0027,-2.218,0.0,0.0,0.0,0.0,0.0,0.0,0.0,0.0,0.0,0.0,0.0,-3.2988,-3.2753,-3.253,-3.2277,-3.2205,-3.2218,-3.2218,-3.2218,-3.2218,-3.2218,-3.2218,-3.2218,-3.2218,-3.2218,-3.2218,-3.2218,-3.2218,0.0,0.0,-3.2218,-3.2218,-3.2205,-3.2241,-3.2277,-3.2277,-3.2372,-3.248,-3.2525,0.0,0.0,0.0,0.0,0.0,0.0,0.0,0.0,-0.8168,-0.8109,-0.8094,-0.8094,-0.8094,-0.8094,-0.8094,-0.8094,0.0,0.0,0.0,0.0,0.0,0.0,0.0,0.0,0.0,0.0,0.0,0.0,0.0,0.0,0.0,0.0,0.0,0.0,0.0,0.0,0.0,0.0,0.0,0.0,0.0,0.0,0.0,0.0,0.0,0.0,0.0,0.0,0.0,0.0,0.0,0.0,0.0,0.0,0.0,0.0,-2.0047,-2.1011,-2.3146,-2.3867,-2.3877,-2.3355,-2.3327,-2.2676,0.0,-1.8879,-1.8093,-1.6683,-1.5964,-1.558,-1.5507,-1.5507,-1.5949,-1.729,-1.8464,-1.9783,-2.147,0.0,0.0,0.0,0.0,0.0,0.0,0.0,0.0,0.0,0.0,0.0,-3.3597,-3.3597,-3.3234,-3.2417,-3.2277,-3.2218,-3.2218,-3.2218,-3.2218,-3.2218,-3.2218,-3.2218,-3.2218,-3.2218,-3.2218,0.0,0.0,0.0,0.0,-3.2218,-3.2218,-3.2205,-3.2359,-3.2417,-3.2453,-3.2846,-3.3129,-3.329,0.0,0.0,0.0,0.0,0.0,0.0,0.0,0.0,-0.8168,-0.8109,-0.8094,-0.8094,-0.8094,-0.8094,-0.8094,-0.8094,0.0,0.0,0.0,0.0,0.0,0.0,0.0,0.0,0.0,0.0,0.0,0.0,0.0,0.0,0.0,0.0,0.0,0.0,0.0,0.0,0.0,0.0,0.0,0.0,0.0,0.0,0.0,0.0,0.0,0.0,0.0,0.0,0.0,0.0,0.0,0.0,0.0,0.0,0.0,-1.6455,-1.8417,0.0,-2.1922,-2.2768,-2.315,-2.3032,-2.2344,-2.1237,-1.9491,-1.8261,-1.7225,-1.6308,-1.5991,-1.5869,-1.584,-1.5798,-1.6189,-1.749,-1.8348,0.0,0.0,0.0,0.0,0.0,0.0,0.0,0.0,0.0,0.0,0.0,0.0,0.0,-3.4274,-3.4187,-3.3756,-3.2846,-3.2775,-3.261,-3.2322,-3.2322,-3.23,-3.2218,-3.2218,-3.2218,-3.2218,-3.2218,-3.2218,0.0,0.0,0.0,0.0,-3.23,-3.2322,-3.2359,-3.2704,-3.2881,-3.3058,-3.3409,-3.3756,-3.3998,0.0,0.0,0.0,0.0,0.0,0.0,0.0,0.0,-0.7867,-0.8063,-0.8094,-0.8094,-0.8094,-0.8094,-0.8094,-0.8094,0.0,0.0,0.0,0.0,0.0,0.0,0.0,0.0,0.0,0.0,0.0,0.0,0.0,0.0,0.0,0.0,0.0,0.0,0.0,0.0,0.0,0.0,0.0,0.0,0.0,0.0,-1.1072,0.0,0.0,0.0,0.0,0.0,0.0,0.0,0.0,0.0,0.0,0.0,0.0,0.0,-1.635,-1.8303,0.0,-2.1099,-2.1436,-2.1516,-2.0898,-1.9941,-1.863,-1.7669,-1.6892,-1.6205,-1.6067,-1.6039,-1.6039,-1.621,-1.6697,-1.7727,-1.8874,0.0,0.0,0.0,0.0,0.0,0.0,0.0,0.0,0.0,0.0,0.0,0.0,0.0,-3.5008,-3.4957,-3.4543,-3.3831,-3.3444,-3.3058,-3.2739,-3.2668,-3.2561,-3.2372,-3.2372,-3.2372,-3.2372,-3.2372,-3.2444,0.0,0.0,0.0,0.0,-3.2704,-3.2761,-3.2868,-3.3164,-3.3479,-3.3756,-3.4099,-3.4278,-3.4368,0.0,0.0,0.0,0.0,0.0,0.0,0.0,0.0,0.0,0.0,0.0,-0.8094,-0.8094,-0.8094,0.0,0.0,0.0,0.0,0.0,0.0,0.0,0.0,0.0,0.0,0.0,0.0,-0.8652,-0.9994,-0.9994,-1.0663,-1.1966,-1.1921,0.0,0.0,0.0,0.0,0.0,0.0,0.0,0.0,0.0,-0.9854,0.0,0.0,0.0,0.0,0.0,0.0,0.0,0.0,0.0,0.0,0.0,0.0,0.0,0.0,0.0,0.0,0.0,-1.8847,-1.9002,-1.9132,-1.9148,-1.8808,-1.75,-1.7162,0.0,-1.6331,-1.6153,-1.6125,-1.6171,-1.6691,-1.7334,-1.8068,0.0,0.0,0.0,0.0,0.0,0.0,0.0,0.0,0.0,0.0,0.0,0.0,0.0,0.0,-3.5752,-3.5752,-3.5591,-3.5267,-3.4269,-3.3618,-3.3374,-3.3164,-3.2952,-3.2775,-3.2775,-3.2775,-3.2761,-3.2761,-3.2868,0.0,0.0,0.0,0.0,-3.3339,-3.343,-3.3575,-3.3791,-3.4133,-3.4491,-3.4762,-3.4708,-3.4416,0.0,0.0,0.0,0.0,0.0,0.0,0.0,0.0,0.0,0.0,0.0,0.0,0.0,0.0,0.0,0.0,0.0,0.0,0.0,0.0,0.0,0.0,0.0,0.0,0.0,-0.7926,-0.8575,-0.9926,-0.9926,-1.0842,-1.2572,-1.2051,-1.1726,0.0,0.0,0.0,0.0,0.0,0.0,0.0,-0.9062,-0.9445,0.0,0.0,0.0,0.0,-1.0221,-1.0699,0.0,0.0,0.0,0.0,0.0,0.0,0.0,0.0,-1.3421,-1.3929,-1.5042,0.0,-1.7654,-1.77,-1.7684,-1.7607,0.0,-1.6793,-1.6379,-1.6225,0.0,-1.6334,-1.6856,-1.7071,-1.7577,0.0,0.0,0.0,0.0,0.0,0.0,0.0,0.0,0.0,0.0,0.0,0.0,0.0,0.0,0.0,-3.607,-3.607,-3.6006,-3.5799,-3.5429,-3.4776,-3.3914,-3.3722,-3.3563,-3.3374,-3.3374,-3.343,-3.3555,-3.3555,-3.3555,0.0,0.0,0.0,-3.3693,-3.3831,-3.4016,-3.4221,-3.4505,-3.4872,-3.5145,-3.4861,-3.486,-3.4866,0.0,0.0,0.0,0.0,0.0,0.0,0.0,0.0,0.0,0.0,0.0,0.0,0.0,0.0,0.0,0.0,0.0,0.0,0.0,0.0,0.0,0.0,0.0,0.0,0.0,0.0,0.0,-0.989,-0.989,-1.0887,0.0,0.0,0.0,0.0,0.0,0.0,0.0,0.0,0.0,0.0,-0.8432,0.0,0.0,0.0,0.0,0.0,-0.9582,-1.0036,0.0,-1.0997,-1.137,-1.1743,0.0,0.0,0.0,0.0,-1.2739,-1.2893,-1.3559,-1.4978,-1.6271,-1.6271,-1.6502,-1.6732,-1.6732,0.0,0.0,0.0,0.0,-1.6763,-1.7131,0.0,0.0,0.0,0.0,0.0,0.0,0.0,0.0,0.0,0.0,0.0,0.0,0.0,0.0,0.0,0.0,0.0,-3.5891,-3.5891,-3.5707,-3.5324,-3.5109,-3.4865,-3.461,-3.4419,-3.4201,-3.4051,-3.4051,-3.4138,-3.4293,-3.4293,-3.4375,0.0,0.0,0.0,-3.4528,-3.4629,-3.4633,-3.4546,-3.4723,-3.4833,-3.4817,-3.4561,-3.4425,-3.4251,0.0,0.0,0.0,0.0,0.0,0.0,0.0,0.0,0.0,0.0,0.0,0.0,0.0,0.0,0.0,0.0,0.0,0.0,0.0,0.0,0.0,0.0,0.0,0.0,0.0,0.0,0.0,0.0,0.0,0.0,0.0,0.0,-1.1999,0.0,0.0,0.0,0.0,0.0,0.0,0.0,0.0,0.0,0.0,0.0,0.0,0.0,0.0,0.0,0.0,-1.0718,-1.1026,-1.1226,-1.1969,0.0,0.0,0.0,0.0,0.0,-1.3016,-1.4098,-1.5101,-1.5301,-1.587,-1.6393,-1.6471,0.0,0.0,0.0,0.0,0.0,0.0,0.0,0.0,0.0,0.0,0.0,0.0,0.0,0.0,0.0,0.0,0.0,0.0,0.0,0.0,0.0,0.0,-3.5367,-3.5367,-3.5367,-3.5106,-3.452,-3.4327,-3.4501,-3.5051,-3.491,-3.4791,-3.4629,-3.4718,-3.4876,-3.5041,-3.4952,-3.5005,-3.515,0.0,0.0,-3.5164,-3.5164,-3.4945,-3.4604,-3.4604,-3.4486,-3.4223,-3.4116,-3.379,-3.3398,0.0,0.0,0.0,0.0,0.0,0.0,0.0,0.0,0.0,0.0,0.0,0.0,0.0,0.0,0.0,0.0,0.0,0.0,0.0,0.0,0.0,0.0,0.0,0.0,0.0,0.0,0.0,0.0,0.0,0.0,-1.363,-1.2388,-1.1281,-1.0333,0.0,0.0,0.0,0.0,0.0,0.0,0.0,0.0,0.0,0.0,0.0,0.0,0.0,0.0,0.0,-1.0035,-1.0626,-1.1226,-1.1969,0.0,0.0,0.0,0.0,0.0,-1.3016,-1.3759,-1.4637,-1.5762,-1.6548,-1.7208,-1.7761,0.0,0.0,0.0,0.0,0.0,0.0,0.0,0.0,0.0,0.0,0.0,0.0,0.0,0.0,0.0,0.0,0.0,0.0,0.0,0.0,0.0,0.0,0.0,-3.4659,-3.4659,-3.4613,-3.4505,-3.4475,-3.4405,-3.4349,-3.4603,-3.4733,-3.4686,-3.5257,-3.5623,-3.5816,-3.5256,-3.4999,-3.5,0.0,-3.4106,-3.4137,-3.4137,-3.4182,-3.4286,-3.4286,-3.436,-3.4398,-3.3754,-3.3462,-3.3321,0.0,0.0,0.0,0.0,0.0,0.0,0.0,0.0,0.0,0.0,0.0,0.0,0.0,0.0,0.0,0.0,0.0,0.0,0.0,0.0,0.0,0.0,0.0,0.0,0.0,0.0,0.0,0.0,0.0,-1.1645,-1.3241,-1.2254,-1.1117,-0.9875,0.0,0.0,0.0,0.0,0.0,0.0,0.0,0.0,0.0,0.0,0.0,0.0,0.0,0.0,0.0,0.0,-1.0004,-1.0672,-1.1389,0.0,0.0,0.0,0.0,0.0,-1.3452,-1.3975,-1.4701,-1.6763,-1.7239,-1.7377,-1.8053,0.0,0.0,0.0,0.0,0.0,0.0,0.0,0.0,0.0,0.0,0.0,0.0,0.0,0.0,0.0,0.0,0.0,0.0,0.0,0.0,0.0,0.0,0.0,-3.3906,-3.3906,-3.375,-3.3396,-3.338,-3.3308,-3.3223,-3.3736,-3.4136,-3.441,-3.4744,-3.5003,-3.5171,-3.4865,-3.4712,-3.4697,0.0,-3.4223,-3.4223,-3.4223,-3.4038,-3.3759,-3.3759,-3.3602,-3.3306,-3.2982,-3.2859,-3.2813,0.0,0.0,0.0,0.0,0.0,0.0,0.0,0.0,0.0,0.0,0.0,0.0,0.0,0.0,0.0,0.0,0.0,0.0,0.0,0.0,0.0,0.0,0.0,0.0,0.0,0.0,-0.9458,-1.0114,-1.0733,-1.1565,-1.2549,-1.204,-1.1127,0.0,0.0,0.0,0.0,0.0,-0.7956,-0.8007,0.0,0.0,0.0,0.0,0.0,0.0,0.0,0.0,0.0,0.0,0.0,0.0,0.0,0.0,0.0,-1.2138,-1.22,-1.2462,-1.3636,-1.4083,-1.4821,-1.7347,-1.77,-1.77,-1.8699,0.0,0.0,0.0,0.0,0.0,0.0,0.0,0.0,0.0,0.0,0.0,0.0,0.0,0.0,0.0,0.0,0.0,0.0,0.0,0.0,0.0,0.0,0.0,-3.3167,-3.3167,-3.2921,-3.2413,-3.2398,-3.2398,-3.2398,-3.2906,-3.3449,-3.4007,-3.4191,-3.4342,-3.4489,-3.4335,-3.4243,-3.4243,-3.4089,-3.4012,-3.4012,-3.4012,-3.3688,-3.3167,-3.3167,-3.2844,-3.2398,-3.2398,-3.2398,-3.2398,0.0,0.0,0.0,0.0,0.0,0.0,0.0,0.0,0.0,0.0,0.0,0.0,0.0,0.0,0.0,0.0,0.0,0.0,0.0,0.0,0.0,0.0,0.0,0.0,0.0,-0.9488,-1.0129,-1.0738,-1.139,-1.1775,-1.1865,-1.182,-1.1122,-0.9875,0.0,0.0,0.0,0.0,0.0,-0.8007,-0.8071,0.0,0.0,0.0,0.0,0.0,0.0,0.0,0.0,0.0,0.0,0.0,0.0,0.0,-1.1303,-1.2,-1.22,-1.2354,-1.3078,-1.3729,-1.4686,-1.6763,-1.77,0.0,-2.0624,-2.1119,0.0,-2.1966,0.0,0.0,0.0,0.0,0.0,0.0,0.0,0.0,0.0,0.0,0.0,0.0,0.0,0.0,0.0,0.0,0.0,0.0,0.0,0.0,-3.2459,-3.2459,-3.2444,-3.2398,-3.2398,-3.2398,-3.2398,-3.2444,-3.2798,-3.3462,-3.4152,-3.4505,-3.4474,-3.3783,-3.3475,-3.3444,-3.2813,-3.2552,-3.2552,-3.2552,-3.2505,-3.2459,-3.2459,-3.2428,-3.2398,-3.2398,-3.2398,-3.2398,0.0,0.0,0.0,0.0,0.0,0.0,0.0,0.0,0.0,0.0,0.0,0.0,0.0,0.0,0.0,0.0,0.0,0.0,0.0,0.0,0.0,0.0,0.0,-0.8222,-0.889,-0.9563,-1.0009,-1.0239,-1.0867,-1.1181,-1.1166,-1.0363,0.0,0.0,0.0,0.0,0.0,0.0,0.0,-0.8061,-0.8097,-0.8104,0.0,0.0,0.0,0.0,0.0,0.0,0.0,0.0,-0.8749,-0.9265,-1.0189,-1.0764,-1.1241,-1.1984,-1.22,-1.2431,-1.3529,-1.4006,-1.4778,-1.7224,-1.8361,0.0,0.0,-2.1951,-2.2732,-2.3409,0.0,0.0,0.0,0.0,0.0,0.0,0.0,0.0,0.0,0.0,0.0,0.0,0.0,0.0,0.0,0.0,0.0,0.0,0.0,0.0,0.0,-3.2398,-3.2398,-3.2398,-3.2398,-3.2398,-3.2398,-3.2398,-3.2521,-3.2782,-3.3044,-3.3183,-3.3167,-3.2906,-3.2782,-3.2752,-3.2505,-3.2398,-3.2398,-3.2398,-3.2398,-3.2398,-3.2398,-3.2398,-3.2398,-3.2398,-3.2398,-3.2398,0.0,0.0,0.0,0.0,0.0,0.0,0.0,0.0,0.0,0.0,0.0,0.0,0.0,0.0,0.0,0.0,0.0,0.0,0.0,0.0,0.0,0.0,0.0,-0.8109,-0.8567,-0.9233,-0.9689,-0.989,-1.0314,-1.0518,-1.0488,0.0,0.0,0.0,0.0,0.0,0.0,0.0,0.0,0.0,-0.8094,-0.8094,0.0,0.0,0.0,0.0,0.0,0.0,0.0,0.0,-0.8402,-0.8903,-0.9573,-1.0242,-1.0934,-1.1635,-1.2015,-1.2446,-1.3575,-1.419,-1.5055,-1.7316,0.0,0.0,-2.1304,-2.264,-2.381,-2.4487,0.0,0.0,0.0,0.0,0.0,0.0,0.0,0.0,0.0,0.0,0.0,0.0,0.0,0.0,0.0,0.0,0.0,0.0,0.0,0.0,0.0,-3.2074,-3.1982,-3.1782,-3.1767,-3.1767,-3.1767,-3.1767,-3.1767,-3.1767,-3.1982,-3.2198,-3.2398,-3.2398,-3.2398,-3.2398,-3.2398,-3.2398,-3.2398,-3.2398,-3.2398,-3.2398,-3.2398,-3.2398,-3.2398,-3.2398,-3.2398,-3.2398,0.0,0.0,0.0,0.0,0.0,0.0,0.0,0.0,0.0,0.0,0.0,0.0,0.0,0.0,0.0,0.0,0.0,0.0,0.0,0.0,0.0,0.0,0.0,-0.7899,-0.7899,-0.8552,-0.9227,-0.989,-0.989,-0.9893,-0.9884,-0.9213,0.0,0.0,0.0,0.0,0.0,0.0,0.0,0.0,-0.8094,-0.8094,-0.8094,0.0,0.0,0.0,0.0,0.0,0.0,0.0,-0.8094,-0.8217,-0.8888,-0.9558,-1.0226,-1.0903,-1.1635,-1.2354,-1.3047,-1.419,-1.5531,0.0,0.0,0.0,-2.2012,-2.3348,-2.4502,0.0,0.0,0.0,0.0,0.0,0.0,0.0,0.0,0.0,0.0,0.0,0.0,0.0,0.0,0.0,0.0,0.0,0.0,0.0,0.0,0.0,0.0,-3.1393,-3.1089,-3.0417,-3.0402,-3.0402,-3.0402,-3.0402,-3.0402,-3.0402,-3.1074,-3.1747,-3.2382,-3.2398,-3.2398,-3.2398,-3.2398,-3.2398,-3.2398,-3.2398,-3.2398,-3.2398,-3.2398,-3.2398,-3.2398,-3.2398,-3.2398,-3.2398,0.0,0.0,0.0,0.0,0.0,0.0,0.0,0.0,0.0,0.0,0.0,0.0,0.0,0.0,0.0,0.0,0.0,0.0,0.0,0.0,0.0,0.0,0.0,0.0,0.0,0.0,-0.8763,-0.989,-0.9428,-0.9205,0.0,0.0,0.0,-0.8353,0.0,0.0,0.0,0.0,0.0,0.0,-0.8094,-0.8094,-0.8094,0.0,0.0,0.0,0.0,0.0,0.0,0.0,0.0,0.0,-0.8888,-0.9558,-1.0226,-1.0903,-1.1959,-1.3155,-1.4298,-1.5239,0.0,0.0,0.0,0.0,0.0,-2.4379,0.0,0.0,0.0,0.0,0.0,0.0,0.0,0.0,0.0,0.0,0.0,0.0,0.0,0.0,0.0,0.0,0.0,0.0,0.0,0.0,0.0,0.0,0.0,-3.0705,-3.0628,-3.0402,-3.0402,-3.0402,-3.0402,-3.0402,-3.0402,-3.0402,-3.0586,-3.1043,-3.1705,-3.2167,-3.2398,-3.2398,-3.2398,-3.2398,-3.2398,-3.2398,-3.2398,-3.2398,-3.2398,-3.2398,-3.2398,-3.2398,-3.2398,-3.2398,0.0,0.0,0.0,0.0,0.0,0.0,0.0,0.0,0.0,0.0,0.0,-0.4967,0.0,0.0,0.0,0.0,0.0,0.0,0.0,0.0,0.0,0.0,0.0,0.0,0.0,-0.7976,-0.8379,0.0,0.0,0.0,0.0,0.0,0.0,-0.8142,0.0,-0.8116,0.0,0.0,0.0,0.0,-0.8094,-0.8094,-0.8094,0.0,0.0,0.0,0.0,0.0,0.0,0.0,0.0,0.0,-0.858,-0.9342,-1.018,-1.058,-1.1897,-1.3482,-1.4839,0.0,0.0,0.0,0.0,0.0,0.0,0.0,0.0,0.0,0.0,0.0,0.0,0.0,0.0,0.0,0.0,0.0,0.0,0.0,0.0,0.0,0.0,0.0,0.0,0.0,0.0,0.0,0.0,0.0,0.0,-3.0002,-2.9879,-2.9602,-2.9602,-2.9602,-2.9602,-2.9602,-2.9602,-2.9602,-2.9879,-3.0202,-3.0628,-3.1305,-3.1613,-3.1628,-3.189,-3.2136,-3.2398,-3.2398,-3.2398,-3.2398,-3.2398,-3.2398,-3.2398,-3.2398,-3.2398,-3.2398,0.0,0.0,-0.4373,-0.431,0.0,0.0,0.0,0.0,0.0,0.0,-0.4094,-0.4386,0.0,0.0,0.0,-0.704,0.0,0.0,0.0,0.0,0.0,0.0,0.0,0.0,0.0,0.0,0.0,0.0,0.0,0.0,0.0,0.0,-0.8245,-0.8297,0.0,-0.8267,0.0,0.0,0.0,0.0,-0.8094,-0.8094,-0.8094,-0.8094,0.0,0.0,0.0,0.0,0.0,0.0,0.0,0.0,-0.8094,-0.898,-1.0019,-1.0072,-1.1574,-1.3509,0.0,0.0,0.0,0.0,0.0,0.0,0.0,0.0,0.0,0.0,0.0,0.0,0.0,0.0,0.0,0.0,0.0,0.0,0.0,0.0,0.0,0.0,0.0,0.0,0.0,0.0,0.0,0.0,0.0,0.0,0.0,-2.9294,-2.9042,-2.8427,-2.8411,-2.8411,-2.8411,-2.8411,-2.8411,-2.8411,-2.9027,-2.9294,-2.9325,-3.0063,-3.0402,-3.0432,-3.1043,-3.1643,-3.2213,-3.2213,-3.2213,-3.2213,-3.2213,-3.2213,-3.2213,-3.2213,-3.2213,-3.2228,0.0,0.0,-0.4372,-0.4308,0.0,0.0,0.0,0.0,-0.4094,-0.4094,-0.4094,-0.4552,-0.5757,-0.6018,0.0,-0.775,-0.8003,0.0,0.0,0.0,0.0,0.0,0.0,0.0,0.0,0.0,0.0,0.0,0.0,0.0,0.0,0.0,0.0,-0.9061,0.0,-0.9022,0.0,0.0,0.0,-0.8094,-0.8094,-0.8094,-0.8094,-0.8094,-0.8094,0.0,0.0,0.0,0.0,0.0,0.0,0.0,-0.8094,-0.8657,-0.9419,-0.9942,-1.1574,-1.3605,0.0,0.0,0.0,0.0,0.0,0.0,0.0,0.0,0.0,0.0,0.0,0.0,0.0,0.0,0.0,0.0,0.0,0.0,0.0,0.0,0.0,0.0,0.0,0.0,0.0,0.0,0.0,0.0,0.0,0.0,-2.8658,-2.8627,-2.855,-2.8411,-2.8411,-2.8411,-2.8411,-2.8411,-2.8411,0.0,-2.855,-2.8627,-2.8658,-2.9848,-3.0402,-3.0402,-3.054,-3.0694,-3.0817,-3.0817,-3.0817,-3.0817,-3.0817,-3.0817,-3.0817,-3.0817,-3.0817,-3.0894,0.0,0.0,0.0,0.0,0.0,0.0,0.0,0.0,-0.4094,-0.4094,-0.4386,-0.4844,-0.5547,-0.6197,0.0,0.0,-0.7938,-0.8145,0.0,0.0,0.0,0.0,0.0,0.0,0.0,0.0,0.0,0.0,0.0,0.0,0.0,0.0,0.0,-0.9898,0.0,-0.9338,0.0,0.0,-0.8209,-0.8145,-0.8145,-0.8145,-0.8145,-0.8145,-0.8152,-0.815,-0.815,0.0,0.0,0.0,0.0,0.0,0.0,0.0,-0.9212,-0.9559,-1.1131,-1.3093,0.0,0.0,0.0,0.0,0.0,0.0,0.0,0.0,0.0,0.0,0.0,0.0,0.0,0.0,0.0,0.0,0.0,0.0,0.0,0.0,0.0,0.0,0.0,0.0,0.0,0.0,0.0,0.0,0.0,-2.8781,-2.8427,-2.8411,-2.8411,-2.8411,-2.8411,-2.8411,-2.8411,-2.8411,-2.8411,-2.8411,-2.8411,-2.8411,-2.8427,-2.911,-2.9602,-2.991,-2.991,-3.0094,-3.0402,-3.0402,-3.0402,-3.0402,-3.0402,-3.0402,-3.0402,-3.0402,-3.0402,-3.0448,0.0,0.0,0.0,0.0,0.0,0.0,0.0,0.0,0.0,-0.4279,-0.4859,-0.5316,-0.5428,-0.6429,-0.715,0.0,0.0,0.0,-0.8231,0.0,0.0,0.0,0.0,0.0,0.0,0.0,0.0,0.0,0.0,0.0,0.0,0.0,0.0,-1.0792,0.0,0.0,0.0,0.0,-0.827,-0.8204,-0.8204,-0.8197,-0.8197,-0.8197,-0.8202,-0.8198,-0.8198,-0.8198,-0.8198,-0.8198,0.0,0.0,0.0,0.0,-0.9057,-0.9165,-1.0455,-1.219,0.0,0.0,0.0,0.0,0.0,0.0,0.0,0.0,0.0,0.0,0.0,0.0,0.0,0.0,0.0,0.0,0.0,0.0,0.0,0.0,0.0,0.0,0.0,0.0,0.0,0.0,0.0,0.0,0.0,-2.8227,-2.8251,-2.8359,-2.8398,-2.8275,-2.8275,-2.8251,-2.8251,-2.8227,-2.8288,-2.8411,-2.8411,-2.8411,-2.8411,-2.8411,-2.8704,-2.9243,-2.9243,-2.9525,-3.0048,-3.0048,-3.0048,-3.0048,-3.0048,-3.0048,-3.0048,-3.0048,-3.0048,-3.0063,0.0,0.0,0.0,0.0,0.0,0.0,0.0,0.0,0.0,0.0,-0.5547,-0.6182,-0.6774,-0.6996,-0.7357,-0.8004,-0.8144,-0.8245,0.0,0.0,0.0,0.0,0.0,0.0,0.0,0.0,0.0,0.0,0.0,0.0,0.0,0.0,0.0,-1.1687,0.0,0.0,0.0,0.0,-0.8316,-0.8207,-0.8207,-0.8202,-0.8197,-0.8193,-0.8207,-0.8198,-0.8198,-0.8198,-0.8198,-0.8198,-0.8198,0.0,0.0,0.0,0.0,0.0,-0.9809,-1.0902,0.0,0.0,0.0,0.0,0.0,0.0,0.0,0.0,0.0,0.0,0.0,0.0,0.0,0.0,0.0,0.0,0.0,0.0,0.0,0.0,0.0,0.0,0.0,0.0,0.0,0.0,0.0,0.0,-2.7534,-2.7566,-2.7705,-2.8263,-2.8318,-2.7805,-2.7736,-2.7667,-2.762,-2.7566,-2.7827,-2.8411,-2.8411,-2.8411,-2.8411,-2.8411,-2.8458,-2.8535,-2.8535,-2.8596,-2.8673,-2.8673,-2.8673,-2.8673,-2.8673,-2.8673,-2.8673,-2.8673,-2.8673,-2.8765,0.0,0.0,0.0,0.0,0.0,0.0,0.0,0.0,0.0,0.0,0.0,-0.6768,-0.7073,-0.7465,-0.7863,-0.8234,-0.8299,0.0,0.0,0.0,0.0,0.0,0.0,0.0,0.0,0.0,0.0,0.0,0.0,0.0,0.0,-1.1916,-1.2414,0.0,0.0,0.0,0.0,0.0,-0.8813,-0.8355,-0.8717,-0.8898,-0.8977,-0.9391,-0.9548,-0.9499,-0.9116,-0.8931,-0.8819,-0.8433,-0.8278,-0.8256,-0.8256,0.0,0.0,0.0,0.0,0.0,0.0,0.0,0.0,0.0,0.0,0.0,0.0,0.0,0.0,0.0,0.0,0.0,0.0,0.0,0.0,0.0,0.0,0.0,0.0,0.0,0.0,0.0,0.0,0.0,0.0,0.0,0.0,0.0,-2.7008,-2.7031,-2.7083,-2.7378,-2.7416,-2.715,-2.7105,-2.7083,-2.7038,-2.7031,-2.7163,-2.7457,-2.7829,-2.8,-2.8015,-2.8442,-2.8556,-2.8411,-2.8411,-2.8411,-2.8411,-2.8411,-2.8411,-2.8411,-2.8411,-2.8411,-2.8411,-2.8411,-2.8411,-2.8442,0.0,0.0,0.0,0.0,0.0,0.0,0.0,0.0,0.0,0.0,0.0,-0.7391,-0.7404,0.0,0.0,0.0,-0.8396,0.0,0.0,0.0,0.0,0.0,0.0,0.0,0.0,0.0,0.0,0.0,0.0,0.0,-1.1137,-1.2271,-1.2975,0.0,-1.2657,0.0,0.0,0.0,0.0,-0.9046,-0.9748,-1.0061,-1.0173,-1.0946,-1.1213,-1.1116,-1.0433,0.0,0.0,0.0,0.0,0.0,0.0,0.0,0.0,0.0,0.0,0.0,0.0,0.0,0.0,0.0,0.0,0.0,0.0,0.0,0.0,0.0,0.0,0.0,0.0,0.0,0.0,0.0,0.0,0.0,0.0,0.0,0.0,0.0,0.0,0.0,0.0,0.0,0.0,0.0,-2.6442,-2.6449,-2.6476,-2.6664,-2.6679,-2.6535,-2.6514,-2.6492,-2.6476,-2.662,-2.6691,-2.6707,-2.7212,-2.7446,-2.7462,-2.8202,-2.8396,-2.8245,-2.8367,-2.8444,-2.8444,-2.8396,-2.8411,-2.8411,-2.8411,-2.8411,-2.8411,-2.8411,-2.8411,-2.8411,0.0,0.0,0.0,0.0,0.0,0.0,0.0,0.0,0.0,0.0,0.0,-0.8165,-0.8234,-0.8272,-0.8321,-0.839,-0.8448,0.0,0.0,0.0,0.0,0.0,0.0,0.0,0.0,0.0,0.0,0.0,0.0,0.0,-1.1096,-1.1188,-1.2,-1.3379,-1.327,-1.2799,-1.1972,0.0,0.0,-1.066,-1.1442,-1.172,-1.1777,-1.2643,-1.2932,-1.2781,0.0,0.0,0.0,0.0,0.0,0.0,0.0,0.0,0.0,0.0,0.0,0.0,0.0,0.0,0.0,0.0,0.0,0.0,0.0,0.0,0.0,0.0,0.0,0.0,0.0,0.0,0.0,0.0,0.0,0.0,0.0,0.0,0.0,0.0,0.0,0.0,0.0,0.0,0.0,0.0,-2.5747,-2.5795,-2.5837,-2.6496,-2.6639,-2.6067,-2.5968,-2.5905,-2.5837,-2.6414,-2.6691,-2.6691,-2.6723,-2.6738,-2.6769,-2.7446,-2.7742,-2.7766,-2.8341,-2.8589,-2.8573,-2.8444,-2.8411,-2.8411,-2.8411,-2.8411,-2.8411,-2.8411,-2.8411,-2.8411,0.0,0.0,0.0,0.0,0.0,0.0,0.0,0.0,0.0,0.0,0.0,0.0,0.0,-0.8406,-0.8464,-0.853,-0.8634,0.0,0.0,0.0,0.0,0.0,0.0,0.0,0.0,0.0,0.0,0.0,0.0,-0.9878,-1.043,-1.1879,-1.2624,-1.2718,-1.3159,-1.2916,-1.2153,-1.1861,0.0,0.0,-1.2215,-1.3031,-1.3616,-1.4905,-1.5661,-1.5861,0.0,0.0,0.0,0.0,0.0,0.0,0.0,-0.9138,-0.9028,-0.8513,0.0,0.0,0.0,0.0,0.0,0.0,0.0,0.0,0.0,0.0,0.0,0.0,0.0,0.0,0.0,0.0,0.0,0.0,0.0,0.0,0.0,0.0,0.0,0.0,0.0,0.0,0.0,0.0,0.0,0.0,0.0,-2.5264,-2.5289,-2.5541,-2.5577,-2.5365,-2.5325,-2.5305,-2.5289,-2.5496,-2.5601,-2.5601,-2.6057,-2.6241,-2.6256,-2.7001,-2.7315,-2.7309,-2.7456,-2.7968,-2.8708,-2.8676,-2.8652,-2.8652,-2.8565,-2.8541,-2.8517,-2.842,-2.8411,-2.8411,0.0,0.0,0.0,-0.8852,0.0,-0.8672,-0.8606,-0.8544,-0.8504,-0.8505,0.0,0.0,0.0,0.0,-0.8585,-0.8671,-0.8765,-0.8857,-0.8897,0.0,0.0,0.0,0.0,0.0,0.0,0.0,0.0,0.0,0.0,0.0,0.0,-1.1579,-1.2164,-1.1943,-1.2437,-1.2651,0.0,0.0,0.0,-1.2228,0.0,0.0,-1.5721,0.0,-1.794,0.0,0.0,0.0,0.0,0.0,0.0,0.0,0.0,-1.0049,-0.947,-0.8672,-0.8765,0.0,0.0,0.0,0.0,0.0,0.0,0.0,0.0,0.0,0.0,0.0,0.0,0.0,0.0,0.0,0.0,0.0,0.0,0.0,0.0,0.0,0.0,0.0,0.0,0.0,0.0,0.0,0.0,0.0,0.0,0.0,-2.5005,-2.4764,-2.4748,-2.4985,-2.5005,-2.5005,-2.5005,-2.5005,-2.5005,-2.5021,-2.546,-2.5661,-2.5677,-2.6461,-2.6794,-2.6794,-2.7015,-2.7523,-2.82,-2.8365,-2.8482,-2.8529,-2.8638,-2.8668,-2.8692,-2.8565,-2.8532,-2.8532,-0.9104,-0.9055,-0.8984,-0.8913,-0.8897,-0.888,-0.881,-0.8748,-0.8708,-0.8711,0.0,0.0,0.0,0.0,0.0,-0.88,-0.8863,-0.8903,-0.8897,-0.8897,0.0,0.0,0.0,0.0,0.0,0.0,0.0,0.0,0.0,0.0,0.0,0.0,-1.0484,-1.1172,-1.1206,-1.1999,-1.3344,0.0,-1.3803,-1.4566,0.0,-1.6605,-1.8024,0.0,0.0,0.0,-1.9438,-1.9031,0.0,0.0,0.0,0.0,0.0,-1.0986,-0.9576,-0.8798,-0.8622,0.0,0.0,0.0,0.0,0.0,0.0,0.0,0.0,0.0,0.0,0.0,0.0,0.0,0.0,0.0,0.0,0.0,0.0,0.0,0.0,0.0,0.0,0.0,0.0,0.0,0.0,0.0,0.0,0.0,-2.429,-2.4191,-2.4891,-2.4255,-2.4207,-2.4926,-2.4938,-2.4938,-2.4938,-2.4974,-2.4974,-2.4974,-2.5005,-2.5005,-2.5037,-2.5834,-2.6193,-2.6225,-2.708,-2.7269,-2.7014,-2.7503,-2.783,-2.8056,-2.8568,-2.8795,-2.8857,-2.8795,-2.8779,-2.8763,-0.9104,-0.9055,-0.9001,-0.8979,-0.8975,-0.897,-0.8942,-0.8891,-0.8852,0.0,0.0,0.0,-0.8834,-0.884,-0.8863,-0.8931,-0.892,-0.8903,-0.8897,-0.8897,-0.8897,-0.8897,-0.8897,0.0,0.0,0.0,0.0,0.0,0.0,0.0,0.0,0.0,0.0,0.0,-1.1091,-1.1562,-1.1995,-1.247,0.0,0.0,-1.5444,-1.7004,0.0,0.0,0.0,0.0,0.0,-2.0743,-2.0344,0.0,-1.7556,-1.6416,0.0,0.0,0.0,-1.0324,-1.0251,0.0,-1.0577,0.0,0.0,0.0,0.0,0.0,0.0,0.0,0.0,0.0,0.0,0.0,0.0,0.0,0.0,0.0,0.0,0.0,0.0,0.0,0.0,0.0,0.0,0.0,0.0,0.0,0.0,0.0,-2.344,-2.3338,-2.3528,-2.3296,-2.3278,-2.3467,-2.3467,-2.3467,-2.3467,-2.4065,-2.4354,-2.4354,-2.4981,-2.5298,-2.5298,-2.5606,-2.5782,-2.584,-2.6091,-2.6227,-2.6344,-2.7306,-2.7737,-2.7795,-2.7838,-2.78,-2.7767,-2.8106,-2.8175,-2.82,-0.9104,-0.9066,-0.905,-0.905,-0.904,-0.9036,-0.9036,-0.898,-0.8936,0.0,0.0,0.0,-0.8936,-0.8947,-0.8964,-0.8987,-0.8964,-0.8942,-0.8942,-0.8942,-0.8942,-0.8942,-0.8942,-0.8942,0.0,0.0,0.0,0.0,0.0,0.0,0.0,0.0,0.0,0.0,-1.0238,-1.0607,-1.0946,-1.1668,0.0,0.0,-1.5388,0.0,0.0,-2.009,-2.1317,0.0,0.0,0.0,-2.166,-2.0489,-1.9138,0.0,0.0,-1.3472,-1.2427,-1.2052,-1.1951,0.0,0.0,0.0,0.0,0.0,0.0,0.0,0.0,0.0,0.0,0.0,0.0,0.0,0.0,0.0,0.0,0.0,0.0,0.0,0.0,0.0,0.0,0.0,0.0,0.0,0.0,-2.3376,-2.3339,-2.3304,-2.2877,-2.2616,-2.2616,-2.2849,-2.297,-2.2936,-2.2936,-2.2934,-2.2898,-2.3401,-2.3663,-2.3697,-2.4588,-2.504,-2.5077,-2.5552,-2.5793,-2.5886,-2.5959,-2.6101,-2.6309,-2.7007,-2.7399,-2.7575,-2.7636,-2.7672,-2.7705,-2.7849,-2.7897,-2.7874,0.0,-0.9104,-0.9104,-0.9104,-0.9104,-0.9104,-0.9104,-0.9055,-0.9046,0.0,-0.9218,-0.927,-0.927,-0.9179,-0.9122,-0.9122,-0.9054,-0.8997,-0.8997,-0.8997,-0.8997,-0.8997,-0.8997,-0.8997,-0.8997,0.0,0.0,0.0,0.0,0.0,0.0,0.0,0.0,-0.9104,-0.9104,-0.9467,-1.0135,-1.1021,0.0,-1.3639,-1.5339,-1.738,0.0,0.0,-2.144,0.0,-2.2699,-2.2659,-2.2502,-2.1756,-2.0065,0.0,0.0,-1.552,-1.4725,-1.399,-1.3769,0.0,-1.3751,-1.3751,0.0,0.0,0.0,0.0,-1.467,-1.5212,0.0,0.0,0.0,0.0,0.0,0.0,0.0,0.0,0.0,0.0,0.0,0.0,0.0,0.0,0.0,0.0,-2.3356,-2.3288,-2.3219,-2.315,-2.2469,-2.2049,-2.2016,-2.2591,-2.2876,-2.2807,-2.2823,-2.277,-2.2715,-2.2867,-2.2986,-2.3072,-2.3994,-2.4494,-2.4582,-2.5531,-2.5987,-2.6076,-2.635,-2.6538,-2.6657,-2.6725,-2.6977,-2.7363,-2.7657,-2.7849,-2.7982,-2.7807,-2.772,-2.7676,-0.9104,-0.9104,-0.9104,-0.9104,-0.9104,-0.9104,-0.9104,-0.9099,-0.9295,-0.9881,-1.0537,-1.0933,-1.0933,-1.0357,-0.9961,-0.9961,-0.9378,-0.8997,-0.8997,-0.8997,-0.8997,-0.8997,-0.8997,-0.8997,-0.8997,-0.8997,0.0,0.0,0.0,0.0,0.0,0.0,0.0,-0.9104,-0.9104,-0.9173,-0.9415,-1.082,0.0,-1.2949,-1.5701,0.0,-2.0274,-2.1061,-2.1923,-2.2699,-2.2699,-2.2685,-2.2569,0.0,-2.0847,-1.9768,0.0,0.0,0.0,-1.6282,0.0,-1.5341,-1.5352,-1.5344,-1.5353,-1.5424,0.0,0.0,0.0,-1.613,0.0,0.0,0.0,0.0,0.0,0.0,0.0,0.0,0.0,0.0,0.0,0.0,0.0,0.0,0.0,0.0,-2.2452,-2.233,-2.2225,-2.209,-2.1852,-2.1661,-2.1535,-2.1664,-2.173,-2.1697,-2.1666,-2.1633,-2.1617,-2.228,-2.2638,-2.272,-2.3704,-2.4215,-2.4314,-2.5246,-2.5713,-2.5829,-2.6505,-2.6842,-2.6925,-2.6942,-2.691,-2.6843,-2.6909,-2.6854,-2.6797,-2.7232,-2.7297,-2.7191,-0.9104,-0.9104,-0.9104,-0.9104,-0.9104,-0.9225,-0.9582,-0.9651,-0.9927,-1.0693,-1.1471,-1.1799,-1.1443,-1.1371,-1.1203,-1.0824,-1.0432,-1.0036,-0.9618,-0.9601,-0.9429,-0.9068,-0.9051,-0.9051,-0.9051,-0.9051,-0.9056,0.0,0.0,0.0,0.0,-0.9104,0.0,0.0,-0.9104,-0.9311,-0.972,0.0,-1.2272,-1.382,-1.5684,0.0,-1.9941,-2.0716,-2.1716,-2.2699,-2.2699,-2.2699,-2.2647,-2.2268,-2.163,0.0,0.0,-1.9614,-1.8702,0.0,-1.8377,-1.8085,0.0,0.0,-1.748,-1.7139,0.0,0.0,0.0,0.0,0.0,0.0,0.0,0.0,0.0,0.0,0.0,0.0,0.0,0.0,0.0,0.0,0.0,0.0,0.0,0.0,-2.2265,-2.213,-2.1984,-2.1811,-2.1768,-2.1723,-2.1661,-2.1661,-2.1615,-2.1601,-2.1541,-2.1464,-2.1402,-2.187,-2.2127,-2.2205,-2.3214,-2.3737,-2.3831,-2.4743,-2.5208,-2.5335,-2.6119,-2.6491,-2.6572,-2.6966,-2.7088,-2.699,-2.6892,-2.6808,-2.6792,-2.701,-2.704,-2.6968,-0.9109,-0.9104,-0.9104,-0.9104,-0.9104,-0.9346,-1.0083,-1.0204,-1.0583,-1.1678,-1.2473,-1.2766,-1.2317,-1.268,-1.2697,-1.2106,-1.1795,-1.1369,0.0,0.0,0.0,-0.9356,-0.9178,-0.9104,-0.9104,-0.9104,-0.9104,0.0,0.0,0.0,-0.9104,-0.9104,-0.9104,-0.9104,0.0,0.0,0.0,0.0,0.0,-1.4856,0.0,-1.7346,-1.9602,-2.0498,-2.163,-2.2699,-2.2699,-2.2699,-2.2699,-2.2699,0.0,-2.1802,-2.1802,-2.1268,0.0,0.0,0.0,0.0,0.0,0.0,0.0,0.0,0.0,-1.7259,0.0,0.0,0.0,-1.7104,0.0,0.0,0.0,0.0,0.0,0.0,0.0,0.0,0.0,0.0,0.0,0.0,0.0,0.0,0.0,-2.1792,-2.165,-2.1482,-2.1642,-2.1769,-2.1769,-2.1903,-2.1972,-2.1915,-2.1858,-2.1753,-2.1661,-2.1753,-2.1858,-2.1932,-2.274,-2.3175,-2.3279,-2.4145,-2.4589,-2.4729,-2.5485,-2.5842,-2.5939,-2.6747,-2.7057,-2.7059,-2.7053,-2.7088,-2.7086,-2.6991,-2.6942,-2.6909,-0.9102,-0.9104,-0.9104,-0.9104,-0.9104,-0.9346,-1.0083,-1.0204,-1.0963,-1.307,-1.4045,-1.4762,0.0,0.0,0.0,0.0,0.0,0.0,-1.2331,0.0,0.0,-1.0169,-0.9483,-0.9104,-0.9104,-0.9104,-0.9104,0.0,0.0,0.0,0.0,-0.9104,-0.9104,-0.9121,-0.9789,0.0,0.0,0.0,-1.3319,0.0,-1.5598,-1.7656,0.0,-2.1888,-2.2543,-2.2699,-2.2699,-2.2699,-2.2699,0.0,-2.2647,-2.2578,0.0,-2.2061,0.0,0.0,0.0,0.0,0.0,0.0,0.0,0.0,-1.9114,0.0,0.0,0.0,-1.7959,-1.8045,0.0,0.0,0.0,0.0,0.0,0.0,0.0,0.0,0.0,0.0,0.0,0.0,0.0,0.0,0.0,-2.0411,-2.031,-2.0285,-2.0919,-2.1275,-2.1275,-2.1963,-2.2335,-2.2335,-2.2265,-2.2209,-2.2209,-2.2209,-2.2265,-2.2335,-2.2504,-2.262,-2.2706,-2.3526,-2.3912,-2.3977,-2.4784,-2.5111,-2.5178,-2.5937,-2.6247,-2.6301,-2.7007,-2.7201,-2.7103,-2.7086,-2.7039,-2.6992,-0.9167,-0.9123,-0.9104,-0.9104,-0.9104,-0.9501,-1.071,-1.2023,-1.3215,-1.4165,-1.534,0.0,0.0,0.0,0.0,0.0,0.0,-1.4945,0.0,0.0,0.0,-1.1039,-1.0679,-1.0262,-0.9811,-0.9794,0.0,0.0,-0.9104,0.0,0.0,0.0,-0.9328,-0.9755,-1.0065,0.0,-1.2224,0.0,0.0,0.0,0.0,0.0,0.0,-2.1118,-2.1923,-2.2699,-2.2699,-2.2699,-2.2699,0.0,-2.2699,0.0,0.0,0.0,0.0,0.0,0.0,0.0,0.0,0.0,0.0,0.0,0.0,0.0,-1.8476,0.0,-1.82,0.0,0.0,0.0,0.0,0.0,0.0,0.0,0.0,0.0,0.0,0.0,0.0,0.0,0.0,0.0,0.0,0.0,0.0,0.0,-2.0905,-2.1374,-2.1374,-2.2105,-2.2515,-2.2515,-2.2446,-2.2422,-2.2422,-2.2422,-2.2432,-2.246,-2.2528,-2.2565,-2.2609,-2.2986,-2.3164,-2.3198,-2.3974,-2.4301,-2.4353,-2.5129,-2.5471,-2.5505,-2.5833,-2.6473,-2.7217,-2.7217,-2.7202,-2.717,-0.9261,0.0,0.0,0.0,-0.9104,-0.9691,-1.1443,-1.3465,-1.496,-1.5375,0.0,0.0,-1.7756,-1.8496,0.0,0.0,0.0,-1.7434,0.0,0.0,-1.382,-1.2244,-1.1969,0.0,0.0,0.0,0.0,-0.9431,-0.9213,-0.9104,0.0,0.0,-0.9496,-1.0221,0.0,-1.1868,-1.3672,0.0,0.0,-1.751,-1.8823,-1.9918,-2.0792,-2.0958,-2.1733,-2.2699,-2.2699,-2.2699,-2.2699,-2.2699,-2.2699,0.0,-2.2699,0.0,0.0,0.0,0.0,0.0,-2.2725,0.0,0.0,0.0,0.0,0.0,0.0,0.0,0.0,0.0,0.0,0.0,0.0,0.0,0.0,0.0,0.0,0.0,0.0,0.0,0.0,0.0,0.0,0.0,0.0,0.0,0.0,0.0,0.0,-2.0764,-2.1176,-2.1915,-2.2413,-2.2619,-2.2565,-2.2538,-2.2538,-2.2538,-2.2538,-2.2569,-2.2592,-2.2636,-2.2619,-2.2672,-2.2699,-2.2733,-2.3267,-2.3509,-2.356,-2.4353,-2.4663,-2.4681,-2.4919,-2.5816,-2.6971,-2.6971,-2.7109,-2.7299,-0.9403,-0.929,0.0,0.0,0.0,-0.9864,-1.2127,-1.3792,-1.5332,0.0,0.0,0.0,0.0,0.0,0.0,0.0,0.0,-1.9416,-1.8707,0.0,-1.5597,0.0,0.0,-1.2349,0.0,0.0,-1.0291,-1.0262,-0.9483,-0.9104,0.0,0.0,0.0,0.0,0.0,-1.2902,-1.3833,-1.6042,-1.752,-1.8415,-1.9188,-2.0362,-2.173,0.0,-2.2664,-2.2699,-2.2699,0.0,0.0,-2.2699,-2.2699,0.0,0.0,0.0,0.0,0.0,0.0,0.0,0.0,0.0,0.0,-2.0881,0.0,0.0,0.0,0.0,-1.82,0.0,0.0,0.0,0.0,0.0,-1.676,-1.6019,0.0,0.0,0.0,0.0,0.0,0.0,0.0,0.0,0.0,0.0,0.0,0.0,0.0,0.0,-2.036,-2.1199,-2.1957,-2.2664,-2.2699,-2.2699,-2.2699,-2.2699,-2.2699,-2.2699,-2.2699,-2.2699,-2.2699,-2.2699,-2.2699,-2.2699,-2.2733,-2.2733,-2.2785,-2.3526,-2.3836,-2.3922,-2.4712,-2.5471,-2.6128,-2.6128,-2.6626,-2.7299,0.0,0.0,0.0,0.0,0.0,-1.0673,-1.3013,-1.554,-1.7363,0.0,0.0,0.0,0.0,0.0,-2.2035,0.0,0.0,-2.1303,-2.0512,-1.9489,0.0,0.0,0.0,-1.5396,0.0,0.0,-1.2234,-1.1158,-1.0348,0.0,0.0,0.0,0.0,0.0,0.0,-1.3831,0.0,0.0,0.0,0.0,0.0,-2.1595,-2.2457,0.0,0.0,-2.2699,-2.2699,-2.2699,0.0,-2.2751,-2.2764,-2.2777,-2.2829,-2.2829,-2.2829,-2.2829,-2.2829,0.0,0.0,0.0,-2.2607,-2.1612,0.0,0.0,0.0,0.0,0.0,0.0,0.0,0.0,0.0,0.0,-1.6809,-1.6029,-1.5288,0.0,0.0,0.0,0.0,0.0,0.0,0.0,0.0,0.0,0.0,0.0,-1.7476,0.0,0.0,-2.063,-2.1699,-2.1957,-2.244,-2.2699,-2.2699,-2.2699,-2.2699,-2.2699,-2.2699,-2.2699,-2.2699,-2.2699,-2.2699,-2.2699,-2.2699,-2.2699,-2.2716,-2.2974,-2.3078,-2.3095,-2.3371,-2.3922,-2.4698,-2.5715,-2.6609,-2.7299,-1.199,0.0,0.0,0.0,0.0,0.0,0.0,0.0,0.0,0.0,-2.059,0.0,-2.2307,0.0,-2.313,0.0,-2.3389,-2.2747,-2.1894,-2.1377,0.0,-1.873,-1.8658,0.0,0.0,0.0,-1.3877,-1.2522,0.0,-1.0179,0.0,0.0,0.0,0.0,0.0,0.0,0.0,0.0,-1.9538,0.0,0.0,-2.2521,0.0,0.0,-2.279,-2.2699,0.0,-2.2712,-2.2738,-2.279,-2.2816,-2.2838,-2.2893,-2.2906,-2.2906,-2.2906,-2.2906,-2.2906,-2.2932,-2.294,0.0,-2.2052,-2.1499,0.0,-2.0098,0.0,0.0,0.0,0.0,0.0,0.0,0.0,0.0,-1.61,-1.5539,-1.4752,0.0,0.0,0.0,0.0,0.0,0.0,0.0,0.0,-1.4917,-1.5469,-1.6435,0.0,0.0,0.0,-2.1027,-2.1578,-2.2319,-2.2699,-2.2699,-2.2699,-2.2699,-2.2699,-2.2699,-2.2699,-2.2699,-2.2699,-2.2699,-2.2699,-2.2699,-2.2699,-2.2699,-2.2699,-2.2699,-2.2699,-2.2699,-2.3147,-2.3957,-2.5232,-2.6385,-2.7299,0.0,0.0,0.0,0.0,-1.3176,0.0,0.0,0.0,-1.9435,0.0,-2.2026,-2.2682,-2.2811,-2.3551,-2.4067,-2.4149,-2.4119,0.0,-2.2912,-2.281,0.0,0.0,-2.053,-1.9766,-1.8123,0.0,0.0,0.0,0.0,0.0,0.0,0.0,0.0,0.0,-1.2285,0.0,-1.6308,-1.8628,-2.0114,-2.1053,-2.2522,-2.3132,-2.3132,-2.3132,-2.297,-2.2738,-2.2725,-2.2764,-2.2816,-2.2829,-2.2868,-2.2902,-2.2902,-2.2902,-2.2902,-2.2919,-2.2919,-2.2932,-2.2977,-2.307,-2.2944,-2.2248,-2.2095,0.0,0.0,0.0,-2.0829,0.0,0.0,0.0,0.0,0.0,0.0,-1.6339,-1.6009,-1.5176,0.0,0.0,0.0,0.0,0.0,0.0,0.0,0.0,-1.3146,-1.458,-1.4753,0.0,0.0,0.0,-1.9958,-2.1487,-2.225,-2.2664,-2.2699,-2.2699,-2.2699,-2.2699,-2.2699,-2.2699,-2.2699,-2.2699,-2.2699,-2.2699,-2.2699,-2.2699,-2.2699,-2.2699,-2.2699,-2.2699,-2.2699,-2.3147,-2.3905,-2.4747,-2.6006,-2.7299,-1.486,-1.527,-1.5788,0.0,-1.6653,-1.7144,0.0,0.0,0.0,0.0,-2.3583,-2.453,-2.462,-2.5444,-2.5762,-2.5194,-2.5121,0.0,0.0,0.0,0.0,-2.2382,-2.2318,-2.1833,-2.0746,-1.9154,0.0,-1.6135,0.0,0.0,-1.0629,0.0,0.0,0.0,0.0,0.0,-1.7106,-1.8906,-2.0833,-2.27,-2.3141,-2.3342,0.0,0.0,-2.3313,-2.3194,-2.3052,-2.302,-2.3033,-2.3082,-2.3119,-2.3114,-2.3114,-2.3114,-2.3102,-2.3052,-2.3077,-2.3132,-2.3126,-2.3241,-2.3301,-2.3152,-2.2723,-2.2261,0.0,0.0,0.0,0.0,0.0,0.0,0.0,0.0,0.0,0.0,0.0,0.0,0.0,0.0,0.0,0.0,0.0,0.0,0.0,-1.3001,-1.3242,-1.3094,-1.4148,0.0,0.0,0.0,0.0,-2.0653,-2.1475,-2.2147,-2.2699,-2.2699,-2.2699,-2.2699,-2.2699,-2.2699,-2.2699,-2.2699,-2.2699,-2.2699,-2.2699,-2.2699,-2.2699,-2.2699,-2.2699,-2.2699,-2.2699,-2.3147,-2.3957,-2.5318,-2.6454,-2.7299,-1.638,0.0,0.0,-1.9111,0.0,0.0,-2.017,0.0,0.0,-2.3777,-2.4726,0.0,-2.5902,-2.6453,-2.6614,-2.6151,-2.6086,0.0,0.0,0.0,0.0,-2.4155,-2.3805,-2.3225,-2.2368,-2.0757,0.0,-1.7417,0.0,0.0,-1.1287,0.0,0.0,0.0,0.0,-1.4044,0.0,-1.9343,-2.15,-2.3395,-2.3492,0.0,0.0,-2.3696,-2.3696,-2.3653,-2.3531,-2.3394,-2.3283,-2.3324,-2.3348,-2.3365,-2.3365,-2.336,-2.3324,-2.3289,-2.3301,-2.3336,-2.3372,-2.3453,-2.3544,-2.3616,-2.334,-2.3061,-2.3084,-2.2769,-2.2462,0.0,-2.2142,-2.1724,0.0,0.0,0.0,0.0,0.0,0.0,0.0,0.0,0.0,0.0,0.0,0.0,-1.2127,-1.2404,-1.247,-1.2041,-1.3112,0.0,0.0,0.0,0.0,-1.986,-2.1009,-2.194,-2.2699,-2.2699,-2.2699,-2.2699,-2.2699,-2.2699,-2.2699,-2.2699,-2.2699,-2.2699,-2.2699,-2.2699,-2.2699,-2.2699,-2.2699,-2.2699,-2.2699,-2.3147,-2.3905,-2.4767,-2.5816,-2.6833,0.0,0.0,0.0,0.0,0.0,0.0,0.0,-2.2749,0.0,-2.5376,0.0,-2.6142,-2.6894,-2.7119,-2.7185,-2.7074,0.0,-2.6931,-2.682,-2.6096,-2.5708,-2.5764,-2.5005,-2.4235,-2.353,-2.1782,0.0,0.0,0.0,0.0,-1.2219,0.0,0.0,0.0,0.0,0.0,0.0,-1.9929,-2.2071,-2.3567,-2.3678,-2.3777,-2.3868,-2.3978,-2.4026,-2.4036,-2.4036,-2.3842,-2.3582,-2.3573,-2.3602,-2.3638,-2.3627,-2.3571,-2.3522,-2.351,-2.3522,-2.3544,-2.3605,-2.3671,-2.3765,-2.3816,-2.3888,-2.3958,-2.4026,-2.4036,-2.4036,-2.4036,-2.3479,-2.2939,0.0,0.0,0.0,0.0,0.0,0.0,0.0,0.0,0.0,0.0,0.0,0.0,0.0,-1.1544,-1.1469,-1.127,-1.1937,0.0,0.0,0.0,0.0,-1.9252,-2.0682,-2.1854,-2.2699,-2.2699,-2.2699,-2.2699,-2.2699,-2.2699,-2.2699,-2.2699,-2.2699,-2.2699,-2.2699,-2.2699,-2.2699,-2.2699,-2.2699,-2.2699,-2.2699,-2.3095,-2.3681,-2.3767,-2.4715,-2.6059,0.0,0.0,0.0,0.0,0.0,-2.4366,-2.4902,-2.5023,-2.54,-2.6419,-2.7179,-2.77,-2.7872,-2.8523,-2.8672,-2.7947,-2.7881,0.0,0.0,0.0,0.0,-2.6665,-2.5894,-2.5411,-2.5262,-2.2961,-2.1294,0.0,-1.7053,-1.4669,-1.3145,0.0,0.0,0.0,0.0,0.0,-1.9615,-2.0831,0.0,-2.3834,-2.3925,-2.4018,-2.4135,-2.4154,-2.4163,-2.4173,-2.4229,-2.4105,-2.3915,-2.3907,-2.3886,-2.3834,-2.3774,-2.3721,-2.3657,-2.3613,-2.3617,-2.3678,-2.3742,-2.3855,-2.3947,-2.4029,-2.4097,-2.4163,-2.4229,-2.4247,-2.4247,-2.4247,-2.4081,-2.375,-2.307,0.0,0.0,0.0,0.0,0.0,0.0,0.0,0.0,0.0,0.0,0.0,0.0,0.0,-1.1863,-1.0584,0.0,0.0,0.0,0.0,0.0,0.0,-2.0153,0.0,0.0,0.0,-2.2699,-2.2699,-2.2699,-2.2699,-2.2699,-2.2699,-2.2699,-2.2699,-2.2699,-2.2699,-2.2699,-2.2699,-2.2699,-2.2699,-2.2699,-2.2785,-2.2974,-2.3578,-2.4388,-2.5298,0.0,0.0,0.0,0.0,0.0,0.0,0.0,-2.6877,0.0,-2.7415,-2.7842,-2.827,-2.8728,-2.9155,-2.9229,-2.8802,-2.8765,-2.8616,-2.8207,-2.7761,-2.752,-2.752,-2.6739,0.0,-2.5708,-2.4119,-2.2476,-2.079,-1.7931,-1.5679,-1.4036,-1.2363,-1.223,-1.3479,0.0,-1.7855,0.0,0.0,0.0,-2.4009,-2.4106,-2.421,-2.4321,-2.4339,-2.4367,-2.4348,-2.4393,-2.4339,-2.4257,-2.4182,-2.4106,-2.4057,-2.4009,-2.3988,-2.3947,-2.3917,-2.3927,-2.3976,-2.3989,-2.4057,-2.4125,-2.4238,-2.4275,-2.4312,-2.4384,-2.4402,-2.4402,-2.4402,-2.4384,-2.409,-2.3215,-2.2309,0.0,0.0,0.0,0.0,0.0,0.0,0.0,0.0,0.0,0.0,0.0,0.0,0.0,0.0,0.0,0.0,0.0,0.0,0.0,0.0,0.0,0.0,-2.2113,0.0,-2.2699,-2.2699,-2.2699,-2.2699,-2.2699,-2.2699,-2.2699,-2.2699,-2.2699,-2.2699,-2.2699,-2.2699,-2.2699,-2.2699,-2.2699,-2.2699,-2.2733,-2.3095,-2.3715,-2.4543,0.0,-2.5968,0.0,0.0,-2.7037,0.0,-2.8003,-2.8263,-2.8374,-2.8374,-2.8374,-2.8635,-2.9322,-2.9396,-2.9396,-2.9396,-2.9396,-2.9396,-2.9396,-2.8765,-2.8374,-2.8374,-2.7594,-2.6851,-2.6219,-2.5094,-2.3543,0.0,-1.8933,0.0,0.0,-1.3754,-1.3832,-1.5497,0.0,0.0,0.0,0.0,-2.341,-2.4164,-2.4275,-2.4358,-2.443,-2.4482,-2.45,-2.45,-2.45,-2.45,-2.4482,-2.4375,-2.4294,-2.4229,-2.4229,-2.4238,-2.4218,-2.4218,-2.4218,-2.4209,-2.4238,-2.4229,-2.4275,-2.4384,-2.4421,-2.4438,-2.4491,-2.45,-2.45,-2.45,-2.45,-2.4269,-2.3515,-2.3187,0.0,0.0,0.0,0.0,0.0,0.0,0.0,0.0,0.0,0.0,0.0,0.0,0.0,0.0,0.0,0.0,-1.1345,0.0,0.0,0.0,0.0,-2.0666,-2.1628,0.0,-2.2725,-2.2725,-2.2712,-2.2699,-2.2699,-2.2699,-2.2699,-2.2699,-2.2699,-2.2699,-2.2699,-2.2699,-2.2699,-2.2699,-2.2699,-2.2699,-2.2699,-2.2699,-2.3164,-2.3974,0.0,0.0,0.0,0.0,0.0,0.0,-2.8096,-2.8765,-2.9266,-2.9266,-2.9266,-2.9304,-2.9378,-2.9396,-2.9396,-2.9396,-2.9396,-2.9396,-2.9396,-2.9322,-2.9266,-2.9266,-2.8449,-2.7947,-2.7873,-2.5671,-2.4388,0.0,0.0,-1.8878,0.0,-1.6316,-1.6416,-1.801,-1.9015,0.0,0.0,-2.3028,-2.3582,-2.4367,-2.4394,-2.443,-2.4491,-2.45,-2.45,-2.45,-2.45,-2.45,-2.45,-2.4491,-2.4438,-2.4385,-2.4385,-2.4339,-2.4303,-2.4303,-2.4303,-2.4312,-2.4358,-2.4385,-2.4403,-2.4474,-2.4491,-2.4491,-2.45,-2.45,-2.45,-2.45,-2.45,-2.4445,-2.4319,-2.3681,-2.3135,0.0,0.0,0.0,0.0,0.0,0.0,0.0,0.0,0.0,0.0,0.0,0.0,0.0,0.0,0.0,0.0,0.0,0.0,-1.7095,-1.8749,-2.028,-2.1776,-2.2448,-2.279,-2.279,-2.2725,-2.2699,-2.2699,-2.2699,-2.2699,-2.2699,-2.2699,-2.2699,-2.2699,-2.2699,-2.2699,-2.2699,-2.2699,-2.2699,-2.2699,-2.2699,-2.3164,-2.3819,0.0,0.0,0.0,0.0,0.0,0.0,0.0,-3.0623,-3.0846,-3.0846,-2.9991,-2.9396,-2.9396,-2.9396,-2.9396,-2.9396,-2.9396,-2.9396,-2.9396,-2.9396,-2.9396,-2.9396,-2.9062,-2.8635,-2.8114,-2.7148,-2.5949,0.0,0.0,0.0,0.0,-1.8655,-1.8729,-1.9866,0.0,-2.2555,-2.3965,-2.4466,-2.5134,-2.5903,-2.5903,-2.5922,-2.5949,-2.5949,-2.5949,-2.5949,-2.5949,-2.5949,-2.5949,-2.5949,-2.5281,-2.4465,-2.4465,-2.4447,-2.4411,-2.4411,-2.4411,-2.4438,-2.4456,-2.4465,-2.4465,-2.4491,-2.45,-2.45,-2.45,-2.45,-2.45,-2.45,-2.45,-2.4491,-2.4465,-2.4205,-2.3964,-2.3946,0.0,0.0,0.0,0.0,0.0,0.0,0.0,0.0,0.0,0.0,0.0,0.0,0.0,-1.0377,-1.1406,0.0,0.0,-1.6544,0.0,-2.0571,-2.119,-2.2342,-2.2932,-2.2932,-2.2855,-2.2829,-2.2829,-2.2829,-2.2829,-2.2829,-2.2829,-2.2829,-2.2829,-2.2829,-2.2829,-2.2829,-2.2829,-2.2829,-2.2829,-2.2829,-2.302,-2.3319,-3.0846,0.0,-3.1794,0.0,-3.1794,-3.1794,-3.1794,-3.1794,-3.1794,-3.1794,-3.0809,-3.001,-2.9768,-2.975,-2.9657,-2.9415,-2.9396,-2.9396,-2.9396,-2.9396,-2.9396,-2.9396,-2.9396,0.0,-2.8505,-2.8226,-2.726,-2.5559,-2.4464,0.0,-2.2208,-2.1417,-2.1473,-2.2282,-2.3434,-2.4408,-2.5243,-2.5819,-2.6368,-2.6907,-2.6907,-2.6907,-2.6907,-2.6907,-2.6907,-2.6907,-2.6907,-2.6907,-2.6907,-2.6907,-2.6154,-2.5169,-2.4927,-2.4853,-2.4816,-2.4574,-2.45,-2.45,-2.45,-2.45,-2.45,-2.45,-2.45,-2.45,-2.45,-2.45,-2.45,-2.45,-2.45,-2.45,-2.45,-2.45,-2.45,-2.45,0.0,0.0,0.0,0.0,0.0,0.0,0.0,-1.6158,0.0,0.0,0.0,0.0,0.0,-1.2014,-1.2271,0.0,0.0,0.0,0.0,0.0,-2.1273,-2.25,-2.3132,-2.3119,-2.3057,-2.3033,-2.3033,-2.3033,-2.3033,-2.3033,-2.3033,-2.3033,-2.3033,-2.3033,-2.3033,-2.3033,-2.3033,-2.3033,-2.3033,-2.3033,-2.3033,-2.309,-3.1775,-3.1794,-3.1794,-3.1794,-3.1794,-3.1794,-3.1794,-3.1794,-3.1794,-3.1794,-3.1775,-3.1478,-3.066,-3.0586,-3.027,-2.9471,-2.9396,-2.9396,-2.9396,-2.9396,-2.9396,0.0,0.0,-2.9407,-2.9378,-2.8542,-2.8096,-2.8059,0.0,0.0,-2.5615,-2.4816,-2.4871,-2.5652,-2.5671,-2.6108,-2.6869,-2.6869,-2.6888,-2.6907,-2.6907,-2.6907,-2.6907,-2.6907,-2.6907,-2.6907,-2.6907,-2.6907,-2.6907,-2.6907,-2.6888,-2.6721,-2.5949,-2.5689,-2.554,-2.4723,-2.45,-2.45,-2.45,-2.45,-2.45,-2.45,-2.45,-2.45,-2.45,-2.45,-2.45,-2.45,-2.45,-2.45,-2.45,-2.45,-2.45,-2.45,0.0,0.0,0.0,0.0,0.0,0.0,-1.7578,-1.6434,-1.4757,0.0,0.0,0.0,0.0,-1.5067,-1.4219,0.0,0.0,-1.8875,-1.9632,0.0,-2.2364,-2.3072,-2.3413,-2.3383,-2.3324,-2.3301,-2.3301,-2.3301,-2.3301,-2.3301,-2.3301,-2.3301,-2.3301,-2.3301,-2.3301,-2.3301,-2.3301,-2.3301,-2.3301,-2.3301,-2.3301,-2.3301,-3.263,-3.3057,-3.3436,-3.3436,-3.3436,-3.3436,-3.3436,-3.3436,-3.3436,-3.3436,-3.3436,-3.3131,-3.2314,-3.1756,-3.131,0.0,-3.053,-3.0214,0.0,-2.9694,-2.9396,-2.9396,-2.9396,-2.9396,-2.9396,-2.9118,-2.869,-2.8096,0.0,0.0,0.0,-2.6256,-2.6275,-2.6516,-2.6516,-2.6962,-2.7724,-2.7724,-2.8059,-2.8597,-2.8597,-2.8597,-2.8597,-2.8597,-2.8597,-2.8597,-2.8597,-2.8597,-2.8597,-2.8597,-2.8597,-2.8449,-2.7594,-2.6962,-2.6349,-2.5559,-2.5317,-2.5206,-2.4648,-2.45,-2.45,-2.45,-2.45,-2.45,-2.45,-2.45,-2.45,-2.45,-2.45,-2.45,-2.45,-2.45,-2.45,-2.45,-2.3089,0.0,0.0,0.0,0.0,0.0,0.0,-1.7498,0.0,-1.6305,0.0,0.0,0.0,0.0,0.0,0.0,0.0,0.0,-2.0934,0.0,-2.2668,-2.3384,-2.3718,-2.3675,-2.3602,-2.3547,-2.3495,-2.3495,-2.3495,-2.3495,-2.3495,-2.3495,-2.3495,-2.3495,-2.3495,-2.3495,-2.3495,-2.3495,-2.3495,-2.3495,-2.3495,-2.3495,-3.3536,-3.3915,-3.4281,-3.4281,-3.4281,-3.4281,-3.4281,-3.4281,-3.4281,-3.4281,-3.4281,-3.4083,-3.3592,-3.3089,0.0,-3.1849,-3.1348,-3.105,-3.105,-3.0586,-3.0158,-2.9861,-2.9842,-2.9712,-2.9407,-2.9396,0.0,-2.8597,-2.8597,-2.8337,-2.7836,-2.7836,-2.7836,-2.7836,-2.7836,-2.8114,-2.8597,-2.8597,-2.8895,-2.9396,-2.9396,-2.9396,-2.9396,-2.9396,-2.9396,-2.9396,-2.9396,-2.9396,-2.9396,-2.9396,-2.9396,-2.9304,-2.8765,-2.8244,-2.7613,-2.6479,-2.5949,-2.5596,-2.5094,-2.4723,-2.45,-2.45,-2.45,-2.45,-2.45,-2.45,-2.45,-2.45,-2.45,-2.45,-2.45,-2.45,-2.4388,-2.4063,-2.2877,-2.1885,-2.1588,0.0,0.0,0.0,0.0,0.0,0.0,-1.8029,-1.7887,0.0,0.0,0.0,0.0,0.0,0.0,-2.0201,-2.1943,-2.3024,-2.3326,-2.378,-2.3996,-2.3937,-2.3907,-2.3847,-2.3795,-2.3795,-2.3774,-2.3764,-2.3764,-2.3764,-2.3764,-2.3764,-2.3764,-2.3764,-2.3764,-2.3764,-2.3764,-2.3764,-2.3764,-2.3764,-3.4386,-3.4386,-3.4386,-3.4386,-3.4386,-3.4386,-3.4386,-3.4386,-3.4386,-3.4386,-3.4386,-3.4386,-3.4386,-3.4386,-3.3754,-3.2113,0.0,0.0,-3.1898,-3.1842,-3.147,-3.0727,-3.0689,-3.0347,-2.9603,-2.9529,-2.9463,-2.9407,-2.9407,-2.9396,-2.9396,-2.9396,-2.9396,-2.9396,-2.9396,-2.9396,-2.9396,-2.9396,-2.9396,-2.9396,-2.9396,-2.9396,-2.9396,-2.9396,-2.9396,-2.9396,-2.9396,-2.9396,-2.9396,-2.9396,-2.9396,-2.9396,-2.9396,-2.9396,-2.9081,-2.7464,-2.6442,-2.5838,-2.5726,-2.515,-2.4574,-2.4518,-2.45,-2.45,-2.45,-2.45,-2.45,-2.45,-2.45,-2.45,-2.45,-2.45,-2.4212,-2.3333,-2.2516,-2.1718,-2.0901,0.0,0.0,0.0,0.0,0.0,-1.9683,-1.9776,-1.9428,0.0,0.0,0.0,0.0,0.0,-2.0372,-2.1937,-2.2716,-2.3455,-2.422,-2.4219,-2.4209,-2.4209,-2.4199,-2.418,-2.4113,-2.4113,-2.4084,-2.4026,-2.4026,-2.4026,-2.4026,-2.4026,-2.4016,-2.4016,-2.4016,-2.4016,-2.4006,-2.4006,-2.4006,-2.4006,0.0,0.0,-3.4386,-3.4386,-3.4386,-3.4386,-3.4386,-3.4386,-3.4386,-3.4386,-3.4386,-3.4386,-3.4386,-3.4386,-3.4225,-3.3829,-3.3213,-3.2858,-3.2858,-3.2291,-3.1862,-3.1675,-3.1675,-3.1582,-3.1376,-3.0731,-3.0066,-2.9411,-2.9399,-2.9396,-2.9396,-2.9396,-2.9396,-2.9396,-2.9396,-2.9396,-2.9396,-2.9396,-2.9396,-2.9396,-2.9396,-2.9396,-2.9396,-2.9396,-2.9396,-2.9396,-2.9396,-2.9396,-2.9396,-2.9396,-2.9396,-2.9396,-2.9396,-2.9396,-2.9192,-2.8133,-2.7687,-2.726,-2.6033,-2.5559,-2.528,-2.4648,-2.45,-2.45,-2.45,-2.45,-2.45,-2.45,-2.45,-2.45,-2.45,-2.45,-2.4212,-2.3333,-2.2516,-2.1718,-2.0901,-2.011,0.0,0.0,-2.0325,-2.053,-2.1346,-2.1421,-2.1346,0.0,0.0,0.0,-2.1416,-2.1983,-2.2475,-2.2875,-2.3715,-2.4243,-2.4429,-2.4438,-2.4403,-2.4349,-2.4294,-2.4275,-2.4247,-2.4247,-2.4238,-2.4229,-2.4229,-2.4229,-2.4229,-2.4229,-2.4201,-2.4154,-2.4154,-2.4143,-2.4151,-2.4151,-2.4151,-2.4151,-3.4495,-3.4495,-3.4495,-3.4495,-3.4495,-3.4495,-3.4495,-3.4495,-3.4495,-3.4495,-3.4495,-3.4495,-3.4495,-3.4495,-3.4495,-3.4495,-3.4039,-3.3743,-3.3743,-3.3332,-3.2921,-3.2558,-3.2558,-3.2371,-3.2016,-3.1539,-3.1051,-3.059,-3.0197,-2.998,-2.9988,-2.9587,-2.939,-2.939,-2.939,-2.9429,-2.945,-2.945,-2.945,-2.945,-2.945,-2.945,-2.945,-2.945,-2.945,-2.945,-2.945,-2.945,-2.945,-2.945,-2.945,-2.945,-2.9419,-2.939,-2.9316,-2.8831,-2.8412,-2.7836,-2.6591,-2.5987,-2.5503,-2.4711,-2.4507,-2.4515,-2.4532,-2.4559,-2.4559,-2.4559,-2.4559,-2.4559,-2.4559,-2.4524,-2.4097,-2.2898,-2.229,-2.1718,-2.0901,-2.0418,-2.0455,-2.1254,-2.1346,-2.1662,-2.2479,-2.2553,-2.2553,-2.2553,-2.2553,0.0,-2.2553,-2.2961,-2.3194,-2.3205,-2.4055,-2.45,-2.45,-2.45,-2.4482,-2.4447,-2.4402,-2.4375,-2.4348,-2.4348,-2.433,-2.4294,-2.4294,-2.4294,-2.4294,-2.4294,-2.4275,-2.4257,-2.4257,-2.4229,-2.42,-2.42,-2.419,-2.419,-3.4612,-3.4612,-3.4612,-3.4612,-3.4612,-3.4612,-3.4612,-3.4612,-3.4612,-3.4612,-3.4612,-3.4612,-3.4612,-3.4612,-3.4612,-3.4612,-3.4495,-3.4439,-3.4439,-3.4439,-3.4121,-3.344,-3.3421,-3.3085,-3.2422,-3.2262,-3.2139,-3.2027,-3.1258,-3.0891,-3.0878,-3.0141,-2.9795,-2.9795,-2.9795,-2.9826,-2.9876,-2.9876,-2.9876,-2.9876,-2.9876,-2.9876,-2.9876,-2.9876,-2.9876,-2.9857,-2.9745,-2.9679,-2.966,-2.953,-2.9502,-2.9492,-2.9433,-2.9423,-2.9412,-2.9429,-2.8917,-2.8144,-2.7306,-2.6414,-2.5521,-2.47,-2.4503,-2.452,-2.4599,-2.4607,-2.4607,-2.4607,-2.4607,-2.4607,-2.4607,-2.4555,-2.4027,-2.2517,-2.2229,-2.1919,-2.1105,0.0,-2.1272,-2.2089,-2.2182,-2.2497,-2.3314,-2.3397,-2.3397,-2.3397,-2.3397,-2.3397,-2.3397,-2.3397,-2.3397,-2.3397,-2.4119,-2.45,-2.45,-2.45,-2.45,-2.45,-2.45,-2.4474,-2.4421,-2.4421,-2.4375,-2.4339,-2.4339,-2.4339,-2.4339,-2.4339,-2.4312,-2.4321,-2.4321,-2.4275,-2.421,-2.421,-2.4228,-2.4218,-3.4612,-3.4612,-3.4612,-3.4612,-3.4612,-3.4612,-3.4612,-3.4612,-3.4612,-3.4612,-3.4612,-3.4612,-3.4612,-3.4612,-3.4612,-3.4612,-3.4572,-3.4561,-3.4561,-3.4561,-3.4505,-3.4392,-3.4373,-3.4317,-3.4205,-3.3478,-3.2772,-3.2069,-3.1888,-3.1811,-3.18,-3.1669,-3.1613,-3.1613,-3.1613,-3.1595,-3.1605,-3.1605,-3.1605,-3.1605,-3.1605,-3.1605,-3.1605,-3.1605,-3.1605,-3.153,-3.0847,-3.0557,-3.0407,-2.9735,-2.9502,-2.9492,-2.9482,-2.9482,-2.9511,-2.9559,-2.9475,-2.9147,-2.8191,-2.686,-2.5575,-2.4727,-2.4547,-2.4599,-2.4607,-2.4607,-2.4607,-2.4607,-2.4607,-2.4607,-2.4607,-2.4599,-2.4265,-2.3263,-2.3106,-2.2803,-2.193,0.0,-2.2107,-2.2924,-2.3017,-2.3359,-2.4212,-2.4305,-2.4305,-2.4305,-2.4305,-2.4305,-2.4305,-2.4305,-2.4305,-2.4305,-2.4425,-2.45,-2.45,-2.45,-2.45,-2.45,-2.45,-2.4491,-2.4482,-2.4482,-2.4482,-2.4474,-2.4474,-2.4474,-2.4474,-2.4474,-2.4438,-2.4375,-2.4375,-2.4339,-2.4284,-2.4284,-2.4275,-2.4275,-3.6113,-3.5763,-3.545,-3.545,-3.5073,-3.4761,-3.4761,-3.4761,-3.4761,-3.4761,-3.4761,-3.4751,-3.4701,-3.4701,-3.4699,-3.4655,-3.4655,-3.4645,-3.4612,-3.4612,-3.4612,-3.4612,-3.4612,-3.4612,-3.4612,-3.4215,-3.3819,-3.3444,-3.2991,-3.2735,-3.2695,-3.2264,-3.2048,-3.2048,-3.2048,-3.205,-3.2062,-3.2062,-3.2062,-3.2062,-3.2062,-3.2062,-3.2062,-3.2062,-3.2083,-3.2066,-3.169,-3.158,-3.1487,-3.065,-3.0359,-3.0264,-2.9777,-2.9636,-2.9654,-2.9654,-2.9317,-2.8848,-2.839,-2.71,-2.5824,-2.5453,-2.5019,-2.4723,-2.4757,-2.4764,-2.4764,-2.4764,-2.4764,-2.4764,-2.4761,-2.473,-2.441,-2.3558,-2.3378,-2.3216,-2.2815,-2.271,-2.2991,-2.381,-2.3905,-2.4063,-2.4462,-2.45,-2.45,-2.45,-2.45,-2.45,-2.45,-2.45,-2.45,-2.45,-2.45,-2.45,-2.45,-2.45,-2.45,-2.45,-2.45,-2.45,-2.45,-2.45,-2.45,-2.45,-2.45,-2.45,-2.45,-2.45,-2.4482,-2.4456,-2.4456,-2.4402,-2.4348,-2.4348,-2.433,-2.4294,-3.7442,-3.6957,-3.6454,-3.6264,-3.5666,-3.5154,-3.4945,-3.4926,-3.4926,-3.4926,-3.4926,-3.4908,-3.4851,-3.4851,-3.484,-3.478,-3.4759,-3.471,-3.4668,-3.4668,-3.4647,-3.4594,-3.4612,-3.4612,-3.4612,-3.4612,-3.4612,-3.4612,-3.3982,-3.3642,-3.3591,-3.2972,-3.2681,-3.2681,-3.2681,-3.2693,-3.2707,-3.2707,-3.2708,-3.2728,-3.2728,-3.2738,-3.2748,-3.2748,-3.2778,-3.2798,-3.2619,-3.26,-3.2569,-3.1728,-3.1311,-3.1016,-3.0304,-2.9964,-2.983,-2.9803,-2.9341,-2.8787,-2.8531,-2.757,-2.6547,-2.6216,-2.5626,-2.5118,-2.4953,-2.4929,-2.4929,-2.4929,-2.4929,-2.4915,-2.4926,-2.4884,-2.4608,-2.3947,0.0,-2.3727,-2.3727,-2.3662,-2.3854,-2.4481,-2.4541,-2.4534,-2.4498,-2.4498,-2.449,-2.45,-2.45,-2.45,-2.45,-2.45,-2.45,-2.45,-2.45,-2.45,-2.45,-2.45,-2.45,-2.45,-2.45,-2.45,-2.45,-2.45,-2.45,-2.45,-2.45,-2.45,-2.45,-2.45,-2.45,-2.45,-2.45,-2.4474,-2.4421,-2.4421,-2.4384,-2.4348,-3.7595,-3.7537,-3.7243,-3.6434,-3.6243,-3.5911,-3.5122,-3.498,-3.498,-3.498,-3.498,-3.498,-3.4999,-3.5001,-3.4992,-3.4983,-3.4917,-3.487,-3.4889,-3.4889,-3.4782,-3.4612,-3.4612,-3.4612,-3.4612,-3.4612,-3.4612,-3.4612,-3.4526,-3.4508,-3.4508,-3.4433,-3.4414,-3.4414,-3.4414,-3.4446,-3.4517,-3.4517,-3.4542,-3.4603,-3.4603,-3.4632,-3.4699,-3.4699,-3.4699,-3.4595,-3.3863,-3.3605,-3.35,-3.2743,-3.1952,-3.1278,-3.1194,-3.0624,-2.9992,-3.004,-3.011,-2.9919,-2.8859,-2.854,-2.8126,-2.6576,-2.6179,-2.597,-2.5184,-2.4994,-2.4994,-2.4994,-2.4994,-2.4981,-2.4993,-2.4986,-2.4941,-2.4816,0.0,0.0,-2.4697,-2.464,-2.462,-2.4682,-2.4693,-2.4642,-2.4503,-2.4495,-2.4505,-2.45,-2.45,-2.45,-2.45,-2.45,-2.45,-2.45,-2.45,-2.45,-2.45,-2.45,-2.45,-2.45,-2.45,-2.45,-2.45,-2.45,-2.45,-2.45,-2.45,-2.45,-2.45,-2.45,-2.45,-2.45,-2.45,-2.45,-2.4491,-2.4491,-2.4491,-2.4491,-3.9408,-3.8958,-3.8326,-3.7493,-3.6899,-3.6247,-3.5377,-3.5243,-3.5243,-3.5243,-3.5243,-3.5255,-3.5254,-3.5215,-3.5174,-3.5134,-3.5072,-3.5009,-3.4963,-3.4963,-3.4917,-3.4801,-3.4791,-3.4791,-3.4791,-3.4761,-3.4722,-3.4722,-3.4728,-3.4708,-3.4718,-3.473,-3.4722,-3.4722,-3.4781,-3.4801,-3.4821,-3.4879,-3.4889,-3.4927,-3.4917,-3.4944,-3.4963,-3.4963,-3.5,-3.4988,-3.4717,-3.4661,-3.4576,-3.3796,-3.3302,-3.2845,-3.1757,-3.1228,-3.0898,-3.0414,-3.0329,-3.0271,-2.9826,-2.9315,-2.8734,-2.8147,-2.7203,-2.6353,-2.6069,-2.5565,-2.5195,-2.5195,-2.5195,-2.5185,-2.5195,-2.5195,-2.5147,-2.5031,0.0,-2.4974,-2.4927,-2.4872,-2.4811,-2.4816,-2.4787,-2.4737,-2.4626,-2.4613,-2.4607,-2.4566,-2.4557,-2.4557,-2.4557,-2.4557,-2.4557,-2.4557,-2.4557,-2.4532,-2.45,-2.45,-2.45,-2.45,-2.45,-2.45,-2.45,-2.45,-2.45,-2.45,-2.45,-2.45,-2.45,-2.45,-2.45,-2.45,-2.45,-2.45,-2.45,-2.45,-2.45,-2.45,-4.0534,-4.0053,-3.9398,-3.8582,-3.7723,-3.6837,-3.5971,-3.5624,-3.5451,-3.5451,-3.5451,-3.5457,-3.5468,-3.5388,-3.5345,-3.5293,-3.5235,-3.5176,-3.5125,-3.5125,-3.5077,-3.4945,-3.4936,-3.4936,-3.4936,-3.4879,-3.486,-3.486,-3.4869,-3.4868,-3.4868,-3.486,-3.487,-3.487,-3.4898,-3.4945,-3.4963,-3.5028,-3.5063,-3.5098,-3.5122,-3.5127,-3.5125,-3.5125,-3.5141,-3.5192,-3.5278,-3.5323,-3.5278,-3.4754,-3.4397,-3.3955,-3.2756,-3.2058,-3.1492,-3.0675,-3.0453,-3.0455,-3.0455,-2.9993,-2.9448,-2.9198,-2.8236,-2.7227,-2.6747,-2.6169,-2.5664,-2.539,-2.5332,-2.5327,-2.5322,-2.5336,-2.5297,-2.5176,-2.5154,-2.5151,-2.5105,-2.5037,-2.4994,-2.4974,-2.4921,-2.4863,-2.4772,-2.4761,-2.4723,-2.4676,-2.4668,-2.4668,-2.4668,-2.4668,-2.4668,-2.4668,-2.4668,-2.4645,-2.4588,-2.4549,-2.4524,-2.4524,-2.4524,-2.4524,-2.4524,-2.4524,-2.4524,-2.4524,-2.4524,-2.4524,-2.4524,-2.4524,-2.4524,-2.4524,-2.4524,-2.4524,-2.4524,-2.4524,-2.4524,-2.4524,-4.0595,-4.0595,-4.0344,-3.9534,-3.8685,-3.7816,-3.6948,-3.6138,-3.5617,-3.5617,-3.5617,-3.5617,-3.5598,-3.5547,-3.549,-3.549,-3.5438,-3.5398,-3.5398,-3.5398,-3.5273,-3.5006,-3.4997,-3.4997,-3.4997,-3.4997,-3.499,-3.5001,-3.5001,-3.5001,-3.5001,-3.5001,-3.4991,-3.4997,-3.4997,-3.5043,-3.5105,-3.5174,-3.5239,-3.5315,-3.5372,-3.5395,-3.5398,-3.5398,-3.5398,-3.5405,-3.5477,-3.549,-3.5515,-3.5585,-3.5038,-3.4305,-3.4305,-3.315,-3.1627,-3.0766,-3.0554,-3.0598,-3.0598,-3.0598,-3.0376,-2.9433,-2.9211,-2.8767,-2.7108,-2.6703,-2.6452,-2.5584,-2.541,-2.5402,-2.5403,-2.5398,-2.5389,-2.5313,-2.5307,-2.5292,-2.5292,-2.5247,-2.5176,-2.5121,-2.509,-2.5043,-2.4922,-2.4908,-2.4874,-2.4811,-2.4804,-2.4804,-2.4804,-2.4804,-2.4804,-2.4804,-2.4804,-2.4804,-2.4804,-2.4676,-2.4607,-2.4607,-2.4607,-2.4607,-2.4607,-2.4607,-2.4607,-2.4607,-2.4607,-2.4607,-2.4607,-2.4607,-2.4607,-2.4607,-2.4607,-2.4607,-2.4607,-2.4607,-2.4607,-2.4607,-4.0746,-4.0746,-4.0475,-3.9625,-3.9257,-3.8793,-3.7918,-3.757,-3.7203,-3.6584,-3.6507,-3.63,-3.5739,-3.5614,-3.5577,-3.5577,-3.5547,-3.5547,-3.5547,-3.5547,-3.5502,-3.5416,-3.5321,-3.5273,-3.5273,-3.5281,-3.5262,-3.5215,-3.5209,-3.5212,-3.5212,-3.5207,-3.5239,-3.5278,-3.5277,-3.528,-3.5314,-3.5369,-3.5416,-3.5443,-3.5515,-3.5534,-3.5547,-3.5547,-3.5547,-3.5534,-3.5565,-3.5577,-3.5583,-3.5651,-3.5508,-3.5179,-3.456,-3.3193,-3.1743,-3.1492,-3.1033,-3.0598,-3.0598,-3.0598,-3.0535,-3.025,-2.9728,-2.9148,-2.8646,-2.7578,-2.6627,-2.6376,-2.5858,-2.5472,-2.5464,-2.5464,-2.5455,-2.5372,-2.5363,-2.5373,-2.5379,-2.5356,-2.5337,-2.5303,-2.5262,-2.5215,-2.5121,-2.5116,-2.5087,-2.5031,-2.5006,-2.5006,-2.5006,-2.5006,-2.5006,-2.5006,-2.5006,-2.5006,-2.5006,-2.4832,-2.4749,-2.4749,-2.4749,-2.4749,-2.4749,-2.4749,-2.4749,-2.4749,-2.4749,-2.4749,-2.4749,-2.4749,-2.4749,-2.4749,-2.4749,-2.4749,-2.4749,-2.4749,-2.4749,-2.4749,-4.0797,-4.0797,-4.0623,-4.012,-3.9733,-3.9327,-3.8798,-3.8431,-3.7883,-3.7019,-3.6903,-3.6593,-3.5781,-3.5654,-3.5643,-3.5643,-3.5645,-3.5633,-3.5633,-3.5633,-3.5633,-3.5633,-3.5559,-3.5509,-3.5477,-3.5469,-3.5462,-3.5381,-3.5379,-3.5391,-3.5372,-3.5374,-3.5402,-3.5475,-3.5489,-3.5477,-3.5483,-3.5515,-3.5547,-3.5553,-3.5602,-3.5633,-3.5633,-3.5633,-3.5633,-3.5633,-3.5637,-3.5643,-3.5643,-3.5679,-3.5704,-3.5549,-3.4665,-3.3673,-3.2687,-3.2005,-3.1463,-3.1004,-3.0694,-3.0598,-3.0598,-3.0598,-3.0192,-2.9727,-2.9384,-2.8489,-2.7538,-2.6841,-2.6319,-2.5874,-2.5565,-2.5507,-2.5484,-2.5452,-2.5433,-2.5448,-2.5436,-2.5443,-2.5434,-2.5406,-2.5355,-2.5322,-2.5288,-2.5273,-2.5247,-2.5176,-2.5176,-2.5176,-2.5176,-2.5176,-2.5176,-2.5176,-2.5176,-2.5176,-2.5176,-2.5068,-2.4962,-2.491,-2.4915,-2.4921,-2.4921,-2.4888,-2.4881,-2.4881,-2.4881,-2.4881,-2.4881,-2.4881,-2.4881,-2.4881,-2.4881,-2.4881,-2.4881,-2.4881,-2.4881,-2.4881,-4.0797,-4.0797,-4.0797,-4.0797,-4.0139,-3.9617,-3.9617,-3.8934,-3.8096,-3.7135,-3.7019,-3.669,-3.58,-3.5704,-3.5704,-3.5704,-3.5704,-3.5704,-3.5704,-3.5704,-3.5704,-3.5704,-3.5704,-3.5662,-3.561,-3.5604,-3.5572,-3.5515,-3.5515,-3.5515,-3.5515,-3.5515,-3.5534,-3.5604,-3.5604,-3.5604,-3.561,-3.5614,-3.5606,-3.5612,-3.5679,-3.5704,-3.5704,-3.5704,-3.5704,-3.5704,-3.5704,-3.5704,-3.5704,-3.5704,-3.5704,-3.5549,-3.4781,-3.4452,-3.4065,-3.2391,-3.185,-3.1618,-3.083,-3.0598,-3.0598,-3.0598,-3.0598,-3.0385,-2.9592,-2.9364,-2.8857,-2.7267,-2.6799,-2.6474,-2.5739,-2.5546,-2.5507,-2.5507,-2.5507,-2.5507,-2.5507,-2.5507,-2.5484,-2.5425,-2.5406,-2.5408,-2.5412,-2.5407,-2.5374,-2.5322,-2.5322,-2.5322,-2.5322,-2.5322,-2.5322,-2.5322,-2.5322,-2.5322,-2.5322,-2.5322,-2.5253,-2.5126,-2.5124,-2.5125,-2.5125,-2.5056,-2.5025,-2.5025,-2.5025,-2.5019,-2.5019,-2.5019,-2.5019,-2.5019,-2.5019,-2.5019,-2.5019,-2.5019,-2.5019,-2.5019,-4.0797,-4.0797,-4.0797,-4.0797,-4.0642,-4.0526,-4.0526,-4.0371,-3.9688,-3.8115,-3.7922,-3.7348,-3.5858,-3.5704,-3.5704,-3.5704,-3.5704,-3.5704,-3.5704,-3.5704,-3.5704,-3.5704,-3.5704,-3.5679,-3.5687,-3.5687,-3.5651,-3.5583,-3.5583,-3.5583,-3.5583,-3.5583,-3.5601,-3.5687,-3.5687,-3.5687,-3.5687,-3.5673,-3.5679,-3.5679,-3.5684,-3.5704,-3.5704,-3.5704,-3.5704,-3.5704,-3.5704,-3.5704,-3.5704,-3.5704,-3.5704,-3.5665,-3.5477,-3.4955,-3.42,-3.3126,-3.2333,-3.1618,-3.083,-3.0598,-3.0598,-3.0598,-3.0598,-3.0559,-3.0366,-2.9785,-2.9186,-2.8818,-2.7654,-2.6644,-2.6474,-2.5913,-2.5507,-2.5507,-2.5507,-2.5507,-2.5507,-2.5507,-2.5488,-2.5484,-2.5484,-2.548,-2.5472,-2.5472,-2.5468,-2.5459,-2.5459,-2.5459,-2.5459,-2.5459,-2.5459,-2.5459,-2.5459,-2.5459,-2.5459,-2.5459,-2.5397,-2.5253,-2.5268,-2.5262,-2.5262,-2.5238,-2.5222,-2.5225,-2.5225,-2.5215,-2.5154,-2.5154,-2.5154,-2.5154,-2.5154,-2.5154,-2.5154,-2.5154,-2.5154,-2.5154,-4.0797,-4.0797,-4.0797,-4.0797,-4.0797,-4.0797,-4.0797,-4.0448,-3.9694,-3.8367,-3.7845,-3.7096,-3.5839,-3.5704,-3.5704,-3.5704,-3.5704,-3.5704,-3.5704,-3.5704,-3.5704,-3.5704,-3.5704,-3.5704,-3.5704,-3.5704,-3.5679,-3.5643,-3.5643,-3.5643,-3.5643,-3.5643,-3.5673,-3.5704,-3.5704,-3.5704,-3.5704,-3.5704,-3.5704,-3.5704,-3.5704,-3.5704,-3.5704,-3.5704,-3.5704,-3.5704,-3.5704,-3.5704,-3.5704,-3.5704,-3.5704,-3.5704,-3.5704,-3.54,-3.4858,-3.3982,-3.3107,-3.2237,-3.1405,-3.0888,-3.0598,-3.0598,-3.0598,-3.0598,-3.0598,-3.025,-2.9805,-2.9384,-2.8567,-2.7808,-2.7406,-2.6648,-2.6068,-2.6068,-2.5758,-2.5507,-2.5507,-2.5507,-2.5507,-2.5507,-2.5507,-2.5507,-2.5507,-2.5507,-2.5507,-2.5507,-2.5507,-2.5507,-2.5507,-2.5507,-2.5507,-2.5507,-2.5507,-2.5507,-2.5507,-2.5507,-2.5468,-2.5397,-2.5369,-2.5345,-2.5345,-2.5351,-2.5341,-2.5351,-2.5351,-2.5322,-2.5293,-2.5293,-2.5303,-2.5293,-2.5293,-2.5283,-2.5248,-2.5248,-2.5248,-2.5248,-4.079,-4.079,-4.079,-4.079,-4.079,-4.0809,-4.0803,-4.0068,-3.9197,-3.8315,-3.7439,-3.6593,-3.5781,-3.5704,-3.5704,-3.5704,-3.5704,-3.5704,-3.5704,-3.5704,-3.5704,-3.5704,-3.5704,-3.5704,-3.5704,-3.5704,-3.5704,-3.5704,-3.5704,-3.5704,-3.5704,-3.5704,-3.5704,-3.5704,-3.5704,-3.5704,-3.5704,-3.5704,-3.5704,-3.5704,-3.5704,-3.5704,-3.5704,-3.5704,-3.5704,-3.5704,-3.5704,-3.5704,-3.5704,-3.5704,-3.5704,-3.5704,-3.5704,-3.5704,-3.553,-3.4665,-3.3886,-3.3107,-3.2082,-3.1308,-3.0772,-3.0636,-3.0598,-3.0598,-3.0598,-3.0598,-3.0385,-2.9669,-2.9399,-2.9074,-2.8358,-2.7503,-2.6919,-2.6919,-2.6242,-2.57,-2.57,-2.5584,-2.5507,-2.5507,-2.5507,-2.5507,-2.5507,-2.5507,-2.5507,-2.5507,-2.5507,-2.5507,-2.5507,-2.5507,-2.5507,-2.5507,-2.5507,-2.5507,-2.5507,-2.5507,-2.5507,-2.5507,-2.5433,-2.5425,-2.5425,-2.5427,-2.5419,-2.5395,-2.5395,-2.5395,-2.541,-2.541,-2.5397,-2.5403,-2.5403,-2.5365,-2.5313,-2.5308,-2.5308,-2.5308,-4.0796,-4.0796,-4.0796,-4.0796,-4.0796,-4.0804,-4.0794,-4.0059,-3.9195,-3.8315,-3.7439,-3.6593,-3.5781,-3.5704,-3.5704,-3.5704,-3.5704,-3.5704,-3.5704,-3.5704,-3.5704,-3.5704,-3.5704,-3.5704,-3.5704,-3.5704,-3.5704,-3.5704,-3.5704,-3.5704,-3.5704,-3.5704,-3.5704,-3.5704,-3.5704,-3.5704,-3.5704,-3.5704,-3.5704,-3.5704,-3.5704,-3.5704,-3.5704,-3.5704,-3.5704,-3.5704,-3.5704,-3.5704,-3.5704,-3.5704,-3.5704,-3.5704,-3.5704,-3.5704,-3.553,-3.4665,-3.4316,-3.3866,-3.2237,-3.1715,-3.1463,-3.0772,-3.0598,-3.0598,-3.0598,-3.0598,-3.0578,-3.0443,-2.9824,-2.9268,-2.9152,-2.8416,-2.7817,-2.7817,-2.7097,-2.6551,-2.6551,-2.5932,-2.5507,-2.5507,-2.5507,-2.5507,-2.5507,-2.5507,-2.5507,-2.5507,-2.5507,-2.5507,-2.5507,-2.5507,-2.5507,-2.5507,-2.5507,-2.5507,-2.5507,-2.5507,-2.5507,-2.5507,-2.5488,-2.5484,-2.5484,-2.5484,-2.5452,-2.5397,-2.5397,-2.5408,-2.541,-2.541,-2.5406,-2.5406,-2.5406,-2.5393,-2.5384,-2.5317,-2.5308,-2.5308,-4.0807,-4.0807,-4.0807,-4.0807,-4.0807,-4.0796,-4.08,-3.9677,-3.8678,-3.8257,-3.7058,-3.6091,-3.5742,-3.5704,-3.5704,-3.5704,-3.5704,-3.5704,-3.5704,-3.5704,-3.5704,-3.5704,-3.5704,-3.5704,-3.5704,-3.5704,-3.5704,-3.5704,-3.5704,-3.5704,-3.5704,-3.5704,-3.5704,-3.5704,-3.5704,-3.5704,-3.5704,-3.5704,-3.5704,-3.5704,-3.5704,-3.5704,-3.5704,-3.5704,-3.5704,-3.5704,-3.5704,-3.5704,-3.5704,-3.5704,-3.5704,-3.5704,-3.5704,-3.5704,-3.5626,-3.5245,-3.4781,-3.4239,-3.346,-3.2551,-3.1715,-3.1366,-3.0926,-3.0598,-3.0598,-3.0598,-3.0598,-3.0598,-3.0288,-3.0037,-3.0037,-2.9306,-2.8726,-2.8726,-2.7987,-2.7271,-2.6764,-2.6397,-2.599,-2.5546,-2.5507,-2.5507,-2.5507,-2.5507,-2.5507,-2.5507,-2.5507,-2.5507,-2.5507,-2.5507,-2.5507,-2.5507,-2.5507,-2.5507,-2.5507,-2.5507,-2.5507,-2.5507,-2.5507,-2.5507,-2.5507,-2.5507,-2.5484,-2.5456,-2.5456,-2.5452,-2.5464,-2.5464,-2.5436,-2.5408,-2.5408,-2.5395,-2.5393,-2.5379,-2.5365,-2.5356]},{"header":{"parameterUnit":"m.s-1","parameterCategory":1,"la1":30.6,"la2":28.766,"lo1":-90.7593,"lo2":-88.6598,"dy":0.0162,"dx":0.0183,"nx":116,"ny":114,"refTime":"2024-07-03T00:00:00:Z","depth":0,"parameterNumber":3,"parameterNumberName":"V-component_of_WINDS"},"data":[0.0,0.0,0.0,0.0,0.0,0.0,0.0,0.0,0.0,0.0,0.0,0.0,0.0,0.0,0.0,0.0,0.0,0.0,0.0,0.0,0.0,0.0,0.0,0.0,0.0,0.0,0.0,0.0,0.0,0.0,0.0,0.0,0.0,0.0,0.0,0.0,0.0,0.0,0.0,0.0,0.0,0.0,0.0,0.0,0.0,0.0,0.0,0.0,0.0,0.0,0.0,0.0,0.0,0.0,0.0,0.0,0.0,0.0,0.0,0.0,0.0,0.0,0.0,0.0,0.0,0.0,0.0,0.0,0.0,0.0,0.0,0.0,0.0,0.0,0.0,0.0,0.0,0.0,0.0,0.0,0.0,0.0,0.0,0.0,0.0,0.0,0.0,0.0,0.0,0.0,0.0,0.0,0.0,0.0,0.0,0.0,0.0,0.0,0.0,0.0,0.0,0.0,0.0,0.0,0.0,0.0,0.0,0.0,0.0,0.0,0.0,0.0,0.0,0.0,0.0,0.0,0.0,0.0,0.0,0.0,0.0,0.0,0.0,0.0,0.0,0.0,0.0,0.0,0.0,0.0,0.0,0.0,0.0,0.0,0.0,0.0,0.0,0.0,0.0,0.0,0.0,0.0,0.0,0.0,0.0,0.0,0.0,0.0,0.0,0.0,0.0,0.0,0.0,0.0,0.0,0.0,0.0,0.0,0.0,0.0,0.0,0.0,0.0,0.0,0.0,0.0,0.0,0.0,0.0,0.0,0.0,0.0,0.0,0.0,0.0,0.0,0.0,0.0,0.0,0.0,0.0,0.0,0.0,0.0,0.0,0.0,0.0,0.0,0.0,0.0,0.0,0.0,0.0,0.0,0.0,0.0,0.0,0.0,0.0,0.0,0.0,0.0,0.0,0.0,0.0,0.0,0.0,0.0,0.0,0.0,0.0,0.0,0.0,0.0,0.0,0.0,0.0,0.0,0.0,0.0,0.0,0.0,0.0,0.0,0.0,0.0,0.0,0.0,0.0,0.0,0.0,0.0,0.0,0.0,0.0,0.0,0.0,0.0,0.0,0.0,0.0,0.0,0.0,0.0,0.0,0.0,0.0,0.0,0.0,0.0,0.0,0.0,0.0,0.0,0.0,0.0,0.0,0.0,0.0,0.0,0.0,0.0,0.0,0.0,0.0,0.0,0.0,0.0,0.0,0.0,0.0,0.0,0.0,0.0,0.0,0.0,0.0,0.0,0.0,0.0,0.0,0.0,0.0,0.0,0.0,0.0,0.0,0.0,0.0,0.0,0.0,0.0,0.0,0.0,0.0,0.0,0.0,0.0,0.0,0.0,0.0,0.0,0.0,0.0,0.0,0.0,0.0,0.0,0.0,0.0,0.0,0.0,0.0,0.0,0.0,0.0,0.0,0.0,0.0,0.0,0.0,0.0,0.0,0.0,0.0,0.0,0.0,0.0,0.0,0.0,0.0,0.0,0.0,0.0,0.0,0.0,0.0,0.0,0.0,0.0,0.0,0.0,0.0,0.0,0.0,0.0,0.0,0.0,0.0,0.0,0.0,0.0,0.0,0.0,0.0,0.0,0.0,0.0,0.0,0.0,0.0,0.0,0.0,0.0,0.0,0.0,0.0,0.0,0.0,0.0,0.0,0.0,0.0,0.0,0.0,0.0,0.0,0.0,0.0,0.0,0.0,0.0,0.0,0.0,0.0,0.0,0.0,0.0,0.0,0.0,0.0,0.0,0.0,0.0,0.0,0.0,0.0,0.0,0.0,0.0,0.0,0.0,0.0,0.0,0.0,0.0,0.0,0.0,0.0,0.0,0.0,0.0,0.0,0.0,0.0,0.0,0.0,0.0,0.0,0.0,0.0,0.0,0.0,0.0,0.0,0.0,0.0,0.0,0.0,0.0,0.0,0.0,0.0,0.0,0.0,0.0,0.0,0.0,0.0,0.0,0.0,0.0,0.0,0.0,0.0,0.0,0.0,0.0,0.0,0.0,0.0,0.0,0.0,0.0,0.0,0.0,0.0,0.0,0.0,0.0,0.0,0.0,0.0,0.0,0.0,0.0,0.0,0.0,0.0,0.0,0.0,0.0,0.0,0.0,0.0,0.0,0.0,0.0,0.0,0.0,0.0,0.0,0.0,0.0,0.0,0.0,0.0,0.0,0.0,0.0,0.0,0.0,0.0,0.0,0.0,0.0,0.0,0.0,0.0,0.0,0.0,0.0,0.0,0.0,0.0,0.0,0.0,0.0,0.0,0.0,0.0,0.0,0.0,0.0,0.0,0.0,0.0,0.0,0.0,0.0,0.0,0.0,0.0,0.0,0.0,0.0,0.0,0.0,0.0,0.0,0.0,0.0,0.0,0.0,0.0,0.0,0.0,0.0,0.0,0.0,0.0,0.0,0.0,0.0,0.0,0.0,0.0,0.0,0.0,0.0,0.0,0.0,0.0,0.0,0.0,0.0,0.0,0.0,0.0,0.0,0.0,0.0,0.0,0.0,0.0,0.0,0.0,0.0,0.0,0.0,0.0,0.0,0.0,0.0,0.0,0.0,0.0,0.0,0.0,0.0,0.0,0.0,0.0,0.0,0.0,0.0,0.0,0.0,0.0,0.0,0.0,0.0,0.0,0.0,0.0,0.0,0.0,0.0,0.0,0.0,0.0,0.0,0.0,0.0,0.0,0.0,0.0,0.0,0.0,0.0,0.0,0.0,0.0,0.0,0.0,0.0,0.0,0.0,0.0,0.0,0.0,0.0,0.0,0.0,0.0,0.0,0.0,0.0,0.0,0.0,0.0,0.0,0.0,0.0,0.0,0.0,0.0,0.0,0.0,0.0,0.0,0.0,0.0,0.0,0.0,0.0,0.0,0.0,0.0,0.0,0.0,0.0,0.0,0.0,0.0,0.0,0.0,0.0,0.0,0.0,0.0,0.0,0.0,0.0,0.0,0.0,0.0,0.0,0.0,0.0,0.0,0.0,0.0,0.0,0.0,0.0,0.0,0.0,0.0,0.0,0.0,0.0,0.0,0.0,0.0,0.0,0.0,0.0,0.0,0.0,0.0,0.0,0.0,0.0,0.0,0.0,0.0,0.0,0.0,0.0,0.0,0.0,0.0,0.0,0.0,0.0,0.0,0.0,0.0,0.0,0.0,0.0,0.0,0.0,0.0,0.0,0.0,0.0,0.0,0.0,0.0,0.0,0.0,0.0,0.0,0.0,0.0,0.0,0.0,0.0,0.0,0.0,0.0,0.0,0.0,0.0,0.0,0.0,0.0,0.0,0.0,0.0,0.0,0.0,0.0,0.0,0.0,0.0,0.0,0.0,0.0,0.0,0.0,0.0,0.0,0.0,0.0,0.0,0.0,0.0,0.0,0.0,0.0,0.0,0.0,0.0,0.0,0.0,0.0,0.0,0.0,0.0,0.0,0.0,0.0,0.0,0.0,0.0,0.0,0.0,0.0,0.0,0.0,0.0,0.0,0.0,0.0,0.0,0.0,0.0,0.0,0.0,0.0,0.0,0.0,0.0,0.0,0.0,0.0,0.0,0.0,0.0,0.0,0.0,0.0,0.0,0.0,0.0,0.0,0.0,0.0,0.0,0.0,0.0,0.0,0.0,0.0,0.0,0.0,0.0,0.0,0.0,0.0,0.0,0.0,0.0,0.0,0.0,0.0,0.0,0.0,0.0,0.0,0.0,0.0,0.0,0.0,0.0,0.0,0.0,0.0,0.0,0.0,0.0,0.0,0.0,0.0,0.0,0.0,0.0,0.0,0.0,0.0,0.0,0.0,0.0,0.0,0.0,0.0,0.0,0.0,0.0,0.0,0.0,0.0,0.0,0.0,0.0,0.0,0.0,0.0,0.0,0.0,0.0,0.0,0.0,0.0,0.0,0.0,0.0,0.0,0.0,0.0,0.0,0.0,0.0,0.0,0.0,0.0,0.0,0.0,0.0,0.0,0.0,0.0,0.0,0.0,0.0,0.0,0.0,0.0,0.0,0.0,0.0,0.0,0.0,0.0,0.0,0.0,0.0,0.0,0.0,0.0,0.0,0.0,0.0,0.0,0.0,0.0,0.0,0.0,0.0,0.0,0.0,0.0,0.0,0.0,0.0,0.0,0.0,0.0,0.0,0.0,0.0,0.0,0.0,0.0,0.0,0.0,0.0,0.0,0.0,0.0,0.0,0.0,0.0,0.0,0.0,0.0,0.0,0.0,0.0,0.0,0.0,0.0,0.0,0.0,0.0,0.0,0.0,0.0,0.0,0.0,0.0,0.0,0.0,0.0,0.0,0.0,0.0,0.0,0.0,0.0,0.0,0.0,0.0,0.0,0.0,0.0,0.0,0.0,0.0,0.0,0.0,0.0,0.0,0.0,0.0,0.0,0.0,0.0,0.0,0.0,0.0,0.0,0.0,0.0,0.0,0.0,0.0,0.0,0.0,0.0,0.0,0.0,0.0,0.0,0.0,0.0,0.0,0.0,0.0,0.0,0.0,0.0,0.0,0.0,0.0,0.0,0.0,0.0,0.0,0.0,0.0,0.0,0.0,0.0,0.0,0.0,0.0,0.0,0.0,0.0,0.0,0.0,0.0,0.0,0.0,0.0,0.0,0.0,0.0,0.0,0.0,0.0,0.0,0.0,0.0,0.0,0.0,0.0,0.0,0.0,0.0,0.0,0.0,0.0,0.0,0.0,0.0,0.0,0.0,0.0,0.0,0.0,0.0,0.0,0.0,0.0,0.0,0.0,0.0,0.0,0.0,0.0,0.0,0.0,0.0,0.0,0.0,0.0,0.0,0.0,0.0,0.0,0.0,0.0,0.0,0.0,0.0,0.0,0.0,0.0,0.0,0.0,0.0,0.0,0.0,0.0,0.0,0.0,0.0,0.0,0.0,0.0,0.0,0.0,0.0,0.0,0.0,0.0,0.0,0.0,0.0,0.0,0.0,0.0,0.0,0.0,0.0,0.0,0.0,0.0,0.0,0.0,0.0,0.0,0.0,0.0,0.0,0.0,0.0,0.0,0.0,0.0,0.0,0.0,0.0,0.0,0.0,0.0,0.0,0.0,0.0,0.0,0.0,0.0,0.0,0.0,0.0,0.0,0.0,0.0,0.0,0.0,0.0,0.0,0.0,0.0,0.0,0.0,0.0,0.0,0.0,0.0,0.0,0.0,0.0,0.0,0.0,0.0,0.0,0.0,0.0,0.0,0.0,0.0,0.0,0.0,0.0,0.0,0.0,0.0,0.0,0.0,0.0,0.0,0.0,0.0,0.0,0.0,0.0,0.0,0.0,0.0,0.0,0.0,0.0,0.0,0.0,0.0,0.0,0.0,0.0,0.0,0.0,0.0,0.0,0.0,0.0,0.0,0.0,0.0,0.0,0.0,0.0,0.0,0.0,0.0,0.0,0.0,0.0,0.0,0.0,0.0,0.0,0.0,0.0,0.0,0.0,0.0,0.0,0.0,0.0,0.0,0.0,0.0,0.0,0.0,0.0,0.0,0.0,0.0,0.0,0.0,0.0,0.0,0.0,0.0,0.0,0.0,0.0,0.0,0.0,0.0,0.0,0.0,0.0,0.0,0.0,0.0,0.0,0.0,0.0,0.0,0.0,0.0,0.0,0.0,0.0,0.0,0.0,0.0,0.0,0.0,0.0,0.0,0.0,0.0,0.0,0.0,0.0,0.0,0.0,0.0,0.0,0.0,0.0,0.0,0.0,0.0,0.0,0.0,0.0,0.0,0.0,0.0,0.0,0.0,0.0,0.0,0.0,0.0,0.0,0.0,0.0,0.0,0.0,0.0,0.0,0.0,0.0,0.0,0.0,0.0,0.0,0.0,0.0,0.0,0.0,0.0,0.0,0.0,0.0,0.0,0.0,0.0,0.0,0.0,0.0,0.0,0.0,0.0,0.0,0.0,0.0,0.0,0.0,0.0,0.0,0.0,0.0,0.0,0.0,0.0,0.0,0.0,0.0,0.0,0.0,0.0,0.0,0.0,0.0,0.0,0.0,0.0,0.0,0.0,0.0,0.0,0.0,0.0,0.0,0.0,0.0,0.0,0.0,0.0,0.0,0.0,0.0,0.0,0.0,0.0,0.0,0.0,0.0,0.0,0.0,-1.3741,0.0,0.0,0.0,0.0,0.0,0.0,0.0,0.0,0.0,0.0,0.0,0.0,0.0,0.0,0.0,0.0,0.0,0.0,0.0,0.0,0.0,0.0,0.0,0.0,-0.7399,-0.7399,-0.7399,-0.7399,-0.7399,-0.7399,0.0,0.0,0.0,0.0,0.0,-0.7451,-0.7727,-0.7922,-0.7975,-0.8913,-0.9542,-0.9902,-1.0165,-0.948,-0.8053,0.0,0.0,0.0,0.0,0.0,0.0,0.0,0.0,0.0,0.0,0.0,0.0,0.0,0.0,0.0,0.0,0.0,0.0,0.0,0.0,0.0,0.0,0.0,0.0,0.0,0.0,0.0,0.0,0.0,0.0,0.0,0.0,0.0,0.0,0.0,0.0,0.0,0.0,0.0,0.0,0.0,0.0,0.0,0.0,0.0,0.0,0.0,0.0,0.0,0.0,0.0,0.0,0.0,0.0,0.0,0.0,0.0,0.0,0.0,0.0,0.0,0.0,0.0,0.0,0.0,0.0,0.0,0.0,0.0,0.0,0.0,-1.5476,0.0,0.0,0.0,0.0,0.0,0.0,0.0,0.0,0.0,0.0,0.0,0.0,0.0,0.0,0.0,0.0,0.0,0.0,0.0,0.0,0.0,-0.7329,-0.7392,-0.7399,-0.7442,-0.7554,-0.7456,-0.7442,-0.7554,-0.7456,0.0,0.0,0.0,-0.7429,-0.7502,-0.8086,-0.8482,-0.8683,-1.0175,-1.1315,-1.2103,-1.3257,-1.2661,-1.0616,-1.0886,0.0,0.0,0.0,0.0,0.0,0.0,0.0,0.0,0.0,0.0,0.0,0.0,0.0,0.0,0.0,0.0,0.0,0.0,0.0,0.0,0.0,0.0,0.0,0.0,0.0,0.0,0.0,0.0,0.0,0.0,0.0,0.0,0.0,0.0,0.0,0.0,0.0,0.0,0.0,0.0,0.0,0.0,0.0,0.0,0.0,0.0,0.0,0.0,0.0,0.0,0.0,0.0,0.0,0.0,0.0,0.0,0.0,0.0,0.0,0.0,0.0,0.0,0.0,-2.0631,-2.1048,-2.0998,-2.147,-2.1798,-2.1841,-1.9817,-1.8465,-1.7694,-1.7762,0.0,0.0,0.0,0.0,0.0,0.0,0.0,0.0,0.0,0.0,0.0,0.0,0.0,0.0,0.0,0.0,0.0,0.0,0.0,-0.7329,-0.7392,-0.7399,-0.7603,-0.8129,-0.7701,-0.7617,-0.8143,-0.7687,0.0,0.0,-0.7399,-0.7429,-0.7502,-0.8086,-0.8713,-0.9365,-1.1806,-1.3615,-1.479,-1.5486,-1.5356,-1.45,-1.3468,-1.2362,-1.1213,0.0,0.0,0.0,0.0,0.0,0.0,0.0,0.0,0.0,0.0,0.0,0.0,0.0,0.0,0.0,0.0,0.0,0.0,0.0,0.0,0.0,0.0,0.0,0.0,0.0,0.0,0.0,0.0,0.0,0.0,0.0,0.0,0.0,0.0,0.0,0.0,0.0,0.0,0.0,0.0,0.0,-1.0279,-1.0455,0.0,0.0,0.0,0.0,0.0,0.0,0.0,0.0,0.0,0.0,0.0,0.0,0.0,-1.9087,-2.0349,-2.1191,-2.1888,-2.2395,-2.2465,-2.253,-2.2521,-2.3068,-2.3354,-2.3434,-2.3679,0.0,-2.0474,-2.0474,0.0,0.0,0.0,0.0,0.0,0.0,0.0,0.0,0.0,0.0,0.0,0.0,0.0,0.0,0.0,0.0,0.0,0.0,0.0,0.0,0.0,-0.7912,-0.8166,-0.8809,-0.8611,-0.8583,-0.8851,-0.8264,-0.7912,-0.7912,-0.7627,-0.7644,-0.8054,-0.9064,-1.0623,-1.2764,-1.4253,-1.5443,-1.6371,-1.7026,-1.698,-1.6356,-1.6169,-1.5183,-1.3586,-1.292,0.0,0.0,0.0,0.0,0.0,0.0,0.0,0.0,0.0,0.0,0.0,0.0,0.0,0.0,0.0,0.0,0.0,0.0,0.0,0.0,0.0,0.0,0.0,0.0,0.0,0.0,0.0,0.0,0.0,0.0,0.0,0.0,0.0,0.0,0.0,0.0,0.0,0.0,0.0,-1.0668,-1.189,-1.2577,-1.3249,-1.3629,0.0,0.0,0.0,0.0,0.0,0.0,0.0,0.0,0.0,-1.987,-2.0764,-2.1852,-2.3113,-2.4167,-2.5009,-2.5607,-2.5853,-2.6,-2.6015,-2.6131,-2.6261,-2.6407,-2.6695,-2.6052,-2.4636,-2.3223,-2.1554,-1.9798,0.0,0.0,0.0,0.0,-1.7171,-1.8114,0.0,0.0,0.0,0.0,0.0,0.0,0.0,0.0,0.0,0.0,0.0,0.0,-0.8247,-0.8593,-0.9053,-0.9697,-0.9753,-0.9763,-0.9784,-0.918,-0.8742,-0.8582,-0.8206,-0.8305,-0.9002,-1.0641,-1.2891,-1.5792,-1.6416,-1.7055,-1.7708,-1.8201,-1.8154,-1.7708,-1.8216,-1.7461,-1.5733,-1.5066,-1.4051,0.0,0.0,0.0,0.0,0.0,0.0,0.0,0.0,0.0,0.0,0.0,0.0,0.0,0.0,0.0,0.0,0.0,0.0,0.0,0.0,0.0,0.0,0.0,0.0,0.0,0.0,0.0,0.0,0.0,0.0,0.0,0.0,0.0,0.0,0.0,0.0,0.0,0.0,-1.2262,-1.3616,-1.4892,-1.5631,-1.6095,0.0,0.0,0.0,0.0,0.0,0.0,-1.9783,-2.0785,-2.1757,-2.2701,-2.3635,-2.4568,-2.5535,-2.6707,-2.7505,-2.7956,-2.8364,-2.8553,-2.8553,-2.8411,-2.8411,-2.8553,-2.8553,-2.8321,-2.7782,-2.572,-2.4123,-2.2875,-2.1931,-2.1365,-2.0973,-2.0204,-2.0683,-2.1757,0.0,0.0,0.0,0.0,0.0,0.0,0.0,0.0,0.0,0.0,0.0,-0.8184,-0.8289,-0.9377,-1.0348,-1.0956,-1.1012,-1.1047,0.0,-1.0534,-0.994,-0.9361,-0.9327,-0.9643,-1.0376,-1.2847,-1.508,-1.7113,-1.7763,-1.8419,-1.9014,-1.9043,-1.9043,-1.9014,-1.9043,-1.8332,-1.7069,-1.6401,-1.537,-1.4094,0.0,0.0,0.0,0.0,0.0,0.0,0.0,0.0,0.0,0.0,0.0,0.0,0.0,0.0,0.0,0.0,0.0,0.0,0.0,0.0,0.0,0.0,0.0,0.0,0.0,0.0,0.0,0.0,0.0,0.0,0.0,0.0,0.0,0.0,0.0,0.0,0.0,0.0,0.0,-1.6909,-1.765,0.0,0.0,0.0,0.0,-1.9856,-2.0465,-2.1104,-2.1815,-2.363,-2.466,-2.4665,-2.6477,-2.7492,-2.755,-2.8245,-2.8622,-2.8665,-2.8694,-2.8681,-2.8681,-2.8681,-2.8681,-2.8681,-2.8681,-2.8652,-2.8607,-2.7811,-2.6765,-2.5614,-2.5556,-2.4762,-2.3775,-2.4341,-2.421,-2.3833,0.0,0.0,0.0,-0.6475,-0.6591,-0.6715,-0.6883,-0.6941,-0.7161,-0.7692,-0.8008,-0.8674,-0.9898,-1.0484,-1.1219,-1.2286,-1.2398,-1.2226,-1.1862,-1.1287,-1.0842,-1.0635,-1.0286,-1.1002,-1.2905,-1.5051,-1.6721,-1.7853,-1.8477,-1.8883,-1.9101,-1.9101,-1.9101,-1.9101,-1.9101,-1.8854,-1.839,-1.7748,-1.6982,-1.6024,-1.4312,-1.3121,0.0,0.0,0.0,0.0,0.0,0.0,0.0,0.0,0.0,0.0,0.0,0.0,0.0,0.0,0.0,0.0,0.0,0.0,0.0,0.0,0.0,0.0,0.0,0.0,0.0,0.0,0.0,0.0,0.0,0.0,0.0,0.0,0.0,0.0,0.0,0.0,0.0,-1.8912,-2.0001,0.0,-2.0944,-2.1315,-2.1808,-2.2497,-2.3136,-2.3963,-2.5023,-2.6112,-2.6895,-2.7302,-2.7984,-2.8739,-2.9552,-2.9813,-3.0321,-3.1148,-3.1148,-3.1148,-3.1148,-3.1148,-3.1148,-3.1148,-3.1148,-3.1148,-3.1134,-3.0871,-2.9566,-2.7634,-2.72,-2.7012,-2.698,-2.6779,-2.6823,-2.7038,-0.6174,-0.6248,0.0,-0.6448,-0.6535,-0.6659,-0.6807,-0.6874,-0.7156,-0.7906,-0.8296,-0.9145,-1.0824,-1.144,-1.219,-1.3303,-1.3587,-1.3472,-1.2911,-1.2494,-1.2201,-1.2024,-1.2072,-1.3108,-1.5225,-1.6748,-1.7835,-1.8506,-1.913,-1.9435,-1.9449,-1.9653,-1.974,-1.974,-1.974,-1.974,-1.9711,-1.9304,-1.8521,-1.7417,-1.5893,-1.4776,-1.3846,0.0,0.0,0.0,0.0,0.0,0.0,0.0,0.0,0.0,0.0,0.0,0.0,0.0,0.0,0.0,0.0,0.0,0.0,0.0,0.0,0.0,0.0,0.0,0.0,0.0,0.0,0.0,0.0,0.0,0.0,0.0,0.0,0.0,0.0,0.0,-1.9614,-2.0901,-2.1989,-2.2715,-2.291,-2.3505,-2.4143,-2.482,-2.5473,-2.6315,-2.7387,-2.8231,-2.8884,-2.9334,-2.974,-3.0379,-3.1221,-3.1235,-3.1656,-3.2481,-3.2481,-3.2481,-3.2481,-3.2481,-3.2481,-3.2481,-3.2481,-3.2481,-3.2481,-3.2481,-3.1511,-2.9914,-2.9233,-2.9,-2.8942,-2.8493,-2.8492,-2.8709,-0.6183,-0.6254,-0.6316,-0.6384,-0.6516,-0.6616,-0.6693,-0.6816,-0.716,-0.7923,-0.8656,-0.9592,-1.0908,-1.2211,-1.329,-1.3983,-1.4577,-1.4695,-1.4242,-1.4198,-1.3981,-1.3481,-1.4703,-1.5965,-1.72,-1.7896,-1.8521,-1.913,-1.9783,-2.0117,-2.0146,-2.0727,-2.1003,-2.1003,-2.1003,-2.1003,-2.1003,-2.1003,-1.9943,-1.823,-1.7548,-1.6532,-1.5284,0.0,0.0,0.0,0.0,0.0,0.0,0.0,0.0,0.0,0.0,0.0,0.0,0.0,0.0,0.0,0.0,0.0,0.0,0.0,0.0,0.0,0.0,0.0,0.0,0.0,0.0,0.0,0.0,0.0,0.0,0.0,0.0,0.0,-1.8303,-1.9899,-2.1569,-2.2852,-2.3586,-2.4225,-2.4839,-2.5502,-2.6166,-2.682,-2.7447,-2.8086,-2.8738,-2.9973,-3.067,-3.067,-3.1859,-3.2495,-3.2542,-3.2542,-3.2556,-3.2539,-3.2539,-3.2539,-3.2539,-3.2539,-3.2539,-3.2539,-3.2539,-3.2539,-3.2539,-3.2539,-3.2571,-3.2452,-3.177,-3.0755,-2.9653,-2.9653,-2.9276,-2.8767,-0.6183,-0.6248,-0.6313,-0.6384,-0.6472,-0.6547,-0.6616,-0.674,-0.7236,-0.8359,-0.8849,-0.9913,-1.2081,-1.2717,-1.3474,-1.4625,-1.4881,-1.4756,-1.4298,-1.4269,-1.4414,-1.4761,-1.6459,-1.7577,-1.7925,-1.8535,-1.9174,-1.9827,-2.0016,-2.032,-2.0756,-2.0915,-2.1003,-2.1003,-2.1003,-2.1003,-2.1003,-2.1003,-2.0698,-2.0132,-1.9029,-1.8375,-1.7867,0.0,0.0,0.0,0.0,0.0,0.0,0.0,0.0,0.0,0.0,0.0,0.0,0.0,0.0,0.0,0.0,0.0,0.0,0.0,0.0,0.0,0.0,0.0,0.0,0.0,0.0,0.0,0.0,0.0,0.0,0.0,0.0,-2.0233,-2.0233,-2.1888,-2.3572,-2.4849,-2.5589,-2.6242,-2.684,-2.7505,-2.7982,-2.8171,-2.9203,-2.9871,-3.0075,-3.1279,-3.199,-3.199,-3.2338,-3.2745,-3.3209,-3.3242,-3.3441,-3.3891,-3.3891,-3.3891,-3.3891,-3.3891,-3.3891,-3.3891,-3.3891,-3.3891,-3.3891,-3.3891,-3.3616,-3.3169,-3.2498,-3.1698,-3.0973,-3.0973,-3.0597,-3.0089,-0.6147,-0.6251,-0.6317,-0.6346,-0.642,-0.6481,-0.6547,-0.6676,-0.723,-0.8534,-0.8907,-0.9908,-1.2138,-1.2494,-1.3121,-1.4468,-1.4612,-1.4643,-1.4674,-1.4935,-1.54,-1.6066,-1.7461,-1.8332,-1.8579,-1.9203,-1.9711,-2.0103,-2.0625,-2.1075,-2.1423,-2.1685,-2.1815,-2.1815,-2.1815,-2.1815,-2.1815,-2.1815,-2.1815,-2.1707,-2.0712,-1.9827,-1.8985,-1.7853,-1.7084,-1.6445,-1.5066,-1.4572,-1.4267,-1.2248,0.0,0.0,0.0,0.0,0.0,0.0,0.0,0.0,0.0,0.0,0.0,0.0,0.0,0.0,0.0,0.0,0.0,0.0,0.0,0.0,0.0,0.0,0.0,0.0,-2.1598,-2.3107,-2.3383,-2.4384,-2.5473,-2.6489,-2.7186,-2.7723,-2.8086,-2.871,-2.9189,-2.9479,-3.0438,-3.109,-3.1366,-3.2353,-3.2919,-3.2919,-3.3166,-3.3485,-3.3862,-3.3862,-3.4051,-3.4414,-3.4414,-3.4414,-3.4414,-3.4414,-3.4414,-3.4414,-3.4414,-3.4414,-3.4414,-3.4414,-3.4196,0.0,0.0,0.0,0.0,0.0,-3.1293,-3.093,-0.6003,-0.6216,-0.6308,-0.6298,-0.6355,-0.642,-0.6481,-0.6599,-0.7155,-0.8428,-0.883,-0.9689,-1.1492,-1.1882,-1.2516,-1.3799,-1.3956,-1.4342,-1.5149,-1.589,-1.6619,-1.727,-1.7954,-1.855,-1.9087,-1.9754,-2.0132,-2.0204,-2.1409,-2.2033,-2.2106,-2.2649,-2.2888,-2.2888,-2.2888,-2.2888,-2.2888,-2.2888,-2.2888,-2.2844,-2.2316,-2.0973,-1.9304,-1.9232,-1.8462,-1.733,-1.6646,-1.643,-1.6226,-1.495,0.0,0.0,0.0,0.0,0.0,0.0,0.0,0.0,0.0,0.0,0.0,0.0,0.0,0.0,0.0,0.0,0.0,0.0,0.0,0.0,0.0,0.0,0.0,0.0,-2.4384,-2.6184,-2.6982,-2.7125,-2.7316,-2.7855,-2.8434,-2.8869,-2.9014,-2.9508,-3.0103,-3.0772,-3.138,-3.2004,-3.2585,0.0,0.0,0.0,0.0,-3.4414,-3.4414,-3.4414,-3.4414,-3.4414,-3.4414,-3.4414,-3.4414,-3.4414,-3.4414,-3.4414,-3.4414,-3.4414,-3.4414,-3.4414,-3.4414,-3.4356,-3.375,-3.3122,-3.2542,-3.1843,-3.1596,-3.154,-0.545,-0.5958,-0.6308,-0.6298,-0.6355,-0.6414,-0.6411,-0.6542,-0.6935,-0.7774,-0.8484,-0.9466,-1.0912,-1.1629,-1.2333,-1.319,-1.3343,-1.3926,0.0,0.0,-1.7316,-1.7983,-1.8608,-1.8985,-1.9101,-1.9754,-2.0335,-2.0828,-2.1612,-2.2251,-2.2736,-2.2844,-2.2888,-2.2888,-2.2888,-2.2888,-2.2888,-2.2888,-2.2888,-2.2888,-2.2757,-2.1881,-2.0582,-2.0088,-1.942,-1.8651,-1.8042,-1.7824,-1.7621,-1.6285,-1.5428,-1.4776,-1.3848,0.0,0.0,0.0,0.0,0.0,0.0,0.0,0.0,0.0,0.0,0.0,0.0,0.0,0.0,0.0,0.0,0.0,0.0,0.0,0.0,-2.4655,-2.5948,-2.7171,-2.884,-2.9044,-2.9087,-2.9218,-2.9334,-2.9813,-3.0872,-3.1045,-3.1393,-3.2092,-3.273,-3.3184,-3.3314,-3.3891,-3.424,-3.424,-3.4356,-3.4414,-3.4414,-3.4414,-3.4414,-3.4414,0.0,0.0,-3.4414,-3.4414,-3.4414,-3.4414,-3.4414,-3.4414,-3.4414,-3.4414,-3.4414,-3.4356,-3.375,-3.3431,-3.3242,-3.2556,-3.2292,-3.2191,-0.5344,-0.5913,-0.6308,-0.6298,-0.6325,-0.6355,-0.6393,-0.6486,-0.681,-0.7552,-0.8091,-0.8779,-0.9745,-1.0272,-1.0957,-1.1969,-1.3031,0.0,0.0,-1.6471,-1.7505,-1.8172,-1.8782,-1.9101,-1.9101,-2.0045,-2.0698,-2.1003,-2.1968,-2.2606,-2.2888,-2.2888,-2.2888,-2.2888,-2.2888,-2.2888,-2.2888,-2.2888,-2.2888,-2.2888,-2.2888,-2.2142,-2.0959,-2.0669,-2.0146,-1.9522,-1.8883,-1.8651,-1.855,-1.7882,-1.7258,-1.6632,-1.595,-1.4674,-1.3221,0.0,0.0,0.0,0.0,0.0,0.0,0.0,0.0,0.0,0.0,0.0,0.0,0.0,0.0,-1.9696,0.0,0.0,-2.4515,-2.6445,-2.7578,-2.8536,-2.9465,-2.99,-3.0103,-3.0103,-3.0103,-3.0466,-3.1393,-3.1495,-3.1932,-3.2919,-3.3314,-3.3634,-3.392,-3.424,-3.4414,-3.4414,-3.4414,-3.4414,-3.4414,-3.4414,-3.4414,-3.4414,-3.4414,-3.4414,-3.4414,-3.4414,-3.4414,-3.4414,-3.4414,-3.4414,-3.4414,-3.4414,-3.4414,-3.4385,-3.4066,-3.3935,-3.3862,-3.3224,-3.2991,-3.2904,-0.5537,-0.5998,-0.6305,-0.6307,-0.6295,-0.6316,-0.6376,-0.6439,-0.671,-0.7327,-0.7662,-0.8053,-0.8575,-0.8886,-0.954,-1.0727,0.0,0.0,0.0,-1.6391,-1.7511,-1.831,-1.8817,-1.9097,-1.9101,-2.0349,-2.1003,-2.1003,-2.2287,-2.2888,-2.2888,-2.2888,-2.2888,-2.2888,-2.2888,-2.2888,-2.2888,-2.2888,-2.2888,-2.2888,-2.2888,-2.2214,-2.1177,-2.1046,-2.0538,-1.9827,-1.929,-1.9101,-1.9101,-1.9101,-1.8782,-1.8288,-1.7737,-1.669,-1.5472,-1.4442,-1.3147,0.0,0.0,0.0,0.0,0.0,0.0,0.0,0.0,0.0,-1.9304,-2.0582,-2.1844,-2.3281,-2.511,-2.5937,-2.6736,-2.7869,-2.8928,-2.9639,-2.9798,-3.0248,-3.0598,-3.0598,-3.0598,-3.0903,-3.1642,-3.1683,-3.2251,-3.359,-3.3678,-3.3877,-3.4385,-3.4414,-3.4414,-3.4414,-3.4414,-3.4414,-3.4414,-3.4414,-3.4414,-3.4414,-3.4414,-3.4414,-3.4414,-3.4414,-3.4414,-3.4414,-3.4414,-3.4414,-3.4414,-3.4414,-3.4414,-3.4414,-3.4414,-3.4414,-3.4356,-3.3833,-3.3678,-3.359,-0.6099,-0.6257,-0.6307,-0.6295,-0.6295,-0.6295,-0.6316,-0.6363,-0.6476,-0.6687,-0.7305,-0.7791,-0.7973,-0.8553,-0.9264,-1.0128,0.0,0.0,-1.4898,-1.6229,-1.7541,-1.8854,-1.8984,-1.9036,-1.9101,-2.0349,-2.1003,-2.1003,-2.2287,-2.2888,-2.2888,-2.2888,-2.2888,-2.2888,-2.2888,-2.2888,-2.2888,-2.2888,-2.2888,-2.2888,-2.2888,-2.249,-2.1815,-2.122,-2.0248,-1.9203,-1.913,-1.9101,-1.9101,-1.9101,-1.9058,-1.8985,-1.8912,-1.8013,-1.6967,-1.6822,0.0,-1.4094,-1.4616,-1.5588,-1.6634,-1.7374,-1.8521,-1.9478,0.0,0.0,-2.1931,-2.3194,-2.4486,-2.5778,-2.713,-2.7926,-2.8594,-2.9276,-2.9508,-2.9827,-3.0409,-3.0554,-3.0598,-3.0598,-3.0598,-3.1061,-3.2249,-3.2379,-3.2933,-3.4211,-3.4312,-3.4341,-3.4414,-3.4414,-3.4414,-3.4414,-3.4414,-3.4414,-3.4414,-3.4414,-3.4414,-3.4414,-3.4414,-3.4414,-3.4414,-3.4414,-3.4414,-3.4414,-3.4414,-3.4414,-3.4414,-3.4414,-3.4414,-3.4414,-3.4414,-3.4414,-3.4399,-3.4327,-3.4312,-3.4211,-0.6174,-0.6293,-0.6295,-0.6295,-0.6295,-0.6295,-0.6295,-0.6355,-0.642,-0.6481,-0.6787,-0.702,-0.7077,-0.7756,-0.8521,-0.9326,-1.1019,-1.2699,-1.4267,-1.5949,-1.7344,-1.8319,-1.8773,-1.8998,-1.9036,-1.9976,-2.048,-2.048,-2.1365,-2.1982,-2.2374,-2.2374,-2.2562,-2.2888,-2.2888,-2.2888,-2.2888,-2.2888,-2.2888,-2.2859,-2.2519,-2.1989,-2.1336,-2.0712,-1.9899,-1.9101,-1.9101,-1.8869,0.0,0.0,-1.8579,-1.8579,-1.8579,-1.8448,-1.8245,-1.7896,-1.7214,0.0,-1.7345,-1.8448,0.0,0.0,-2.162,-2.2838,-2.2875,-2.4152,-2.5462,-2.5984,-2.6837,-2.7752,-2.8638,-2.9015,-2.9435,0.0,-3.048,-3.0698,-3.0627,-3.0887,-3.0988,-3.0641,-3.0598,-3.1121,-3.2396,-3.2481,-3.305,-3.4312,-3.4414,-3.4414,-3.4414,-3.4414,-3.4414,-3.4414,-3.4414,-3.4414,-3.4414,-3.4414,-3.4414,-3.4414,-3.4414,-3.4414,-3.4414,-3.4414,-3.4414,-3.4414,-3.4414,-3.4414,-3.4414,-3.4414,-3.4414,-3.4414,-3.4414,-3.4414,-3.4414,-3.4414,-3.4414,-3.437,-0.621,-0.6293,-0.6295,-0.6295,-0.6295,-0.6295,-0.6295,-0.6346,-0.6384,-0.6393,-0.6439,-0.6479,-0.6501,-0.705,-0.7733,-0.8501,-1.0281,-1.197,-1.3459,-1.5251,-1.6738,-1.7776,-1.835,-1.875,-1.8993,-1.9691,-2.0068,-2.0103,-2.0698,-2.1249,-2.1714,-2.1714,-2.196,-2.2388,-2.2388,-2.2388,-2.2388,-2.2388,-2.2388,-2.2345,-2.1902,-2.1322,-2.0698,-2.0262,-1.958,-1.8854,-1.8854,-1.8579,0.0,0.0,-1.7925,-1.7925,-1.7925,-1.8361,-1.8767,-1.8332,-1.8448,-1.8941,-1.988,0.0,0.0,-2.2788,-2.421,-2.5404,-2.5633,-2.6881,-2.7998,-2.7998,-2.8361,-2.884,-2.9276,-2.9479,0.0,-3.0248,-3.0988,-3.1293,-3.0685,-3.1119,-3.1293,-3.067,-3.0598,-3.1018,-3.2135,-3.2379,-3.2977,-3.4066,-3.4312,-3.4414,-3.4414,-3.4414,-3.4414,-3.4414,-3.4414,-3.4414,-3.4414,-3.4414,-3.4414,-3.4414,-3.4414,-3.4414,-3.4414,-3.4414,-3.4414,-3.4414,-3.4414,-3.4414,-3.4414,-3.4414,-3.4414,-3.4414,-3.4414,-3.4414,-3.4414,-3.4414,-3.4414,-3.4414,-0.629,-0.6293,-0.6295,-0.6295,-0.6295,-0.6295,-0.6295,-0.6295,-0.6325,-0.6384,-0.6393,-0.6425,-0.6493,-0.6642,-0.7005,-0.767,-0.8983,-1.0601,-1.2512,-1.3907,-1.5549,-1.7519,-1.7691,-1.8147,-1.8979,-1.9603,-1.996,-2.0103,-2.0698,-2.1003,-2.1032,-2.1032,-2.1032,-2.1061,-2.1061,-2.1061,-2.1061,-2.1061,-2.1061,-2.1061,-2.1032,-2.0669,-2.0132,-2.0117,-1.9319,-1.823,-1.823,0.0,0.0,0.0,-1.7243,-1.7243,-1.7243,-1.7693,0.0,-1.8216,-1.9072,0.0,0.0,0.0,-2.3302,-2.5212,-2.6224,-2.6881,-2.7478,-2.8158,-2.868,-2.868,-2.8694,-2.8723,-2.8723,-2.9218,-2.961,-2.9624,-3.0668,-3.1293,-3.0685,-3.1119,-3.1293,-3.067,-3.0598,-3.0859,0.0,-3.2104,-3.2788,-3.3489,-3.4066,-3.4414,-3.4414,-3.4414,-3.4414,-3.4414,-3.4414,-3.4414,-3.4414,-3.4414,-3.4414,-3.4414,-3.4414,-3.4414,-3.4414,-3.4414,-3.4414,-3.4414,-3.4414,-3.4414,-3.4414,-3.4414,-3.4414,-3.4414,-3.4414,-3.4414,-3.4414,-3.4414,-3.4414,-3.4414,-0.6212,-0.6269,-0.6293,-0.6307,-0.6295,-0.6295,-0.6295,-0.6295,-0.6316,-0.6325,-0.6325,0.0,0.0,0.0,0.0,0.0,-0.875,-0.9983,-1.1131,-1.3162,-1.4708,-1.551,-1.6369,-1.702,-1.7404,-1.7697,-1.8084,-1.8564,-1.8864,-1.944,-2.0284,-2.0373,-2.0611,-2.1003,-2.1003,-2.1003,-2.1003,-2.1003,-2.1003,-2.0959,-2.0553,-2.0277,-2.0016,-1.9159,-1.8579,-1.8042,0.0,0.0,0.0,-1.6619,-1.6547,-1.6619,-1.7069,0.0,0.0,-1.9217,0.0,0.0,0.0,0.0,-2.5647,-2.6286,-2.7563,-2.8696,-2.8899,-2.9131,-2.9305,-2.9305,-2.8609,-2.8057,-2.8057,-2.8203,-2.8478,-2.8927,-3.0422,-3.1438,-3.1235,-3.1741,-3.1932,-3.1279,-3.0829,0.0,0.0,0.0,0.0,-3.346,-3.4051,-3.4414,-3.4414,-3.4414,-3.4414,-3.4414,-3.4414,-3.4414,-3.4414,-3.4414,-3.4414,-3.4414,-3.4264,-3.4264,-3.4414,-3.4264,-3.4264,-3.4414,-3.4414,-3.4414,-3.4414,-3.4414,-3.4414,-3.4414,-3.4414,-3.4414,-3.4414,-3.4414,-3.4414,-3.4414,-0.612,-0.6224,-0.6299,-0.6302,-0.6298,0.0,0.0,0.0,0.0,0.0,0.0,0.0,0.0,0.0,0.0,0.0,0.0,-0.907,-0.9979,-1.1775,-1.3164,-1.3963,-1.5031,-1.5782,-1.6121,-1.6453,-1.6881,-1.7362,-1.7473,-1.7963,-1.8803,-1.9157,-1.9532,-1.9908,-2.0119,-2.0206,-2.0206,-2.0206,-2.009,-1.9864,-1.9474,-1.918,-1.8891,-1.8083,-1.749,0.0,0.0,0.0,0.0,-1.5515,0.0,0.0,0.0,0.0,0.0,0.0,0.0,-2.2614,0.0,-2.5517,-2.6953,-2.7621,-2.8724,-2.9595,-2.9595,-2.9595,-2.9407,-2.8753,-2.7955,-2.7258,-2.6767,-2.7084,-2.7592,-2.8231,-2.9943,-3.125,-3.1451,-3.206,-3.2336,-3.1901,-3.1526,-3.1424,0.0,0.0,0.0,-3.3474,-3.4051,-3.4414,-3.4414,-3.4414,-3.4414,-3.4414,-3.4346,-3.4312,-3.4312,-3.4244,-3.421,-3.4225,-3.4074,-3.4108,-3.4225,-3.4074,-3.4142,-3.4312,-3.4312,-3.4346,-3.4414,-3.4414,-3.4414,-3.4414,-3.4414,-3.4414,-3.4414,-3.4414,-3.4414,-3.4414,-0.6,-0.6159,-0.629,0.0,0.0,0.0,0.0,0.0,0.0,0.0,0.0,0.0,0.0,0.0,0.0,0.0,0.0,0.0,-0.9029,-0.981,0.0,-1.2869,-1.3639,-1.4379,-1.5113,-1.5768,-1.6204,-1.6425,-1.6522,-1.662,-1.6746,-1.7477,-1.7816,-1.7845,-1.8427,-1.8665,-1.8665,-1.8684,-1.8374,-1.7834,-1.7806,-1.7448,-1.693,-1.6873,0.0,0.0,0.0,0.0,0.0,0.0,0.0,0.0,0.0,0.0,0.0,0.0,0.0,-2.3606,-2.6112,-2.6852,-2.736,-2.9145,-2.9595,-2.9595,-2.9595,-2.9523,-2.8928,-2.7113,-2.6663,-2.6213,0.0,0.0,-2.6808,-2.7449,-2.9203,-3.0757,-3.1424,-3.206,-3.2495,0.0,0.0,0.0,0.0,0.0,0.0,-3.3514,0.0,-3.4414,-3.4414,-3.4414,-3.4414,-3.438,-3.4196,-3.4094,-3.4094,-3.3951,-3.3896,-3.3896,-3.3896,-3.3896,-3.3896,-3.3896,-3.3951,-3.4094,-3.4094,-3.4196,-3.438,-3.4414,-3.4414,-3.4414,-3.4414,-3.4414,-3.4414,-3.4414,-3.4414,-3.4414,0.0,0.0,0.0,0.0,0.0,0.0,0.0,0.0,0.0,0.0,0.0,0.0,0.0,0.0,0.0,0.0,0.0,0.0,0.0,0.0,0.0,0.0,0.0,-1.2116,-1.2753,-1.3021,0.0,0.0,0.0,-1.5233,-1.5712,-1.6442,-1.6784,-1.6784,-1.6938,-1.7008,-1.7008,-1.7116,-1.7068,-1.6902,0.0,-1.632,-1.6092,0.0,0.0,0.0,0.0,0.0,0.0,0.0,0.0,0.0,0.0,0.0,-2.1481,0.0,0.0,-2.5313,-2.6474,-2.7824,-2.9015,-2.9479,-2.9595,-2.9595,-2.9595,-2.8536,-2.7229,-2.6268,-2.4907,-2.365,-2.2875,0.0,0.0,-2.5361,-2.7592,0.0,-3.1263,-3.206,0.0,0.0,0.0,-3.2701,-3.3213,-3.327,0.0,0.0,-3.4211,-3.4414,-3.4414,-3.4414,-3.4346,-3.4162,-3.4128,-3.4059,-3.3951,-3.3931,-3.3896,-3.3896,-3.3744,-3.3744,-3.3896,-3.3744,-3.3779,-3.3951,-3.4074,-3.4128,-3.4196,-3.4346,-3.4414,-3.4414,-3.4414,-3.4414,-3.4414,-3.4414,-3.4414,-3.4414,0.0,0.0,0.0,0.0,0.0,0.0,0.0,0.0,0.0,0.0,0.0,0.0,0.0,0.0,0.0,0.0,0.0,0.0,0.0,0.0,0.0,0.0,0.0,-1.0429,-1.1004,-1.1358,-1.1872,0.0,0.0,0.0,0.0,-1.4681,-1.5031,-1.5045,-1.5308,-1.5435,-1.5435,-1.552,0.0,0.0,0.0,0.0,0.0,0.0,0.0,0.0,0.0,0.0,0.0,0.0,0.0,-1.9304,-2.0416,-2.1518,-2.2678,-2.4172,0.0,-2.6489,-2.7694,-2.8811,-2.9595,-2.9595,-2.9595,-2.9378,-2.8565,-2.7331,-2.5995,-2.4791,-2.3432,0.0,0.0,0.0,0.0,0.0,0.0,0.0,-3.1112,-3.198,-3.2764,0.0,-3.3425,0.0,-3.3748,-3.3609,-3.3666,0.0,-3.4122,-3.421,-3.4278,-3.4264,-3.423,-3.4094,-3.404,-3.3868,-3.364,-3.364,-3.364,-3.364,-3.3536,-3.3536,-3.364,-3.3536,-3.357,-3.3793,0.0,-3.3937,-3.4005,-3.4108,-3.4191,-3.4191,-3.4244,-3.4264,-3.4264,-3.438,-3.4414,-3.4414,0.0,0.0,0.0,0.0,0.0,0.0,0.0,0.0,0.0,0.0,0.0,0.0,0.0,0.0,0.0,0.0,0.0,0.0,0.0,0.0,0.0,0.0,0.0,-0.9079,-0.9617,0.0,0.0,0.0,0.0,0.0,0.0,0.0,0.0,0.0,0.0,0.0,0.0,0.0,0.0,0.0,0.0,0.0,0.0,0.0,0.0,0.0,0.0,0.0,0.0,0.0,-1.8691,-1.9769,-2.2135,-2.3004,-2.3621,-2.5981,-2.6864,-2.7403,-2.9058,-2.9595,-2.9697,-2.961,-2.9465,-2.887,-2.707,-2.5963,-2.4762,-2.2888,0.0,0.0,-2.0706,0.0,-2.2807,-2.4168,0.0,-2.7994,-3.054,-3.1622,-3.2587,-3.3786,-3.4016,-3.4059,-3.4059,-3.3951,-3.3862,-3.3862,-3.3862,-3.3882,-3.4059,-3.4059,-3.4059,-3.4025,-3.3868,-3.364,-3.329,-3.329,-3.329,-3.329,-3.329,-3.329,-3.329,-3.329,-3.3396,-3.357,-3.3605,-3.3709,-3.3862,-3.3896,-3.3896,-3.3917,-3.404,-3.4094,-3.4128,-3.4312,-3.438,-3.4414,0.0,0.0,0.0,0.0,0.0,0.0,0.0,0.0,0.0,0.0,0.0,0.0,0.0,0.0,0.0,0.0,0.0,0.0,0.0,0.0,0.0,0.0,0.0,0.0,0.0,0.0,0.0,0.0,0.0,0.0,0.0,0.0,0.0,0.0,0.0,0.0,0.0,0.0,0.0,0.0,0.0,0.0,0.0,0.0,0.0,0.0,0.0,0.0,0.0,0.0,-1.9161,-2.093,-2.2446,-2.3612,-2.4679,-2.5676,-2.7125,-2.8447,-2.8781,-2.9639,-3.0277,-2.9726,-2.8812,-2.7666,-2.6286,-2.4239,0.0,0.0,0.0,-1.8652,-1.8481,-1.9018,0.0,-2.1871,0.0,0.0,0.0,0.0,-3.1779,0.0,0.0,0.0,0.0,0.0,0.0,0.0,0.0,-3.357,-3.3931,-3.3917,-3.3848,-3.3709,-3.3501,-3.3361,-3.329,-3.329,-3.329,-3.329,-3.329,-3.329,-3.329,-3.329,-3.3326,-3.3361,-3.3536,0.0,-3.364,-3.3827,-3.3896,-3.3896,-3.3931,-3.4005,-3.4094,-3.4128,-3.4264,-3.4414,0.0,0.0,0.0,0.0,0.0,0.0,0.0,0.0,0.0,0.0,0.0,0.0,0.0,0.0,0.0,0.0,0.0,0.0,0.0,0.0,0.0,0.0,0.0,0.0,0.0,0.0,0.0,0.0,0.0,0.0,0.0,0.0,0.0,0.0,0.0,0.0,0.0,0.0,0.0,0.0,0.0,0.0,0.0,0.0,0.0,0.0,0.0,0.0,0.0,0.0,-1.8219,-2.0209,-2.2213,-2.3771,-2.5052,-2.6025,-2.7378,-2.8626,-2.8958,-2.9449,-2.9707,-2.9045,-2.795,-2.6582,-2.4955,0.0,0.0,0.0,0.0,-1.7469,-1.7434,0.0,0.0,0.0,0.0,0.0,0.0,0.0,0.0,0.0,0.0,0.0,0.0,0.0,0.0,0.0,0.0,-3.3431,-3.3709,-3.3744,-3.3709,-3.3605,-3.3396,-3.329,-3.329,-3.329,-3.329,-3.329,-3.329,-3.329,-3.329,-3.329,-3.329,-3.3326,-3.3396,0.0,-3.3466,-3.3536,-3.3605,-3.3605,-3.3709,-3.3779,-3.3868,-3.4025,-3.4162,-3.4264,0.0,0.0,0.0,0.0,0.0,0.0,0.0,0.0,-0.6298,-0.6295,-0.6295,-0.6295,-0.6295,-0.6295,0.0,0.0,0.0,0.0,0.0,0.0,0.0,0.0,0.0,0.0,0.0,0.0,0.0,0.0,0.0,0.0,0.0,0.0,0.0,0.0,0.0,0.0,0.0,0.0,0.0,0.0,0.0,0.0,0.0,0.0,0.0,0.0,0.0,0.0,0.0,0.0,-1.6738,-1.8527,-2.0897,-2.291,-2.4645,-2.5919,-2.7111,-2.811,-2.8742,-2.8913,-2.8695,-2.7911,-2.6886,-2.5533,-2.3483,-2.1574,0.0,0.0,0.0,-1.648,-1.6607,0.0,0.0,0.0,0.0,0.0,0.0,0.0,0.0,0.0,0.0,0.0,0.0,0.0,0.0,0.0,0.0,0.0,-3.3536,-3.3536,-3.3536,-3.3536,-3.3396,-3.329,-3.329,-3.329,-3.329,-3.329,-3.329,-3.329,-3.329,-3.329,-3.329,-3.329,-3.329,0.0,0.0,-3.329,-3.329,-3.3326,-3.3466,-3.357,-3.364,-3.3902,-3.4025,-3.4074,0.0,0.0,0.0,0.0,0.0,0.0,0.0,0.0,-0.6296,-0.6307,-0.6295,-0.6295,-0.6295,-0.6295,0.0,0.0,0.0,0.0,0.0,0.0,0.0,0.0,0.0,0.0,0.0,0.0,0.0,0.0,0.0,0.0,0.0,0.0,0.0,0.0,0.0,0.0,0.0,0.0,0.0,0.0,0.0,0.0,0.0,0.0,0.0,0.0,0.0,0.0,0.0,0.0,0.0,-1.6128,-1.7479,-2.0168,-2.3053,-2.4357,0.0,0.0,-2.7185,-2.7626,-2.7653,-2.6495,-2.5556,-2.4341,-2.2034,0.0,0.0,0.0,-1.5615,-1.4806,-1.5356,-1.5552,0.0,0.0,0.0,0.0,0.0,0.0,0.0,0.0,0.0,0.0,0.0,0.0,0.0,0.0,0.0,0.0,-3.3326,-3.3326,-3.3326,-3.3326,-3.3326,-3.329,-3.329,-3.329,-3.329,-3.329,-3.329,-3.329,-3.329,-3.329,-3.329,-3.329,-3.329,0.0,0.0,-3.329,-3.329,-3.329,-3.3326,-3.3431,-3.3605,-3.364,-3.3744,-3.3882,0.0,0.0,0.0,0.0,0.0,0.0,0.0,0.0,-0.6296,-0.6307,-0.6295,-0.6295,-0.6295,-0.6295,0.0,0.0,0.0,0.0,0.0,0.0,0.0,0.0,0.0,0.0,0.0,0.0,0.0,0.0,0.0,0.0,0.0,0.0,0.0,0.0,0.0,0.0,0.0,0.0,0.0,0.0,0.0,0.0,0.0,0.0,0.0,0.0,0.0,0.0,0.0,0.0,0.0,0.0,-1.5172,-1.6909,0.0,0.0,-2.3593,-2.4913,-2.5633,-2.5922,-2.5848,-2.5284,-2.4109,-2.2544,-2.0598,0.0,0.0,-1.5787,-1.4792,-1.4227,-1.4472,-1.4874,-1.5657,0.0,-1.8454,-2.0177,0.0,0.0,0.0,0.0,0.0,0.0,0.0,0.0,0.0,0.0,0.0,0.0,-3.2931,-3.3171,-3.329,-3.329,-3.329,-3.329,-3.329,-3.329,-3.329,-3.329,-3.329,-3.329,-3.329,-3.329,-3.329,-3.329,-3.329,0.0,0.0,-3.329,-3.329,-3.329,-3.329,-3.3361,-3.3431,-3.3431,-3.3466,-3.3501,0.0,0.0,0.0,0.0,0.0,0.0,-0.6168,-0.626,-0.6296,-0.6307,-0.6295,-0.6295,-0.6295,-0.6295,-0.6295,-0.6295,0.0,0.0,0.0,0.0,0.0,0.0,0.0,0.0,0.0,0.0,0.0,0.0,0.0,0.0,0.0,0.0,0.0,0.0,0.0,0.0,0.0,0.0,0.0,0.0,0.0,0.0,0.0,0.0,0.0,0.0,0.0,0.0,0.0,0.0,0.0,0.0,0.0,0.0,0.0,0.0,-2.1393,-2.2679,-2.3703,-2.3903,-2.3724,-2.3413,-2.2353,-2.0889,0.0,0.0,-1.6151,-1.4994,-1.4247,-1.3835,-1.3852,-1.4292,-1.5008,-1.6186,-1.7464,-1.913,-2.1512,0.0,0.0,0.0,0.0,0.0,0.0,0.0,0.0,0.0,0.0,0.0,-3.2417,-3.2682,-3.2959,-3.3206,-3.3276,-3.329,-3.329,-3.329,-3.329,-3.329,-3.329,-3.329,-3.329,-3.329,-3.329,-3.329,-3.329,0.0,0.0,-3.329,-3.329,-3.3276,-3.3241,-3.3206,-3.3206,-3.3086,-3.298,-3.2881,0.0,0.0,0.0,0.0,0.0,0.0,0.0,0.0,-0.6296,-0.6307,-0.6295,-0.6295,-0.6295,-0.6295,-0.6295,-0.6295,0.0,0.0,0.0,0.0,0.0,0.0,0.0,0.0,0.0,0.0,0.0,0.0,0.0,0.0,0.0,0.0,0.0,0.0,0.0,0.0,0.0,0.0,0.0,0.0,0.0,0.0,0.0,0.0,0.0,0.0,0.0,0.0,0.0,0.0,0.0,0.0,0.0,0.0,0.0,0.0,-1.9024,-1.9852,-2.1256,-2.1538,-2.1264,-2.0527,-2.0233,-1.9582,0.0,-1.6448,-1.5625,-1.4598,-1.3877,-1.3425,-1.348,-1.351,-1.3895,-1.503,-1.6299,-1.7813,-1.9847,0.0,0.0,0.0,0.0,0.0,0.0,0.0,0.0,0.0,0.0,0.0,-3.1813,-3.1813,-3.2164,-3.2988,-3.3206,-3.329,-3.329,-3.329,-3.329,-3.329,-3.329,-3.329,-3.329,-3.329,-3.329,0.0,0.0,0.0,0.0,-3.329,-3.329,-3.3276,-3.3072,-3.2988,-3.2952,-3.2561,-3.2273,-3.1938,0.0,0.0,0.0,0.0,0.0,0.0,0.0,0.0,-0.6296,-0.6307,-0.6295,-0.6295,-0.6295,-0.6295,-0.6295,-0.6295,0.0,0.0,0.0,0.0,0.0,0.0,0.0,0.0,0.0,0.0,0.0,0.0,0.0,0.0,0.0,0.0,0.0,0.0,0.0,0.0,0.0,0.0,0.0,0.0,0.0,0.0,0.0,0.0,0.0,0.0,0.0,0.0,0.0,0.0,0.0,0.0,0.0,0.0,0.0,-1.4116,-1.6116,0.0,-1.8931,-1.9445,-1.9598,-1.9284,-1.8584,-1.7624,-1.6211,-1.5154,-1.4262,-1.3533,-1.3211,-1.3052,-1.3087,-1.3168,-1.3584,-1.4676,-1.5567,0.0,0.0,0.0,0.0,0.0,0.0,0.0,0.0,0.0,0.0,0.0,0.0,0.0,-3.0996,-3.1121,-3.1616,-3.2561,-3.2632,-3.2824,-3.3108,-3.3108,-3.3157,-3.329,-3.329,-3.329,-3.329,-3.329,-3.329,0.0,0.0,0.0,0.0,-3.3157,-3.3108,-3.3072,-3.2704,-3.2525,-3.2345,-3.1982,-3.1616,-3.1154,0.0,0.0,0.0,0.0,0.0,0.0,0.0,0.0,-0.6078,-0.6271,-0.6295,-0.6295,-0.6295,-0.6295,-0.6295,-0.6295,0.0,0.0,0.0,0.0,0.0,0.0,0.0,0.0,0.0,0.0,0.0,0.0,0.0,0.0,0.0,0.0,0.0,0.0,0.0,0.0,0.0,0.0,0.0,0.0,0.0,0.0,-0.929,0.0,0.0,0.0,0.0,0.0,0.0,0.0,0.0,0.0,0.0,0.0,0.0,0.0,-1.3389,-1.5257,0.0,-1.7239,-1.7475,-1.7345,-1.6773,-1.5969,-1.4919,-1.4181,-1.3527,-1.2948,-1.2838,-1.2873,-1.2873,-1.3097,-1.3582,-1.4451,-1.5455,0.0,0.0,0.0,0.0,0.0,0.0,0.0,0.0,0.0,0.0,0.0,0.0,0.0,-3.0165,-3.0254,-3.0696,-3.1479,-3.1946,-3.2345,-3.2668,-3.2739,-3.2846,-3.3086,-3.3086,-3.3086,-3.3086,-3.3086,-3.3016,0.0,0.0,0.0,0.0,-3.2704,-3.2618,-3.2511,-3.2237,-3.1909,-3.1616,-3.1246,-3.0729,-3.0008,0.0,0.0,0.0,0.0,0.0,0.0,0.0,0.0,0.0,0.0,0.0,-0.6295,-0.6295,-0.6295,0.0,0.0,0.0,0.0,0.0,0.0,0.0,0.0,0.0,0.0,0.0,0.0,-0.7037,-0.8111,-0.8111,-0.8712,-0.9864,-0.9827,0.0,0.0,0.0,0.0,0.0,0.0,0.0,0.0,0.0,-0.825,0.0,0.0,0.0,0.0,0.0,0.0,0.0,0.0,0.0,0.0,0.0,0.0,0.0,0.0,0.0,0.0,0.0,-1.4991,-1.5047,-1.4914,-1.4893,-1.4662,-1.3703,-1.3469,0.0,-1.2788,-1.2762,-1.2797,-1.2834,-1.3247,-1.3788,-1.4339,0.0,0.0,0.0,0.0,0.0,0.0,0.0,0.0,0.0,0.0,0.0,0.0,0.0,0.0,-2.9341,-2.9341,-2.9535,-2.9922,-3.106,-3.1763,-3.2019,-3.2237,-3.2453,-3.2632,-3.2632,-3.2632,-3.2618,-3.2618,-3.2511,0.0,0.0,0.0,0.0,-3.2055,-3.1932,-3.1723,-3.1579,-3.1209,-3.0784,-3.0418,-2.9644,-2.8687,0.0,0.0,0.0,0.0,0.0,0.0,0.0,0.0,0.0,0.0,0.0,0.0,0.0,0.0,0.0,0.0,0.0,0.0,0.0,0.0,0.0,0.0,0.0,0.0,0.0,-0.6505,-0.7069,-0.8255,-0.8255,-0.9017,-1.048,-1.0067,-0.9817,0.0,0.0,0.0,0.0,0.0,0.0,0.0,-0.7553,-0.7856,0.0,0.0,0.0,0.0,-0.8296,-0.8606,0.0,0.0,0.0,0.0,0.0,0.0,0.0,0.0,-1.0485,-1.0882,-1.1805,0.0,-1.3886,-1.386,-1.3848,-1.3787,0.0,-1.318,-1.2854,-1.2733,0.0,-1.2848,-1.3258,-1.3427,-1.3826,0.0,0.0,0.0,0.0,0.0,0.0,0.0,0.0,0.0,0.0,0.0,0.0,0.0,0.0,0.0,-2.8949,-2.8949,-2.9028,-2.9314,-2.9729,-3.0431,-3.1418,-3.1653,-3.185,-3.2019,-3.2019,-3.1932,-3.1773,-3.1773,-3.1773,0.0,0.0,0.0,-3.1626,-3.1479,-3.1307,-3.1084,-3.0797,-3.0381,-2.9884,-2.9252,-2.8672,-2.8046,0.0,0.0,0.0,0.0,0.0,0.0,0.0,0.0,0.0,0.0,0.0,0.0,0.0,0.0,0.0,0.0,0.0,0.0,0.0,0.0,0.0,0.0,0.0,0.0,0.0,0.0,0.0,-0.8298,-0.8298,-0.9115,0.0,0.0,0.0,0.0,0.0,0.0,0.0,0.0,0.0,0.0,-0.6997,0.0,0.0,0.0,0.0,0.0,-0.7656,-0.7965,0.0,-0.867,-0.8923,-0.9175,0.0,0.0,0.0,0.0,-0.993,-1.0051,-1.0594,-1.1728,-1.277,-1.277,-1.295,-1.3131,-1.3131,0.0,0.0,0.0,0.0,-1.3155,-1.3445,0.0,0.0,0.0,0.0,0.0,0.0,0.0,0.0,0.0,0.0,0.0,0.0,0.0,0.0,0.0,0.0,0.0,-2.8294,-2.8294,-2.8213,-2.8098,-2.8304,-2.9126,-3.062,-3.0923,-3.1134,-3.127,-3.127,-3.1145,-3.0945,-3.0945,-3.0884,0.0,0.0,0.0,-3.0683,-3.057,-3.0239,-2.9833,-2.9656,-2.9164,-2.851,-2.8112,-2.7629,-2.7062,0.0,0.0,0.0,0.0,0.0,0.0,0.0,0.0,0.0,0.0,0.0,0.0,0.0,0.0,0.0,0.0,0.0,0.0,0.0,0.0,0.0,0.0,0.0,0.0,0.0,0.0,0.0,0.0,0.0,0.0,0.0,0.0,-1.0069,0.0,0.0,0.0,0.0,0.0,0.0,0.0,0.0,0.0,0.0,0.0,0.0,0.0,0.0,0.0,0.0,-0.8393,-0.8634,-0.879,-0.933,0.0,0.0,0.0,0.0,0.0,-1.0147,-1.1015,-1.1825,-1.1981,-1.2427,-1.2836,-1.2926,0.0,0.0,0.0,0.0,0.0,0.0,0.0,0.0,0.0,0.0,0.0,0.0,0.0,0.0,0.0,0.0,0.0,0.0,0.0,0.0,0.0,0.0,-2.757,-2.757,-2.757,-2.7366,-2.691,-2.7061,-2.7938,-2.9542,-2.9948,-3.0177,-3.0302,-3.038,-3.0317,-3.0126,-3.005,-2.9897,-2.9757,0.0,0.0,-2.9376,-2.9376,-2.8999,-2.8399,-2.8399,-2.7864,-2.7161,-2.7076,-2.6638,-2.6093,0.0,0.0,0.0,0.0,0.0,0.0,0.0,0.0,0.0,0.0,0.0,0.0,0.0,0.0,0.0,0.0,0.0,0.0,0.0,0.0,0.0,0.0,0.0,0.0,0.0,0.0,0.0,0.0,0.0,0.0,-1.1437,-1.0395,-0.9466,-0.8651,0.0,0.0,0.0,0.0,0.0,0.0,0.0,0.0,0.0,0.0,0.0,0.0,0.0,0.0,0.0,-0.784,-0.8321,-0.879,-0.933,0.0,0.0,0.0,0.0,0.0,-1.0147,-1.075,-1.1435,-1.2342,-1.2987,-1.3505,-1.3939,0.0,0.0,0.0,0.0,0.0,0.0,0.0,0.0,0.0,0.0,0.0,0.0,0.0,0.0,0.0,0.0,0.0,0.0,0.0,0.0,0.0,0.0,0.0,-2.7018,-2.7018,-2.6982,-2.6898,-2.6935,-2.7183,-2.7629,-2.8461,-2.8887,-2.8912,-2.9388,-2.9496,-2.9263,-2.8805,-2.8595,-2.8532,0.0,-2.7866,-2.7829,-2.7829,-2.768,-2.7395,-2.7395,-2.7209,-2.6875,-2.6431,-2.6202,-2.6033,0.0,0.0,0.0,0.0,0.0,0.0,0.0,0.0,0.0,0.0,0.0,0.0,0.0,0.0,0.0,0.0,0.0,0.0,0.0,0.0,0.0,0.0,0.0,0.0,0.0,0.0,0.0,0.0,0.0,-0.9793,-1.1111,-1.0282,-0.9328,-0.8286,0.0,0.0,0.0,0.0,0.0,0.0,0.0,0.0,0.0,0.0,0.0,0.0,0.0,0.0,0.0,0.0,-0.7816,-0.8357,-0.8898,0.0,0.0,0.0,0.0,0.0,-1.051,-1.0918,-1.1512,-1.3155,-1.3529,-1.3638,-1.4168,0.0,0.0,0.0,0.0,0.0,0.0,0.0,0.0,0.0,0.0,0.0,0.0,0.0,0.0,0.0,0.0,0.0,0.0,0.0,0.0,0.0,0.0,0.0,-2.649,-2.649,-2.6309,-2.6033,-2.6021,-2.6082,-2.6191,-2.6895,-2.7458,-2.7865,-2.8073,-2.8093,-2.7914,-2.7671,-2.755,-2.7538,0.0,-2.7161,-2.7161,-2.7161,-2.6954,-2.6614,-2.6614,-2.6371,-2.6021,-2.5769,-2.5673,-2.5636,0.0,0.0,0.0,0.0,0.0,0.0,0.0,0.0,0.0,0.0,0.0,0.0,0.0,0.0,0.0,0.0,0.0,0.0,0.0,0.0,0.0,0.0,0.0,0.0,0.0,0.0,-0.7901,-0.8487,-0.9026,-0.9705,-1.0507,-1.0081,-0.9316,0.0,0.0,0.0,0.0,0.0,-0.65,-0.6499,0.0,0.0,0.0,0.0,0.0,0.0,0.0,0.0,0.0,0.0,0.0,0.0,0.0,0.0,0.0,-0.9462,-0.951,-0.9714,-1.0654,-1.1003,-1.158,-1.3614,-1.3891,-1.3891,-1.4675,0.0,0.0,0.0,0.0,0.0,0.0,0.0,0.0,0.0,0.0,0.0,0.0,0.0,0.0,0.0,0.0,0.0,0.0,0.0,0.0,0.0,0.0,0.0,-2.5913,-2.5913,-2.5721,-2.5324,-2.5312,-2.5312,-2.5312,-2.5709,-2.6251,-2.693,-2.7075,-2.7073,-2.6885,-2.6765,-2.6693,-2.6693,-2.6573,-2.6513,-2.6513,-2.6513,-2.6261,-2.5913,-2.5913,-2.5661,-2.5312,-2.5312,-2.5312,-2.5312,0.0,0.0,0.0,0.0,0.0,0.0,0.0,0.0,0.0,0.0,0.0,0.0,0.0,0.0,0.0,0.0,0.0,0.0,0.0,0.0,0.0,0.0,0.0,0.0,0.0,-0.7926,-0.8499,-0.905,-0.9579,-0.988,-0.9956,-0.9918,-0.9291,-0.8195,0.0,0.0,0.0,0.0,0.0,-0.6499,-0.642,0.0,0.0,0.0,0.0,0.0,0.0,0.0,0.0,0.0,0.0,0.0,0.0,0.0,-0.885,-0.9354,-0.951,-0.963,-1.0195,-1.0726,-1.15,-1.3155,-1.3891,0.0,-1.6113,-1.6463,0.0,-1.7123,0.0,0.0,0.0,0.0,0.0,0.0,0.0,0.0,0.0,0.0,0.0,0.0,0.0,0.0,0.0,0.0,0.0,0.0,0.0,0.0,-2.536,-2.536,-2.5348,-2.5312,-2.5312,-2.5312,-2.5312,-2.5348,-2.5624,-2.6202,-2.6683,-2.6898,-2.6873,-2.6394,-2.6154,-2.6129,-2.5636,-2.5432,-2.5432,-2.5432,-2.5396,-2.536,-2.536,-2.5336,-2.5312,-2.5312,-2.5312,-2.5312,0.0,0.0,0.0,0.0,0.0,0.0,0.0,0.0,0.0,0.0,0.0,0.0,0.0,0.0,0.0,0.0,0.0,0.0,0.0,0.0,0.0,0.0,0.0,-0.6853,-0.7393,-0.7989,-0.8399,-0.8611,-0.9139,-0.9403,-0.939,-0.8676,0.0,0.0,0.0,0.0,0.0,0.0,0.0,-0.6369,-0.6355,-0.6346,0.0,0.0,0.0,0.0,0.0,0.0,0.0,0.0,-0.682,-0.7239,-0.796,-0.8429,-0.8802,-0.9342,-0.951,-0.969,-1.057,-1.0942,-1.1572,-1.3517,-1.4377,0.0,0.0,-1.7111,-1.776,-1.8289,0.0,0.0,0.0,0.0,0.0,0.0,0.0,0.0,0.0,0.0,0.0,0.0,0.0,0.0,0.0,0.0,0.0,0.0,0.0,0.0,0.0,-2.5312,-2.5312,-2.5312,-2.5312,-2.5312,-2.5312,-2.5312,-2.5408,-2.5612,-2.5817,-2.5925,-2.5913,-2.5709,-2.5612,-2.5588,-2.5396,-2.5312,-2.5312,-2.5312,-2.5312,-2.5312,-2.5312,-2.5312,-2.5312,-2.5312,-2.5312,-2.5312,0.0,0.0,0.0,0.0,0.0,0.0,0.0,0.0,0.0,0.0,0.0,0.0,0.0,0.0,0.0,0.0,0.0,0.0,0.0,0.0,0.0,0.0,0.0,-0.6774,-0.7141,-0.7713,-0.8112,-0.8298,-0.8674,-0.8826,-0.8801,0.0,0.0,0.0,0.0,0.0,0.0,0.0,0.0,0.0,-0.6295,-0.6295,0.0,0.0,0.0,0.0,0.0,0.0,0.0,0.0,-0.6535,-0.6941,-0.7479,-0.802,-0.8561,-0.9091,-0.9366,-0.9702,-1.0606,-1.1087,-1.1789,-1.359,0.0,0.0,-1.6607,-1.7688,-1.8602,-1.9131,0.0,0.0,0.0,0.0,0.0,0.0,0.0,0.0,0.0,0.0,0.0,0.0,0.0,0.0,0.0,0.0,0.0,0.0,0.0,0.0,0.0,-2.5059,-2.4987,-2.4831,-2.4819,-2.4819,-2.4819,-2.4819,-2.4819,-2.4819,-2.4987,-2.5155,-2.5312,-2.5312,-2.5312,-2.5312,-2.5312,-2.5312,-2.5312,-2.5312,-2.5312,-2.5312,-2.5312,-2.5312,-2.5312,-2.5312,-2.5312,-2.5312,0.0,0.0,0.0,0.0,0.0,0.0,0.0,0.0,0.0,0.0,0.0,0.0,0.0,0.0,0.0,0.0,0.0,0.0,0.0,0.0,0.0,0.0,0.0,-0.6599,-0.6599,-0.7128,-0.7691,-0.8298,-0.8298,-0.8264,-0.8184,-0.7646,0.0,0.0,0.0,0.0,0.0,0.0,0.0,0.0,-0.6295,-0.6295,-0.6295,0.0,0.0,0.0,0.0,0.0,0.0,0.0,-0.6295,-0.6391,-0.6929,-0.7467,-0.8008,-0.8537,-0.9091,-0.963,-1.0171,-1.1087,-1.2162,0.0,0.0,0.0,-1.7159,-1.8241,-1.9143,0.0,0.0,0.0,0.0,0.0,0.0,0.0,0.0,0.0,0.0,0.0,0.0,0.0,0.0,0.0,0.0,0.0,0.0,0.0,0.0,0.0,0.0,-2.4472,-2.429,-2.3818,-2.3806,-2.3806,-2.3806,-2.3806,-2.3806,-2.3806,-2.4278,-2.4748,-2.53,-2.5312,-2.5312,-2.5312,-2.5312,-2.5312,-2.5312,-2.5312,-2.5312,-2.5312,-2.5312,-2.5312,-2.5312,-2.5312,-2.5312,-2.5312,0.0,0.0,0.0,0.0,0.0,0.0,0.0,0.0,0.0,0.0,0.0,0.0,0.0,0.0,0.0,0.0,0.0,0.0,0.0,0.0,0.0,0.0,0.0,0.0,0.0,0.0,-0.7272,-0.8298,-0.7876,-0.7656,0.0,0.0,0.0,-0.6629,0.0,0.0,0.0,0.0,0.0,0.0,-0.6295,-0.6295,-0.6295,0.0,0.0,0.0,0.0,0.0,0.0,0.0,0.0,0.0,-0.6929,-0.7467,-0.8008,-0.8537,-0.9343,-1.0255,-1.1171,-1.1933,0.0,0.0,0.0,0.0,0.0,-1.9047,0.0,0.0,0.0,0.0,0.0,0.0,0.0,0.0,0.0,0.0,0.0,0.0,0.0,0.0,0.0,0.0,0.0,0.0,0.0,0.0,0.0,0.0,0.0,-2.3989,-2.3929,-2.3806,-2.3806,-2.3806,-2.3806,-2.3806,-2.3806,-2.3806,-2.395,-2.4254,-2.4771,-2.5131,-2.5312,-2.5312,-2.5312,-2.5312,-2.5312,-2.5312,-2.5312,-2.5312,-2.5312,-2.5312,-2.5312,-2.5312,-2.5312,-2.5312,0.0,0.0,0.0,0.0,0.0,0.0,0.0,0.0,0.0,0.0,0.0,-0.3889,0.0,0.0,0.0,0.0,0.0,0.0,0.0,0.0,0.0,0.0,0.0,0.0,0.0,-0.6444,-0.6785,0.0,0.0,0.0,0.0,0.0,0.0,-0.6361,0.0,-0.6298,0.0,0.0,0.0,0.0,-0.6295,-0.6295,-0.6295,0.0,0.0,0.0,0.0,0.0,0.0,0.0,0.0,0.0,-0.6688,-0.7299,-0.7971,-0.8284,-0.9295,-1.0534,-1.162,0.0,0.0,0.0,0.0,0.0,0.0,0.0,0.0,0.0,0.0,0.0,0.0,0.0,0.0,0.0,0.0,0.0,0.0,0.0,0.0,0.0,0.0,0.0,0.0,0.0,0.0,0.0,0.0,0.0,0.0,-2.3493,-2.3396,-2.318,-2.318,-2.318,-2.318,-2.318,-2.318,-2.318,-2.3396,-2.3649,-2.3929,-2.4458,-2.4699,-2.4711,-2.4915,-2.5107,-2.5312,-2.5312,-2.5312,-2.5312,-2.5312,-2.5312,-2.5312,-2.5312,-2.5312,-2.5312,0.0,0.0,-0.2732,-0.2866,0.0,0.0,0.0,0.0,0.0,0.0,-0.3199,-0.3427,0.0,0.0,0.0,-0.5613,0.0,0.0,0.0,0.0,0.0,0.0,0.0,0.0,0.0,0.0,0.0,0.0,0.0,0.0,0.0,0.0,-0.6355,-0.6352,0.0,-0.6358,0.0,0.0,0.0,0.0,-0.6295,-0.6295,-0.6295,-0.6295,0.0,0.0,0.0,0.0,0.0,0.0,0.0,0.0,-0.6295,-0.7001,-0.7828,-0.7887,-0.9043,-1.0531,0.0,0.0,0.0,0.0,0.0,0.0,0.0,0.0,0.0,0.0,0.0,0.0,0.0,0.0,0.0,0.0,0.0,0.0,0.0,0.0,0.0,0.0,0.0,0.0,0.0,0.0,0.0,0.0,0.0,0.0,0.0,-2.2939,-2.269,-2.2209,-2.2197,-2.2197,-2.2197,-2.2197,-2.2197,-2.2197,-2.2678,-2.2939,-2.2963,-2.3541,-2.3806,-2.383,-2.4254,-2.4723,-2.5168,-2.5168,-2.5168,-2.5168,-2.5168,-2.5168,-2.5168,-2.5168,-2.5168,-2.518,0.0,0.0,-0.2659,-0.2798,0.0,0.0,0.0,0.0,-0.3199,-0.3199,-0.3199,-0.3564,-0.4528,-0.4733,0.0,-0.6069,-0.6253,0.0,0.0,0.0,0.0,0.0,0.0,0.0,0.0,0.0,0.0,0.0,0.0,0.0,0.0,0.0,0.0,-0.6766,0.0,-0.6753,0.0,0.0,0.0,-0.6295,-0.6295,-0.6295,-0.6295,-0.6295,-0.6295,0.0,0.0,0.0,0.0,0.0,0.0,0.0,-0.6295,-0.6748,-0.7359,-0.7768,-0.9043,-1.063,0.0,0.0,0.0,0.0,0.0,0.0,0.0,0.0,0.0,0.0,0.0,0.0,0.0,0.0,0.0,0.0,0.0,0.0,0.0,0.0,0.0,0.0,0.0,0.0,0.0,0.0,0.0,0.0,0.0,0.0,-2.239,-2.2366,-2.2306,-2.2197,-2.2197,-2.2197,-2.2197,-2.2197,-2.2197,0.0,-2.2306,-2.2366,-2.239,-2.3372,-2.3806,-2.3806,-2.3914,-2.4035,-2.4131,-2.4131,-2.4131,-2.4131,-2.4131,-2.4131,-2.4131,-2.4131,-2.4131,-2.4191,0.0,0.0,0.0,0.0,0.0,0.0,0.0,0.0,-0.3199,-0.3199,-0.3427,-0.3793,-0.4353,-0.4853,0.0,0.0,-0.6146,-0.6293,0.0,0.0,0.0,0.0,0.0,0.0,0.0,0.0,0.0,0.0,0.0,0.0,0.0,0.0,0.0,-0.7077,0.0,-0.6785,0.0,0.0,-0.6242,-0.6293,-0.6293,-0.6293,-0.6293,-0.6293,-0.6284,-0.6254,-0.6254,0.0,0.0,0.0,0.0,0.0,0.0,0.0,-0.7149,-0.7434,-0.8658,-1.0207,0.0,0.0,0.0,0.0,0.0,0.0,0.0,0.0,0.0,0.0,0.0,0.0,0.0,0.0,0.0,0.0,0.0,0.0,0.0,0.0,0.0,0.0,0.0,0.0,0.0,0.0,0.0,0.0,0.0,-2.2486,-2.2209,-2.2197,-2.2197,-2.2197,-2.2197,-2.2197,-2.2197,-2.2197,-2.2197,-2.2197,-2.2197,-2.2197,-2.2209,-2.2794,-2.318,-2.3421,-2.3421,-2.3565,-2.3806,-2.3806,-2.3806,-2.3806,-2.3806,-2.3806,-2.3806,-2.3806,-2.3806,-2.3842,0.0,0.0,0.0,0.0,0.0,0.0,0.0,0.0,0.0,-0.3343,-0.3805,-0.4172,-0.4251,-0.5,-0.5536,0.0,0.0,0.0,-0.6245,0.0,0.0,0.0,0.0,0.0,0.0,0.0,0.0,0.0,0.0,0.0,0.0,0.0,0.0,-0.7331,0.0,0.0,0.0,0.0,-0.6161,-0.6281,-0.6281,-0.629,-0.629,-0.629,-0.6251,-0.6192,-0.6192,-0.6192,-0.6192,-0.6192,0.0,0.0,0.0,0.0,-0.6965,-0.7049,-0.8095,-0.946,0.0,0.0,0.0,0.0,0.0,0.0,0.0,0.0,0.0,0.0,0.0,0.0,0.0,0.0,0.0,0.0,0.0,0.0,0.0,0.0,0.0,0.0,0.0,0.0,0.0,0.0,0.0,0.0,0.0,-2.2053,-2.2022,-2.2106,-2.2087,-2.1992,-2.1992,-2.2022,-2.2022,-2.2053,-2.2101,-2.2197,-2.2197,-2.2197,-2.2197,-2.2197,-2.2426,-2.2847,-2.2847,-2.3119,-2.3529,-2.3529,-2.3529,-2.3529,-2.3529,-2.3529,-2.3529,-2.3529,-2.3529,-2.3541,0.0,0.0,0.0,0.0,0.0,0.0,0.0,0.0,0.0,0.0,-0.4353,-0.4841,-0.5257,-0.5417,-0.5684,-0.6156,-0.6263,-0.6227,0.0,0.0,0.0,0.0,0.0,0.0,0.0,0.0,0.0,0.0,0.0,0.0,0.0,0.0,0.0,-0.7536,0.0,0.0,0.0,0.0,-0.6098,-0.6212,-0.6212,-0.6251,-0.629,-0.623,-0.6212,-0.6192,-0.6192,-0.6192,-0.6192,-0.6192,-0.6192,0.0,0.0,0.0,0.0,0.0,-0.7493,-0.8347,0.0,0.0,0.0,0.0,0.0,0.0,0.0,0.0,0.0,0.0,0.0,0.0,0.0,0.0,0.0,0.0,0.0,0.0,0.0,0.0,0.0,0.0,0.0,0.0,0.0,0.0,0.0,0.0,-2.1512,-2.144,-2.1259,-2.1687,-2.168,-2.1096,-2.1187,-2.1277,-2.1338,-2.144,-2.174,-2.2197,-2.2197,-2.2197,-2.2197,-2.2197,-2.2234,-2.2294,-2.2294,-2.2342,-2.2402,-2.2402,-2.2402,-2.2402,-2.2402,-2.2402,-2.2402,-2.2402,-2.2402,-2.2474,0.0,0.0,0.0,0.0,0.0,0.0,0.0,0.0,0.0,0.0,0.0,-0.5264,-0.5476,-0.5767,-0.602,-0.6177,-0.6155,0.0,0.0,0.0,0.0,0.0,0.0,0.0,0.0,0.0,0.0,0.0,0.0,0.0,0.0,-0.7054,-0.7515,0.0,0.0,0.0,0.0,0.0,-0.6142,-0.6112,-0.6377,-0.6494,-0.6552,-0.6745,-0.6795,-0.6729,-0.6458,-0.6415,-0.6437,-0.617,-0.6084,-0.6081,-0.6081,0.0,0.0,0.0,0.0,0.0,0.0,0.0,0.0,0.0,0.0,0.0,0.0,0.0,0.0,0.0,0.0,0.0,0.0,0.0,0.0,0.0,0.0,0.0,0.0,0.0,0.0,0.0,0.0,0.0,0.0,0.0,0.0,0.0,-2.0724,-2.0695,-2.0594,-2.0819,-2.0801,-2.0505,-2.0565,-2.0594,-2.0653,-2.0695,-2.0843,-2.1069,-2.1354,-2.1485,-2.1497,-2.1775,-2.2011,-2.2197,-2.2197,-2.2197,-2.2197,-2.2197,-2.2197,-2.2197,-2.2197,-2.2197,-2.2197,-2.2197,-2.2197,-2.2221,0.0,0.0,0.0,0.0,0.0,0.0,0.0,0.0,0.0,0.0,0.0,-0.5671,-0.5655,0.0,0.0,0.0,-0.5988,0.0,0.0,0.0,0.0,0.0,0.0,0.0,0.0,0.0,0.0,0.0,0.0,0.0,-0.6414,-0.7067,-0.7605,0.0,-0.7605,0.0,0.0,0.0,0.0,-0.632,-0.6747,-0.6947,-0.6992,-0.7383,-0.751,-0.741,-0.6955,0.0,0.0,0.0,0.0,0.0,0.0,0.0,0.0,0.0,0.0,0.0,0.0,0.0,0.0,0.0,0.0,0.0,0.0,0.0,0.0,0.0,0.0,0.0,0.0,0.0,0.0,0.0,0.0,0.0,0.0,0.0,0.0,0.0,0.0,0.0,0.0,0.0,0.0,0.0,-2.0016,-1.9976,-1.9906,-2.0047,-2.0059,-1.986,-1.9889,-1.9918,-1.9906,-2.0105,-2.0205,-2.0217,-2.0552,-2.0729,-2.0741,-2.1252,-2.1642,-2.187,-2.2063,-2.2123,-2.2123,-2.2185,-2.2197,-2.2197,-2.2197,-2.2197,-2.2197,-2.2197,-2.2197,-2.2197,0.0,0.0,0.0,0.0,0.0,0.0,0.0,0.0,0.0,0.0,0.0,-0.6139,-0.6079,-0.6093,-0.6059,-0.5929,-0.5847,0.0,0.0,0.0,0.0,0.0,0.0,0.0,0.0,0.0,0.0,0.0,0.0,0.0,-0.6406,-0.6443,-0.6911,-0.7725,-0.7758,-0.7596,-0.7265,0.0,0.0,-0.7073,-0.7412,-0.7593,-0.7685,-0.8035,-0.8199,-0.8182,0.0,0.0,0.0,0.0,0.0,0.0,0.0,0.0,0.0,0.0,0.0,0.0,0.0,0.0,0.0,0.0,0.0,0.0,0.0,0.0,0.0,0.0,0.0,0.0,0.0,0.0,0.0,0.0,0.0,0.0,0.0,0.0,0.0,0.0,0.0,0.0,0.0,0.0,0.0,0.0,-1.9446,-1.935,-1.9162,-1.9651,-1.9622,-1.8982,-1.9084,-1.9169,-1.9162,-1.9859,-2.0205,-2.0205,-2.0229,-2.024,-2.0264,-2.0729,-2.0953,-2.1018,-2.1649,-2.1937,-2.1925,-2.2123,-2.2197,-2.2197,-2.2197,-2.2197,-2.2197,-2.2197,-2.2197,-2.2197,0.0,0.0,0.0,0.0,0.0,0.0,0.0,0.0,0.0,0.0,0.0,0.0,0.0,-0.5941,-0.5858,-0.5726,-0.5567,0.0,0.0,0.0,0.0,0.0,0.0,0.0,0.0,0.0,0.0,0.0,0.0,-0.5703,-0.6037,-0.6807,-0.7197,-0.7269,-0.7598,-0.7551,-0.723,-0.7109,0.0,0.0,-0.7541,-0.7966,-0.8283,-0.8868,-0.9317,-0.9554,0.0,0.0,0.0,0.0,0.0,0.0,0.0,-0.6325,-0.6278,-0.6059,0.0,0.0,0.0,0.0,0.0,0.0,0.0,0.0,0.0,0.0,0.0,0.0,0.0,0.0,0.0,0.0,0.0,0.0,0.0,0.0,0.0,0.0,0.0,0.0,0.0,0.0,0.0,0.0,0.0,0.0,0.0,-1.8525,-1.8458,-1.8642,-1.8626,-1.8387,-1.8442,-1.8469,-1.8458,-1.8737,-1.8858,-1.8858,-1.9194,-1.9373,-1.9384,-1.9889,-2.012,-2.0162,-2.0456,-2.1075,-2.1781,-2.1855,-2.1886,-2.1886,-2.1968,-2.1999,-2.203,-2.2154,-2.2197,-2.2197,0.0,0.0,0.0,-0.5214,0.0,-0.5472,-0.5575,-0.5669,-0.5763,-0.5832,0.0,0.0,0.0,0.0,-0.5642,-0.551,-0.5358,-0.5243,-0.5176,0.0,0.0,0.0,0.0,0.0,0.0,0.0,0.0,0.0,0.0,0.0,0.0,-0.6584,-0.6899,-0.6774,-0.709,-0.7267,0.0,0.0,0.0,-0.7293,0.0,0.0,-0.9099,0.0,-1.0254,0.0,0.0,0.0,0.0,0.0,0.0,0.0,0.0,-0.6651,-0.6358,-0.6002,-0.6109,0.0,0.0,0.0,0.0,0.0,0.0,0.0,0.0,0.0,0.0,0.0,0.0,0.0,0.0,0.0,0.0,0.0,0.0,0.0,0.0,0.0,0.0,0.0,0.0,0.0,0.0,0.0,0.0,0.0,0.0,0.0,-1.8084,-1.7951,-1.7939,-1.8111,-1.8084,-1.8084,-1.8084,-1.8084,-1.8084,-1.8096,-1.8455,-1.8644,-1.8655,-1.9137,-1.9377,-1.9377,-1.9538,-2.0135,-2.1058,-2.1326,-2.1366,-2.1304,-2.1678,-2.18,-2.1769,-2.1968,-2.2042,-2.2042,-0.4802,-0.4853,-0.4942,-0.5069,-0.5098,-0.5166,-0.5359,-0.5387,-0.5415,-0.5483,0.0,0.0,0.0,0.0,0.0,-0.5301,-0.5234,-0.5166,-0.5098,-0.5098,0.0,0.0,0.0,0.0,0.0,0.0,0.0,0.0,0.0,0.0,0.0,0.0,-0.5902,-0.6273,-0.6292,-0.6754,-0.755,0.0,-0.7849,-0.8325,0.0,-0.9323,-1.0146,0.0,0.0,0.0,-1.0858,-1.0905,0.0,0.0,0.0,0.0,0.0,-0.6965,-0.6233,-0.5851,-0.5693,0.0,0.0,0.0,0.0,0.0,0.0,0.0,0.0,0.0,0.0,0.0,0.0,0.0,0.0,0.0,0.0,0.0,0.0,0.0,0.0,0.0,0.0,0.0,0.0,0.0,0.0,0.0,0.0,0.0,-1.7607,-1.7576,-1.8043,-1.7622,-1.7588,-1.8027,-1.8077,-1.8077,-1.8077,-1.8061,-1.8061,-1.8061,-1.8084,-1.8084,-1.8107,-1.847,-1.864,-1.8663,-1.8873,-1.9182,-1.9672,-2.0491,-2.064,-2.0431,-2.1284,-2.1502,-2.1353,-2.16,-2.1686,-2.1675,-0.4802,-0.4853,-0.4912,-0.4952,-0.5039,-0.5127,-0.5176,-0.5185,-0.5214,0.0,0.0,0.0,-0.5282,-0.5233,-0.5195,-0.5156,-0.5137,-0.5127,-0.5098,-0.5098,-0.5098,-0.5098,-0.5098,0.0,0.0,0.0,0.0,0.0,0.0,0.0,0.0,0.0,0.0,0.0,-0.5975,-0.6212,-0.6479,-0.6912,0.0,0.0,-0.8517,-0.9329,0.0,0.0,0.0,0.0,0.0,-1.1527,-1.1598,0.0,-1.006,-0.9574,0.0,0.0,0.0,-0.6514,-0.6483,0.0,-0.6513,0.0,0.0,0.0,0.0,0.0,0.0,0.0,0.0,0.0,0.0,0.0,0.0,0.0,0.0,0.0,0.0,0.0,0.0,0.0,0.0,0.0,0.0,0.0,0.0,0.0,0.0,0.0,-1.6681,-1.6723,-1.686,-1.6848,-1.6873,-1.7011,-1.7011,-1.7011,-1.7011,-1.7284,-1.7452,-1.7452,-1.7614,-1.7673,-1.7673,-1.764,-1.7555,-1.747,-1.7516,-1.7524,-1.7561,-1.8855,-1.9331,-1.9282,-1.9629,-1.9784,-1.9897,-2.0561,-2.0896,-2.1058,-0.4802,-0.4833,-0.4863,-0.4863,-0.4921,-0.497,-0.497,-0.499,-0.503,0.0,0.0,0.0,-0.5108,-0.5088,-0.5059,-0.5059,-0.5059,-0.5059,-0.5059,-0.5059,-0.5059,-0.5059,-0.5059,-0.5059,0.0,0.0,0.0,0.0,0.0,0.0,0.0,0.0,0.0,0.0,-0.5415,-0.5595,-0.5789,-0.6302,0.0,0.0,-0.8333,0.0,0.0,-1.0766,-1.1454,0.0,0.0,0.0,-1.2007,-1.1299,-1.0636,0.0,0.0,-0.7759,-0.7265,-0.717,-0.711,0.0,0.0,0.0,0.0,0.0,0.0,0.0,0.0,0.0,0.0,0.0,0.0,0.0,0.0,0.0,0.0,0.0,0.0,0.0,0.0,0.0,0.0,0.0,0.0,0.0,0.0,-1.5953,-1.6041,-1.6092,-1.6056,-1.602,-1.602,-1.6298,-1.6498,-1.6512,-1.6512,-1.6548,-1.6598,-1.6769,-1.6839,-1.6825,-1.7017,-1.7049,-1.6994,-1.6952,-1.687,-1.6691,-1.6578,-1.6389,-1.6241,-1.704,-1.7624,-1.8036,-1.8509,-1.8665,-1.8687,-1.9409,-1.9715,-1.9882,0.0,-0.4802,-0.4802,-0.4802,-0.4802,-0.4802,-0.4802,-0.4853,-0.4911,0.0,-0.5044,-0.5112,-0.5112,-0.5075,-0.5056,-0.5056,-0.5019,-0.5,-0.5,-0.5,-0.5,-0.5,-0.5,-0.5,-0.5,0.0,0.0,0.0,0.0,0.0,0.0,0.0,0.0,-0.4802,-0.4802,-0.4994,-0.536,-0.5814,0.0,-0.7214,-0.8177,-0.929,0.0,0.0,-1.143,0.0,-1.2101,-1.2175,-1.2218,-1.1751,-1.0894,0.0,0.0,-0.8581,-0.8162,-0.7875,-0.7711,0.0,-0.7622,-0.7583,0.0,0.0,0.0,0.0,-0.83,-0.8651,0.0,0.0,0.0,0.0,0.0,0.0,0.0,0.0,0.0,0.0,0.0,0.0,0.0,0.0,0.0,0.0,-1.5386,-1.5524,-1.5662,-1.5799,-1.5515,-1.5332,-1.5344,-1.5818,-1.6092,-1.6156,-1.6167,-1.6241,-1.6352,-1.6273,-1.6207,-1.6118,-1.626,-1.6251,-1.6117,-1.6304,-1.6278,-1.6097,-1.5911,-1.571,-1.5507,-1.5391,-1.5851,-1.6727,-1.762,-1.7827,-1.7655,-1.8144,-1.8348,-1.8449,-0.4802,-0.4802,-0.4802,-0.4802,-0.4802,-0.4802,-0.4802,-0.4812,-0.4942,-0.5254,-0.5602,-0.5813,-0.5813,-0.5565,-0.5394,-0.5394,-0.5158,-0.5,-0.5,-0.5,-0.5,-0.5,-0.5,-0.5,-0.5,-0.5,0.0,0.0,0.0,0.0,0.0,0.0,0.0,-0.4802,-0.4802,-0.4839,-0.4967,-0.5693,0.0,-0.6849,-0.837,0.0,-1.0837,-1.1228,-1.1687,-1.2101,-1.2101,-1.2126,-1.2095,0.0,-1.1172,-1.0622,0.0,0.0,0.0,-0.8979,0.0,-0.846,-0.8401,-0.8374,-0.8358,-0.8309,0.0,0.0,0.0,-0.8849,0.0,0.0,0.0,0.0,0.0,0.0,0.0,0.0,0.0,0.0,0.0,0.0,0.0,0.0,0.0,0.0,-1.3524,-1.365,-1.382,-1.4073,-1.4225,-1.4337,-1.4457,-1.4544,-1.4622,-1.4635,-1.4717,-1.4799,-1.4822,-1.5064,-1.5126,-1.5003,-1.5101,-1.5058,-1.4936,-1.5094,-1.5071,-1.495,-1.5225,-1.5264,-1.5117,-1.5088,-1.5303,-1.5693,-1.589,-1.6096,-1.6341,-1.6975,-1.7348,-1.7658,-0.4802,-0.4802,-0.4802,-0.4802,-0.4802,-0.4866,-0.5068,-0.5105,-0.5251,-0.5641,-0.6051,-0.6224,-0.602,-0.603,-0.5972,-0.577,-0.5591,-0.5421,-0.5208,-0.5199,-0.5106,-0.4911,-0.4901,-0.4901,-0.4901,-0.4901,-0.4892,0.0,0.0,0.0,0.0,-0.4802,0.0,0.0,-0.4802,-0.4912,-0.5141,0.0,-0.6457,-0.729,-0.8361,0.0,-1.0631,-1.1044,-1.1577,-1.2101,-1.2101,-1.2101,-1.2073,-1.1871,-1.1531,0.0,0.0,-1.0539,-1.0049,0.0,-0.9952,-0.9794,0.0,0.0,-0.9392,-0.9161,0.0,0.0,0.0,0.0,0.0,0.0,0.0,0.0,0.0,0.0,0.0,0.0,0.0,0.0,0.0,0.0,0.0,0.0,0.0,0.0,-1.292,-1.3035,-1.3242,-1.3563,-1.3668,-1.3739,-1.38,-1.38,-1.3836,-1.3894,-1.4022,-1.414,-1.4199,-1.4305,-1.4267,-1.4146,-1.4226,-1.4192,-1.4072,-1.4214,-1.4226,-1.408,-1.4478,-1.4571,-1.4465,-1.468,-1.4823,-1.4961,-1.5137,-1.5245,-1.5352,-1.5871,-1.6127,-1.6324,-0.4793,-0.4802,-0.4802,-0.4802,-0.4802,-0.493,-0.5333,-0.5397,-0.5598,-0.616,-0.6579,-0.6734,-0.6497,-0.6689,-0.6698,-0.6353,-0.6189,-0.595,0.0,0.0,0.0,-0.491,-0.4829,-0.4802,-0.4802,-0.4802,-0.4802,0.0,0.0,0.0,-0.4802,-0.4802,-0.4802,-0.4802,0.0,0.0,0.0,0.0,0.0,-0.7837,0.0,-0.9271,-1.0478,-1.0956,-1.1531,-1.2101,-1.2101,-1.2101,-1.2101,-1.2101,0.0,-1.1623,-1.1623,-1.1338,0.0,0.0,0.0,0.0,0.0,0.0,0.0,0.0,0.0,-0.9225,0.0,0.0,0.0,-0.9142,0.0,0.0,0.0,0.0,0.0,0.0,0.0,0.0,0.0,0.0,0.0,0.0,0.0,0.0,0.0,-1.2645,-1.2849,-1.3164,-1.3165,-1.3145,-1.3145,-1.3226,-1.33,-1.343,-1.3559,-1.3692,-1.38,-1.3692,-1.3559,-1.344,-1.3462,-1.3414,-1.3272,-1.3487,-1.349,-1.3357,-1.3765,-1.3885,-1.3828,-1.4222,-1.4387,-1.4425,-1.4765,-1.4823,-1.4745,-1.5,-1.5127,-1.5186,-0.4764,-0.4802,-0.4802,-0.4802,-0.4802,-0.493,-0.5333,-0.5397,-0.5799,-0.6913,-0.7409,-0.7808,0.0,0.0,0.0,0.0,0.0,0.0,-0.63,0.0,0.0,-0.5252,-0.4963,-0.4802,-0.4802,-0.4802,-0.4802,0.0,0.0,0.0,0.0,-0.4802,-0.4802,-0.4812,-0.5178,0.0,0.0,0.0,-0.7026,0.0,-0.8315,-0.9437,0.0,-1.1669,-1.2018,-1.2101,-1.2101,-1.2101,-1.2101,0.0,-1.2073,-1.2036,0.0,-1.1761,0.0,0.0,0.0,0.0,0.0,0.0,0.0,0.0,-1.019,0.0,0.0,0.0,-0.9574,-0.962,0.0,0.0,0.0,0.0,0.0,0.0,0.0,0.0,0.0,0.0,0.0,0.0,0.0,0.0,0.0,-1.1519,-1.1697,-1.1741,-1.2047,-1.2252,-1.2252,-1.2584,-1.2798,-1.2798,-1.292,-1.3017,-1.3017,-1.3017,-1.292,-1.2798,-1.27,-1.2571,-1.2457,-1.2707,-1.2815,-1.2816,-1.3213,-1.3387,-1.3387,-1.3791,-1.3956,-1.4021,-1.4398,-1.4616,-1.4715,-1.4745,-1.4872,-1.5039,-0.4595,-0.4724,-0.4802,-0.4802,-0.4802,-0.5012,-0.565,-0.6343,-0.6971,-0.7473,-0.8135,0.0,0.0,0.0,0.0,0.0,0.0,-0.7451,0.0,0.0,0.0,-0.561,-0.5456,-0.5285,-0.5094,-0.5085,0.0,0.0,-0.4802,0.0,0.0,0.0,-0.4921,-0.5159,-0.5324,0.0,-0.6465,0.0,0.0,0.0,0.0,0.0,0.0,-1.1288,-1.1687,-1.2101,-1.2101,-1.2101,-1.2101,0.0,-1.2101,0.0,0.0,0.0,0.0,0.0,0.0,0.0,0.0,0.0,0.0,0.0,0.0,0.0,-0.985,0.0,-0.9703,0.0,0.0,0.0,0.0,0.0,0.0,0.0,0.0,0.0,0.0,0.0,0.0,0.0,0.0,0.0,0.0,0.0,0.0,0.0,-1.1677,-1.1878,-1.1878,-1.2253,-1.248,-1.248,-1.2603,-1.2686,-1.2686,-1.2686,-1.2627,-1.2578,-1.2455,-1.2348,-1.2308,-1.2351,-1.2349,-1.2367,-1.2781,-1.2955,-1.2983,-1.3396,-1.3543,-1.3561,-1.3736,-1.4113,-1.4586,-1.4586,-1.4654,-1.4714,-0.4356,0.0,0.0,0.0,-0.4802,-0.5112,-0.602,-0.7084,-0.785,-0.8068,0.0,0.0,-0.912,-0.9475,0.0,0.0,0.0,-0.8362,0.0,0.0,-0.6684,-0.6038,-0.5935,0.0,0.0,0.0,0.0,-0.4936,-0.4847,-0.4802,0.0,0.0,-0.5022,-0.5406,0.0,-0.6261,-0.7193,0.0,0.0,-0.9212,-0.9903,-1.0507,-1.1026,-1.1173,-1.1586,-1.2101,-1.2101,-1.2101,-1.2101,-1.2101,-1.2101,0.0,-1.2101,0.0,0.0,0.0,0.0,0.0,-1.2051,0.0,0.0,0.0,0.0,0.0,0.0,0.0,0.0,0.0,0.0,0.0,0.0,0.0,0.0,0.0,0.0,0.0,0.0,0.0,0.0,0.0,0.0,0.0,0.0,0.0,0.0,0.0,0.0,-1.1245,-1.1468,-1.1868,-1.2137,-1.2249,-1.2348,-1.2397,-1.2397,-1.2397,-1.2397,-1.2382,-1.2298,-1.2258,-1.2249,-1.215,-1.2101,-1.2119,-1.2404,-1.2533,-1.256,-1.2983,-1.3148,-1.3157,-1.325,-1.3727,-1.4341,-1.4341,-1.4414,-1.4515,-0.4089,-0.4431,0.0,0.0,0.0,-0.5203,-0.6397,-0.7218,-0.7981,0.0,0.0,0.0,0.0,0.0,0.0,0.0,0.0,-0.8874,-0.8403,0.0,-0.7128,0.0,0.0,-0.5957,0.0,0.0,-0.5229,-0.5285,-0.4963,-0.4802,0.0,0.0,0.0,0.0,0.0,-0.677,-0.7182,-0.8351,-0.9023,-0.9332,-0.975,-1.0459,-1.1342,0.0,-1.2082,-1.2101,-1.2101,0.0,0.0,-1.2101,-1.2101,0.0,0.0,0.0,0.0,0.0,0.0,0.0,0.0,0.0,0.0,-1.0899,0.0,0.0,0.0,0.0,-0.9703,0.0,0.0,0.0,0.0,0.0,-0.8958,-0.8562,0.0,0.0,0.0,0.0,0.0,0.0,0.0,0.0,0.0,0.0,0.0,0.0,0.0,0.0,-1.0883,-1.1301,-1.1706,-1.2082,-1.2101,-1.2101,-1.2101,-1.2101,-1.2101,-1.2101,-1.2101,-1.2101,-1.2101,-1.2101,-1.2101,-1.2101,-1.2119,-1.2119,-1.2147,-1.2542,-1.2707,-1.2753,-1.314,-1.3543,-1.3929,-1.3929,-1.4157,-1.4515,0.0,0.0,0.0,0.0,0.0,-0.5468,-0.6684,-0.7875,-0.8728,0.0,0.0,0.0,0.0,0.0,-0.9955,0.0,0.0,-0.9097,-0.876,-0.8323,0.0,0.0,0.0,-0.6956,0.0,0.0,-0.5835,-0.5503,-0.5159,0.0,0.0,0.0,0.0,0.0,0.0,-0.7143,0.0,0.0,0.0,0.0,0.0,-1.1092,-1.1722,0.0,0.0,-1.2101,-1.2101,-1.2101,0.0,-1.2002,-1.1977,-1.1952,-1.1852,-1.1852,-1.1852,-1.1852,-1.1852,0.0,0.0,0.0,-1.1644,-1.1101,0.0,0.0,0.0,0.0,0.0,0.0,0.0,0.0,0.0,0.0,-0.8867,-0.8545,-0.8107,0.0,0.0,0.0,0.0,0.0,0.0,0.0,0.0,0.0,0.0,0.0,-0.9317,0.0,0.0,-1.0998,-1.1568,-1.1706,-1.1963,-1.2101,-1.2101,-1.2101,-1.2101,-1.2101,-1.2101,-1.2101,-1.2101,-1.2101,-1.2101,-1.2101,-1.2101,-1.2101,-1.211,-1.2248,-1.2303,-1.2312,-1.2459,-1.2753,-1.3167,-1.3709,-1.4148,-1.4515,-0.4572,0.0,0.0,0.0,0.0,0.0,0.0,0.0,0.0,0.0,-0.9547,0.0,-0.9873,0.0,-0.964,0.0,-0.942,-0.9133,-0.8846,-0.8664,0.0,-0.7758,-0.7728,0.0,0.0,0.0,-0.6142,-0.5773,0.0,-0.4882,0.0,0.0,0.0,0.0,0.0,0.0,0.0,0.0,-0.9794,0.0,0.0,-1.1382,0.0,0.0,-1.1927,-1.2101,0.0,-1.2076,-1.2026,-1.1927,-1.1877,-1.1794,-1.1728,-1.1703,-1.1703,-1.1703,-1.1703,-1.1703,-1.1653,-1.1594,0.0,-1.1055,-1.0719,0.0,-1.0158,0.0,0.0,0.0,0.0,0.0,0.0,0.0,0.0,-0.8493,-0.8176,-0.7741,0.0,0.0,0.0,0.0,0.0,0.0,0.0,0.0,-0.7931,-0.8225,-0.8738,0.0,0.0,0.0,-1.121,-1.1504,-1.1899,-1.2101,-1.2101,-1.2101,-1.2101,-1.2101,-1.2101,-1.2101,-1.2101,-1.2101,-1.2101,-1.2101,-1.2101,-1.2101,-1.2101,-1.2101,-1.2101,-1.2101,-1.2101,-1.234,-1.2772,-1.3451,-1.4029,-1.4515,0.0,0.0,0.0,0.0,-0.6127,0.0,0.0,0.0,-0.8832,0.0,-0.9492,-0.9395,-0.913,-0.9277,-0.9299,-0.9029,-0.9108,0.0,-0.8709,-0.8813,0.0,0.0,-0.783,-0.7587,-0.707,0.0,0.0,0.0,0.0,0.0,0.0,0.0,0.0,0.0,-0.6175,0.0,-0.8087,-0.9212,-0.9864,-1.0211,-1.0985,-1.1251,-1.1251,-1.1251,-1.1578,-1.2026,-1.2051,-1.1977,-1.1877,-1.1852,-1.1778,-1.1669,-1.1669,-1.1669,-1.1669,-1.1678,-1.1678,-1.1653,-1.1519,-1.1377,-1.119,-1.0791,-1.0568,0.0,0.0,0.0,-1.0047,0.0,0.0,0.0,0.0,0.0,0.0,-0.8415,-0.8289,-0.7858,0.0,0.0,0.0,0.0,0.0,0.0,0.0,0.0,-0.6935,-0.7691,-0.7782,0.0,0.0,0.0,-1.064,-1.1425,-1.1862,-1.2082,-1.2101,-1.2101,-1.2101,-1.2101,-1.2101,-1.2101,-1.2101,-1.2101,-1.2101,-1.2101,-1.2101,-1.2101,-1.2101,-1.2101,-1.2101,-1.2101,-1.2101,-1.234,-1.2744,-1.3158,-1.3827,-1.4515,-0.5135,-0.5501,-0.5903,0.0,-0.6749,-0.7299,0.0,0.0,0.0,0.0,-0.9409,-0.9508,-0.9328,-0.9355,-0.9281,-0.9014,-0.8927,0.0,0.0,0.0,0.0,-0.8174,-0.8178,-0.8027,-0.7757,-0.7161,0.0,-0.6254,0.0,0.0,-0.4349,0.0,0.0,0.0,0.0,0.0,-0.8412,-0.9221,-0.9993,-1.0706,-1.0822,-1.0761,0.0,0.0,-1.0778,-1.1032,-1.1368,-1.1477,-1.1452,-1.1352,-1.1276,-1.1242,-1.1242,-1.1242,-1.1267,-1.1368,-1.1318,-1.1251,-1.1217,-1.1023,-1.0804,-1.0612,-1.0236,-0.9882,0.0,0.0,0.0,0.0,0.0,0.0,0.0,0.0,0.0,0.0,0.0,0.0,0.0,0.0,0.0,0.0,0.0,0.0,0.0,-0.6876,-0.7004,-0.6908,-0.7463,0.0,0.0,0.0,0.0,-1.1039,-1.1448,-1.1807,-1.2101,-1.2101,-1.2101,-1.2101,-1.2101,-1.2101,-1.2101,-1.2101,-1.2101,-1.2101,-1.2101,-1.2101,-1.2101,-1.2101,-1.2101,-1.2101,-1.2101,-1.234,-1.2772,-1.3497,-1.4066,-1.4515,-0.552,0.0,0.0,-0.6767,0.0,0.0,-0.7894,0.0,0.0,-0.9127,-0.9214,0.0,-0.9236,-0.9141,-0.9034,-0.8877,-0.8887,0.0,0.0,0.0,0.0,-0.8435,-0.8313,-0.8139,-0.7866,-0.7325,0.0,-0.6339,0.0,0.0,-0.4276,0.0,0.0,0.0,0.0,-0.6437,0.0,-0.9123,-0.9997,-1.0693,-1.0429,0.0,0.0,-0.9906,-0.9906,-1.001,-1.0293,-1.06,-1.0888,-1.0753,-1.0702,-1.071,-1.071,-1.0769,-1.0845,-1.0922,-1.0896,-1.082,-1.0744,-1.0565,-1.036,-1.0146,-0.9847,-0.9552,-0.9444,-0.9286,-0.9161,0.0,-0.9115,-0.9054,0.0,0.0,0.0,0.0,0.0,0.0,0.0,0.0,0.0,0.0,0.0,0.0,-0.6229,-0.6457,-0.6543,-0.6352,-0.6917,0.0,0.0,0.0,0.0,-1.0616,-1.12,-1.1697,-1.2101,-1.2101,-1.2101,-1.2101,-1.2101,-1.2101,-1.2101,-1.2101,-1.2101,-1.2101,-1.2101,-1.2101,-1.2101,-1.2101,-1.2101,-1.2101,-1.2101,-1.234,-1.2744,-1.3203,-1.3727,-1.4268,0.0,0.0,0.0,0.0,0.0,0.0,0.0,-0.8421,0.0,-0.9142,0.0,-0.8906,-0.8999,-0.8877,-0.88,-0.8764,0.0,-0.9011,-0.8974,-0.8858,-0.8727,-0.8621,-0.8366,-0.808,-0.7787,-0.7288,0.0,0.0,0.0,0.0,-0.4402,0.0,0.0,0.0,0.0,0.0,0.0,-0.8925,-0.9827,-1.0308,-0.9899,-0.9607,-0.9432,-0.9204,-0.9133,-0.9106,-0.9106,-0.9603,-1.0223,-1.0097,-1.0079,-1.0095,-1.012,-1.0249,-1.0411,-1.0437,-1.0411,-1.036,-1.0172,-1.0017,-0.9844,-0.9562,-0.938,-0.9256,-0.9133,-0.9106,-0.9106,-0.9106,-0.8866,-0.8748,0.0,0.0,0.0,0.0,0.0,0.0,0.0,0.0,0.0,0.0,0.0,0.0,0.0,-0.5866,-0.597,-0.5929,-0.6297,0.0,0.0,0.0,0.0,-1.0263,-1.1026,-1.1651,-1.2101,-1.2101,-1.2101,-1.2101,-1.2101,-1.2101,-1.2101,-1.2101,-1.2101,-1.2101,-1.2101,-1.2101,-1.2101,-1.2101,-1.2101,-1.2101,-1.2101,-1.2312,-1.2625,-1.267,-1.3176,-1.3892,0.0,0.0,0.0,0.0,0.0,-0.8182,-0.8242,-0.8555,-0.8839,-0.9,-0.9193,-0.9235,-0.909,-0.9233,-0.9281,-0.9047,-0.9059,0.0,0.0,0.0,0.0,-0.8696,-0.8413,-0.8257,-0.8208,-0.7516,-0.7022,0.0,-0.5664,-0.4908,-0.4478,0.0,0.0,0.0,0.0,0.0,-0.8175,-0.8708,0.0,-0.9569,-0.9394,-0.9099,-0.8784,-0.8732,-0.8705,-0.8679,-0.858,-0.8923,-0.942,-0.9387,-0.9439,-0.9569,-0.9666,-0.9795,-0.995,-1.0053,-0.9994,-0.9899,-0.9744,-0.9517,-0.9283,-0.9014,-0.883,-0.8705,-0.858,-0.8527,-0.8527,-0.8527,-0.8587,-0.8586,-0.8454,0.0,0.0,0.0,0.0,0.0,0.0,0.0,0.0,0.0,0.0,0.0,0.0,0.0,-0.6143,-0.5554,0.0,0.0,0.0,0.0,0.0,0.0,-1.0772,0.0,0.0,0.0,-1.2101,-1.2101,-1.2101,-1.2101,-1.2101,-1.2101,-1.2101,-1.2101,-1.2101,-1.2101,-1.2101,-1.2101,-1.2101,-1.2101,-1.2101,-1.2147,-1.2248,-1.2569,-1.3001,-1.3451,0.0,0.0,0.0,0.0,0.0,0.0,0.0,-0.8863,0.0,-0.904,-0.9181,-0.9254,-0.93,-0.9438,-0.9462,-0.9324,-0.9312,-0.9263,-0.9131,-0.8987,-0.8909,-0.8909,-0.8656,0.0,-0.8291,-0.7808,-0.7303,-0.6805,-0.5869,-0.5151,-0.4645,-0.4107,-0.4136,-0.4707,0.0,-0.6787,0.0,0.0,0.0,-0.9066,-0.8863,-0.8633,-0.8374,-0.8262,-0.8242,-0.8235,-0.8162,-0.8321,-0.856,-0.8712,-0.8863,-0.8995,-0.9066,-0.9178,-0.9283,-0.9361,-0.9335,-0.9263,-0.9119,-0.8995,-0.8811,-0.8553,-0.8448,-0.8342,-0.8189,-0.8135,-0.8135,-0.8135,-0.8189,-0.8207,-0.8107,-0.8147,0.0,0.0,0.0,0.0,0.0,0.0,0.0,0.0,0.0,0.0,0.0,0.0,0.0,0.0,0.0,0.0,0.0,0.0,0.0,0.0,0.0,0.0,-1.1788,0.0,-1.2101,-1.2101,-1.2101,-1.2101,-1.2101,-1.2101,-1.2101,-1.2101,-1.2101,-1.2101,-1.2101,-1.2101,-1.2101,-1.2101,-1.2101,-1.2101,-1.2119,-1.2312,-1.2643,-1.3084,0.0,-0.8375,0.0,0.0,-0.8752,0.0,-0.9065,-0.9149,-0.9185,-0.9185,-0.9185,-0.9269,-0.9492,-0.9516,-0.9516,-0.9516,-0.9516,-0.9516,-0.9516,-0.9312,-0.9185,-0.9185,-0.8933,-0.8692,-0.8487,-0.8093,-0.7621,0.0,-0.6198,0.0,0.0,-0.4502,-0.4578,-0.5204,0.0,0.0,0.0,0.0,-0.8492,-0.8646,-0.8448,-0.8268,-0.8115,-0.7955,-0.7901,-0.7901,-0.7901,-0.7901,-0.7955,-0.8215,-0.8395,-0.8521,-0.8521,-0.8613,-0.8725,-0.8725,-0.8725,-0.8692,-0.8553,-0.8521,-0.8448,-0.8189,-0.8141,-0.8088,-0.7928,-0.7901,-0.7901,-0.7901,-0.7901,-0.7915,-0.7954,-0.8069,0.0,0.0,0.0,0.0,0.0,0.0,0.0,0.0,0.0,0.0,0.0,0.0,0.0,0.0,0.0,0.0,-0.5953,0.0,0.0,0.0,0.0,-1.0931,-1.1409,0.0,-1.2051,-1.2051,-1.2076,-1.2101,-1.2101,-1.2101,-1.2101,-1.2101,-1.2101,-1.2101,-1.2101,-1.2101,-1.2101,-1.2101,-1.2101,-1.2101,-1.2101,-1.2101,-1.2349,-1.2781,0.0,0.0,0.0,0.0,0.0,0.0,-0.9095,-0.9312,-0.9474,-0.9474,-0.9474,-0.9486,-0.951,-0.9516,-0.9516,-0.9516,-0.9516,-0.9516,-0.9516,-0.9492,-0.9474,-0.9474,-0.9209,-0.9047,-0.9023,-0.8279,-0.7865,0.0,0.0,-0.6179,0.0,-0.5341,-0.5413,-0.6004,-0.6385,0.0,0.0,-0.7929,-0.8062,-0.8242,-0.8221,-0.8115,-0.7928,-0.7901,-0.7901,-0.7901,-0.7901,-0.7901,-0.7901,-0.7928,-0.8088,-0.8248,-0.8248,-0.8321,-0.8427,-0.8427,-0.8427,-0.8401,-0.8268,-0.8248,-0.8195,-0.7981,-0.7928,-0.7928,-0.7901,-0.7901,-0.7901,-0.7901,-0.7901,-0.7943,-0.8137,-0.7952,-0.7797,0.0,0.0,0.0,0.0,0.0,0.0,0.0,0.0,0.0,0.0,0.0,0.0,0.0,0.0,0.0,0.0,0.0,0.0,-0.8781,-0.9579,-1.0361,-1.1125,-1.1654,-1.1927,-1.1927,-1.2051,-1.2101,-1.2101,-1.2101,-1.2101,-1.2101,-1.2101,-1.2101,-1.2101,-1.2101,-1.2101,-1.2101,-1.2101,-1.2101,-1.2101,-1.2101,-1.2349,-1.2698,0.0,0.0,0.0,0.0,0.0,0.0,0.0,-0.9913,-0.9985,-0.9985,-0.9709,-0.9516,-0.9516,-0.9516,-0.9516,-0.9516,-0.9516,-0.9516,-0.9516,-0.9516,-0.9516,-0.9516,-0.9408,-0.9269,-0.9101,-0.8788,-0.8369,0.0,0.0,0.0,0.0,-0.6106,-0.6131,-0.6551,0.0,-0.7438,-0.7902,-0.8068,-0.8288,-0.851,-0.851,-0.8454,-0.8369,-0.8369,-0.8369,-0.8369,-0.8369,-0.8369,-0.8369,-0.8369,-0.8214,-0.8008,-0.8008,-0.8062,-0.8109,-0.8109,-0.8109,-0.8088,-0.8035,-0.8008,-0.8008,-0.7928,-0.7901,-0.7901,-0.7901,-0.7901,-0.7901,-0.7901,-0.7901,-0.7928,-0.8008,-0.7923,-0.7844,-0.7896,0.0,0.0,0.0,0.0,0.0,0.0,0.0,0.0,0.0,0.0,0.0,0.0,0.0,-0.5231,-0.5749,0.0,0.0,-0.8226,0.0,-1.0173,-1.0507,-1.1261,-1.1653,-1.1653,-1.1803,-1.1852,-1.1852,-1.1852,-1.1852,-1.1852,-1.1852,-1.1852,-1.1852,-1.1852,-1.1852,-1.1852,-1.1852,-1.1852,-1.1852,-1.1852,-1.1951,-1.2139,-0.9985,0.0,-1.0292,0.0,-1.0292,-1.0292,-1.0292,-1.0292,-1.0292,-1.0292,-0.9973,-0.9715,-0.9636,-0.963,-0.96,-0.9522,-0.9516,-0.9516,-0.9516,-0.9516,-0.9516,-0.9516,-0.9516,0.0,-0.9227,-0.9137,-0.8824,-0.8243,-0.7949,0.0,-0.7243,-0.6959,-0.6977,-0.7267,-0.7642,-0.7931,-0.8141,-0.8327,-0.8536,-0.871,-0.871,-0.871,-0.871,-0.871,-0.871,-0.871,-0.871,-0.871,-0.871,-0.871,-0.8435,-0.8117,-0.8039,-0.8015,-0.8003,-0.7925,-0.7901,-0.7901,-0.7901,-0.7901,-0.7901,-0.7901,-0.7901,-0.7901,-0.7901,-0.7901,-0.7901,-0.7901,-0.7901,-0.7901,-0.7901,-0.7901,-0.7901,-0.7901,0.0,0.0,0.0,0.0,0.0,0.0,0.0,-0.5505,0.0,0.0,0.0,0.0,0.0,-0.557,-0.5804,0.0,0.0,0.0,0.0,0.0,-0.9976,-1.0853,-1.1251,-1.1276,-1.1402,-1.1452,-1.1452,-1.1452,-1.1452,-1.1452,-1.1452,-1.1452,-1.1452,-1.1452,-1.1452,-1.1452,-1.1452,-1.1452,-1.1452,-1.1452,-1.1452,-1.1512,-1.0286,-1.0292,-1.0292,-1.0292,-1.0292,-1.0292,-1.0292,-1.0292,-1.0292,-1.0292,-1.0286,-1.019,-0.9925,-0.9901,-0.9799,-0.954,-0.9516,-0.9516,-0.9516,-0.9516,-0.9516,0.0,0.0,-0.9484,-0.951,-0.9239,-0.9095,-0.9083,0.0,0.0,-0.8261,-0.8003,-0.8021,-0.8273,-0.8279,-0.8451,-0.8698,-0.8698,-0.8704,-0.871,-0.871,-0.871,-0.871,-0.871,-0.871,-0.871,-0.871,-0.871,-0.871,-0.871,-0.8704,-0.865,-0.8369,-0.8285,-0.8237,-0.7973,-0.7901,-0.7901,-0.7901,-0.7901,-0.7901,-0.7901,-0.7901,-0.7901,-0.7901,-0.7901,-0.7901,-0.7901,-0.7901,-0.7901,-0.7901,-0.7901,-0.7901,-0.7901,0.0,0.0,0.0,0.0,0.0,0.0,-0.5754,-0.5419,-0.4955,0.0,0.0,0.0,0.0,-0.6087,-0.6091,0.0,0.0,-0.7867,-0.8435,0.0,-0.9695,-1.0363,-1.0701,-1.0718,-1.0845,-1.0896,-1.0896,-1.0896,-1.0896,-1.0896,-1.0896,-1.0896,-1.0896,-1.0896,-1.0896,-1.0896,-1.0896,-1.0896,-1.0896,-1.0896,-1.0896,-1.0896,-1.0563,-1.0701,-1.0864,-1.0864,-1.0864,-1.0864,-1.0864,-1.0864,-1.0864,-1.0864,-1.0864,-1.0725,-1.046,-1.028,-1.0136,0.0,-0.9883,-0.9781,0.0,-0.9612,-0.9516,-0.9516,-0.9516,-0.9516,-0.9516,-0.9426,-0.9287,-0.9095,0.0,0.0,0.0,-0.8499,-0.8506,-0.8584,-0.8584,-0.8728,-0.8975,-0.8975,-0.9083,-0.9257,-0.9257,-0.9257,-0.9257,-0.9257,-0.9257,-0.9257,-0.9257,-0.9257,-0.9257,-0.9257,-0.9257,-0.9209,-0.8933,-0.8728,-0.853,-0.8243,-0.8165,-0.8129,-0.7949,-0.7901,-0.7901,-0.7901,-0.7901,-0.7901,-0.7901,-0.7901,-0.7901,-0.7901,-0.7901,-0.7901,-0.7901,-0.7901,-0.7901,-0.7901,-0.7502,0.0,0.0,0.0,0.0,0.0,0.0,-0.5749,0.0,-0.5436,0.0,0.0,0.0,0.0,0.0,0.0,0.0,0.0,-0.8299,0.0,-0.9015,-0.9537,-0.9855,-0.9958,-1.0079,-1.0208,-1.0277,-1.0277,-1.0277,-1.0277,-1.0277,-1.0277,-1.0277,-1.0277,-1.0277,-1.0277,-1.0277,-1.0277,-1.0277,-1.0277,-1.0277,-1.0277,-1.0614,-1.0775,-1.085,-1.085,-1.085,-1.085,-1.085,-1.085,-1.085,-1.085,-1.085,-1.0828,-1.0632,-1.0473,0.0,-1.031,-1.0148,-1.0051,-1.0051,-0.9901,-0.9763,-0.9666,-0.966,-0.9618,-0.9484,-0.9516,0.0,-0.9257,-0.9257,-0.9173,-0.9011,-0.9011,-0.9011,-0.9011,-0.9011,-0.9101,-0.9257,-0.9257,-0.9354,-0.9516,-0.9516,-0.9516,-0.9516,-0.9516,-0.9516,-0.9516,-0.9516,-0.9516,-0.9516,-0.9516,-0.9516,-0.9486,-0.9312,-0.9143,-0.8939,-0.8572,-0.8369,-0.8255,-0.8093,-0.7973,-0.7901,-0.7901,-0.7901,-0.7901,-0.7901,-0.7901,-0.7901,-0.7901,-0.7901,-0.7901,-0.7901,-0.7901,-0.7865,-0.779,-0.7461,-0.7164,-0.7066,0.0,0.0,0.0,0.0,0.0,0.0,-0.5945,-0.5941,0.0,0.0,0.0,0.0,0.0,0.0,-0.7428,-0.8123,-0.8523,-0.8663,-0.9009,-0.9211,-0.9309,-0.9387,-0.9484,-0.9614,-0.9614,-0.9666,-0.9692,-0.9692,-0.9692,-0.9692,-0.9692,-0.9692,-0.9692,-0.9692,-0.9692,-0.9692,-0.9692,-0.9692,-0.9692,-1.0513,-1.0513,-1.0513,-1.0513,-1.0513,-1.0513,-1.0513,-1.0513,-1.0513,-1.0513,-1.0513,-1.0513,-1.0513,-1.0513,-1.0441,-1.0318,0.0,0.0,-1.0287,-1.0269,-1.0149,-0.991,-0.9898,-0.9751,-0.9512,-0.9488,-0.9502,-0.9484,-0.9484,-0.9516,-0.9516,-0.9516,-0.9516,-0.9516,-0.9516,-0.9516,-0.9516,-0.9516,-0.9516,-0.9516,-0.9516,-0.9516,-0.9516,-0.9516,-0.9516,-0.9516,-0.9516,-0.9516,-0.9516,-0.9516,-0.9516,-0.9516,-0.9516,-0.9516,-0.9414,-0.889,-0.856,-0.8333,-0.8297,-0.8111,-0.7925,-0.7907,-0.7901,-0.7901,-0.7901,-0.7901,-0.7901,-0.7901,-0.7901,-0.7901,-0.7901,-0.7901,-0.7838,-0.7638,-0.737,-0.7109,-0.6842,0.0,0.0,0.0,0.0,0.0,-0.6419,-0.6449,-0.6383,0.0,0.0,0.0,0.0,0.0,-0.7065,-0.75,-0.7877,-0.8248,-0.8547,-0.8666,-0.8752,-0.8752,-0.8778,-0.8831,-0.8956,-0.8956,-0.9035,-0.9133,-0.9133,-0.9133,-0.9133,-0.9133,-0.9159,-0.9159,-0.9159,-0.9159,-0.9185,-0.9185,-0.9185,-0.9185,0.0,0.0,-1.0513,-1.0513,-1.0513,-1.0513,-1.0513,-1.0513,-1.0513,-1.0513,-1.0513,-1.0513,-1.0513,-1.0513,-1.0504,-1.0464,-1.0273,-1.0164,-1.0164,-0.9949,-0.9817,-0.976,-0.976,-0.9731,-0.9668,-0.9506,-0.9408,-0.9344,-0.9446,-0.9516,-0.9516,-0.9516,-0.9516,-0.9516,-0.9516,-0.9516,-0.9516,-0.9516,-0.9516,-0.9516,-0.9516,-0.9516,-0.9516,-0.9516,-0.9516,-0.9516,-0.9516,-0.9516,-0.9516,-0.9516,-0.9516,-0.9516,-0.9516,-0.9516,-0.945,-0.9107,-0.8963,-0.8824,-0.8427,-0.8243,-0.8153,-0.7949,-0.7901,-0.7901,-0.7901,-0.7901,-0.7901,-0.7901,-0.7901,-0.7901,-0.7901,-0.7901,-0.7838,-0.7638,-0.737,-0.7109,-0.6842,-0.6558,0.0,0.0,-0.6653,-0.672,-0.6987,-0.7012,-0.6987,0.0,0.0,0.0,-0.7088,-0.7302,-0.7493,-0.7654,-0.7849,-0.7994,-0.8055,-0.8088,-0.8195,-0.8354,-0.8454,-0.8507,-0.8527,-0.8527,-0.8553,-0.858,-0.858,-0.858,-0.858,-0.858,-0.8659,-0.8732,-0.8732,-0.8817,-0.891,-0.891,-0.891,-0.891,-1.0218,-1.0218,-1.0218,-1.0218,-1.0218,-1.0218,-1.0218,-1.0218,-1.0218,-1.0218,-1.0218,-1.0218,-1.0218,-1.0218,-1.0218,-1.0218,-1.0244,-1.0276,-1.0276,-1.0151,-1.0026,-0.9876,-0.9876,-0.982,-0.9712,-0.9605,-0.953,-0.9499,-0.9449,-0.9488,-0.9527,-0.9435,-0.9408,-0.9408,-0.9408,-0.935,-0.9285,-0.9285,-0.9285,-0.9285,-0.9285,-0.9285,-0.9285,-0.9285,-0.9285,-0.9285,-0.9285,-0.9285,-0.9285,-0.9285,-0.9285,-0.9285,-0.9382,-0.9408,-0.9384,-0.9298,-0.9197,-0.9011,-0.8608,-0.8381,-0.8225,-0.788,-0.7815,-0.7788,-0.7735,-0.7714,-0.7714,-0.7714,-0.7714,-0.7714,-0.7714,-0.7762,-0.7685,-0.733,-0.7243,-0.7109,-0.6842,-0.6684,-0.6696,-0.6957,-0.6987,-0.7091,-0.7358,-0.7382,-0.7382,-0.7382,-0.7382,0.0,-0.7382,-0.7516,-0.762,-0.7652,-0.7816,-0.7901,-0.7901,-0.7901,-0.7955,-0.8062,-0.8135,-0.8215,-0.8295,-0.8295,-0.8348,-0.8395,-0.8395,-0.8395,-0.8395,-0.8395,-0.8448,-0.8501,-0.8501,-0.858,-0.8718,-0.8718,-0.8745,-0.8804,-0.9884,-0.9884,-0.9884,-0.9884,-0.9884,-0.9884,-0.9884,-0.9884,-0.9884,-0.9884,-0.9884,-0.9884,-0.9884,-0.9884,-0.9884,-0.9884,-1.0218,-1.0406,-1.0406,-1.0406,-1.031,-1.0064,-1.0059,-0.9957,-0.9719,-0.971,-0.9711,-0.9677,-0.9519,-0.9518,-0.9625,-0.9431,-0.9359,-0.9359,-0.9359,-0.9261,-0.9098,-0.9098,-0.9098,-0.9098,-0.9098,-0.9098,-0.9098,-0.9098,-0.9098,-0.9093,-0.9058,-0.9074,-0.9068,-0.9028,-0.8985,-0.9017,-0.921,-0.9242,-0.9274,-0.935,-0.9222,-0.9009,-0.8807,-0.8519,-0.8169,-0.7788,-0.7696,-0.7643,-0.7521,-0.7494,-0.7494,-0.7494,-0.7494,-0.7494,-0.7494,-0.7595,-0.7518,-0.7046,-0.7115,-0.7122,-0.6908,0.0,-0.6963,-0.723,-0.7261,-0.7364,-0.7631,-0.763,-0.763,-0.763,-0.763,-0.763,-0.763,-0.763,-0.763,-0.763,-0.7808,-0.7901,-0.7901,-0.7901,-0.7901,-0.7901,-0.7901,-0.7981,-0.8141,-0.8141,-0.8215,-0.8321,-0.8321,-0.8321,-0.8321,-0.8321,-0.8342,-0.8374,-0.8374,-0.8448,-0.8573,-0.8573,-0.8639,-0.8725,-0.9884,-0.9884,-0.9884,-0.9884,-0.9884,-0.9884,-0.9884,-0.9884,-0.9884,-0.9884,-0.9884,-0.9884,-0.9884,-0.9884,-0.9884,-0.9884,-0.9954,-0.9992,-0.9992,-0.9992,-0.9976,-0.9943,-0.9938,-0.9921,-0.9889,-0.9798,-0.9708,-0.9537,-0.9597,-0.965,-0.9684,-0.9645,-0.9627,-0.9627,-0.9627,-0.9622,-0.9587,-0.9587,-0.9587,-0.9587,-0.9587,-0.9587,-0.9587,-0.9587,-0.9587,-0.9565,-0.9394,-0.9342,-0.9296,-0.9091,-0.8985,-0.9017,-0.9049,-0.9049,-0.9022,-0.8931,-0.8871,-0.8876,-0.899,-0.8598,-0.8064,-0.7767,-0.7622,-0.7521,-0.7494,-0.7494,-0.7494,-0.7494,-0.7494,-0.7494,-0.7494,-0.7521,-0.7476,-0.7279,-0.7258,-0.7244,-0.7152,0.0,-0.7236,-0.7504,-0.7534,-0.7618,-0.7838,-0.7868,-0.7868,-0.7868,-0.7868,-0.7868,-0.7868,-0.7868,-0.7868,-0.7868,-0.7877,-0.7901,-0.7901,-0.7901,-0.7901,-0.7901,-0.7901,-0.7928,-0.7955,-0.7955,-0.7955,-0.7981,-0.7981,-0.7981,-0.7981,-0.7981,-0.8088,-0.8215,-0.8215,-0.8321,-0.8421,-0.8421,-0.8448,-0.8448,-0.9508,-0.9457,-0.9416,-0.9416,-0.9316,-0.9273,-0.9273,-0.9273,-0.9273,-0.9273,-0.9273,-0.9311,-0.942,-0.942,-0.9501,-0.9733,-0.9733,-0.9771,-0.9884,-0.9884,-0.9884,-0.9884,-0.9884,-0.9884,-0.9884,-0.9852,-0.9817,-0.9708,-0.9655,-0.9696,-0.9762,-0.9634,-0.9607,-0.9607,-0.9607,-0.9532,-0.9421,-0.9421,-0.9421,-0.9421,-0.9421,-0.9421,-0.9421,-0.9421,-0.9351,-0.927,-0.9162,-0.8981,-0.8806,-0.868,-0.8562,-0.8464,-0.8538,-0.8533,-0.8468,-0.8468,-0.8441,-0.8443,-0.8545,-0.8156,-0.765,-0.7389,-0.7204,-0.7031,-0.6837,-0.681,-0.681,-0.681,-0.681,-0.681,-0.6896,-0.7004,-0.7057,-0.6978,-0.7036,-0.7098,-0.7139,-0.7215,-0.736,-0.7622,-0.7709,-0.779,-0.7889,-0.7901,-0.7901,-0.7901,-0.7901,-0.7901,-0.7901,-0.7901,-0.7901,-0.7901,-0.7901,-0.7901,-0.7901,-0.7901,-0.7901,-0.7901,-0.7901,-0.7901,-0.7901,-0.7901,-0.7901,-0.7901,-0.7901,-0.7901,-0.7901,-0.7901,-0.7955,-0.8035,-0.8035,-0.8135,-0.8295,-0.8295,-0.8348,-0.8395,-0.9032,-0.8958,-0.8878,-0.8832,-0.8728,-0.8602,-0.8551,-0.8546,-0.8546,-0.8546,-0.8546,-0.8623,-0.877,-0.8851,-0.897,-0.9279,-0.9354,-0.9463,-0.9614,-0.9614,-0.969,-0.9879,-0.9884,-0.9884,-0.9884,-0.9884,-0.9884,-0.9884,-0.9744,-0.9726,-0.9831,-0.965,-0.9603,-0.9603,-0.9603,-0.9491,-0.9301,-0.9301,-0.9225,-0.9153,-0.9153,-0.9118,-0.9082,-0.9082,-0.8975,-0.8827,-0.874,-0.8507,-0.8234,-0.8132,-0.7952,-0.7841,-0.7943,-0.7854,-0.7749,-0.7777,-0.7691,-0.7646,-0.7845,-0.7581,-0.7175,-0.6902,-0.6687,-0.6467,-0.6164,-0.61,-0.61,-0.61,-0.61,-0.6154,-0.6273,-0.6436,-0.6565,-0.6613,0.0,-0.6888,-0.7028,-0.7178,-0.735,-0.7572,-0.7708,-0.7794,-0.7842,-0.7842,-0.7869,-0.7901,-0.7901,-0.7901,-0.7901,-0.7901,-0.7901,-0.7901,-0.7901,-0.7901,-0.7901,-0.7901,-0.7901,-0.7901,-0.7901,-0.7901,-0.7901,-0.7901,-0.7901,-0.7901,-0.7901,-0.7901,-0.7901,-0.7901,-0.7901,-0.7901,-0.7901,-0.7981,-0.8141,-0.8141,-0.8189,-0.8295,-0.855,-0.8537,-0.8513,-0.837,-0.8326,-0.8291,-0.8149,-0.8156,-0.8156,-0.8156,-0.8156,-0.8156,-0.8161,-0.8322,-0.8441,-0.8479,-0.8665,-0.8775,-0.878,-0.878,-0.9117,-0.9884,-0.9884,-0.9884,-0.9884,-0.9884,-0.9884,-0.9884,-0.99,-0.9895,-0.9895,-0.9873,-0.9868,-0.9868,-0.9868,-0.9755,-0.9573,-0.9573,-0.9336,-0.903,-0.903,-0.8916,-0.8732,-0.8732,-0.8732,-0.8666,-0.8208,-0.8029,-0.7965,-0.7597,-0.7377,-0.7257,-0.7274,-0.714,-0.6924,-0.6625,-0.6297,-0.6257,-0.7129,-0.7116,-0.6753,-0.635,-0.6164,-0.6026,-0.5872,-0.5828,-0.5828,-0.5828,-0.5828,-0.5882,-0.6,-0.6028,-0.6132,-0.6389,0.0,0.0,-0.6907,-0.7036,-0.7176,-0.7311,-0.7344,-0.7446,-0.7696,-0.7723,-0.7756,-0.7901,-0.7901,-0.7901,-0.7901,-0.7901,-0.7901,-0.7901,-0.7901,-0.7901,-0.7901,-0.7901,-0.7901,-0.7901,-0.7901,-0.7901,-0.7901,-0.7901,-0.7901,-0.7901,-0.7901,-0.7901,-0.7901,-0.7901,-0.7901,-0.7901,-0.7901,-0.7901,-0.7928,-0.7928,-0.7928,-0.7928,-0.7615,-0.7573,-0.745,-0.733,-0.7214,-0.7087,-0.6957,-0.693,-0.693,-0.693,-0.693,-0.6973,-0.7173,-0.7365,-0.7557,-0.7829,-0.8016,-0.8203,-0.8313,-0.8313,-0.8585,-0.9122,-0.916,-0.916,-0.916,-0.9273,-0.9344,-0.9344,-0.9468,-0.9544,-0.9506,-0.9387,-0.9344,-0.9344,-0.9198,-0.9122,-0.9046,-0.8899,-0.878,-0.8627,-0.8504,-0.8389,-0.8313,-0.8313,-0.8241,-0.8118,-0.7816,-0.7526,-0.7271,-0.6991,-0.6775,-0.6571,-0.6533,-0.6389,-0.6146,-0.5877,-0.5587,-0.5474,-0.5831,-0.5997,-0.6009,-0.5759,-0.5504,-0.5272,-0.5097,-0.5027,-0.4983,-0.4983,-0.4983,-0.5038,-0.5183,-0.5183,-0.5317,-0.5664,0.0,-0.5909,-0.6186,-0.6404,-0.6561,-0.662,-0.6874,-0.7122,-0.7295,-0.7408,-0.7494,-0.7628,-0.7655,-0.7655,-0.7655,-0.7655,-0.7655,-0.7655,-0.7655,-0.7735,-0.7901,-0.7901,-0.7901,-0.7901,-0.7901,-0.7901,-0.7901,-0.7901,-0.7901,-0.7901,-0.7901,-0.7901,-0.7901,-0.7901,-0.7901,-0.7901,-0.7901,-0.7901,-0.7901,-0.7901,-0.7901,-0.7901,-0.6874,-0.6792,-0.6681,-0.6586,-0.6397,-0.6247,-0.61,-0.6041,-0.6012,-0.6012,-0.6012,-0.6093,-0.6254,-0.6479,-0.671,-0.698,-0.7169,-0.7357,-0.7506,-0.7506,-0.7817,-0.847,-0.8508,-0.8508,-0.8508,-0.8656,-0.8732,-0.8813,-0.8937,-0.9018,-0.9018,-0.8894,-0.8775,-0.8694,-0.858,-0.847,-0.8394,-0.8208,-0.8055,-0.7902,-0.7706,-0.7587,-0.7506,-0.7506,-0.7429,-0.728,-0.7057,-0.6826,-0.6538,-0.6363,-0.6143,-0.5949,-0.5886,-0.5689,-0.5411,-0.5202,-0.4994,-0.4858,-0.4858,-0.5019,-0.5192,-0.5148,-0.4979,-0.474,-0.4536,-0.4438,-0.4381,-0.4363,-0.4353,-0.438,-0.4522,-0.4553,-0.466,-0.4979,-0.5089,-0.5203,-0.5422,-0.5637,-0.5828,-0.5909,-0.6213,-0.6517,-0.6783,-0.6896,-0.7031,-0.7192,-0.7219,-0.7219,-0.7219,-0.7219,-0.7219,-0.7219,-0.7219,-0.73,-0.7488,-0.7681,-0.7762,-0.7762,-0.7762,-0.7762,-0.7762,-0.7762,-0.7762,-0.7762,-0.7762,-0.7762,-0.7762,-0.7762,-0.7762,-0.7762,-0.7762,-0.7762,-0.7762,-0.7762,-0.7762,-0.7762,-0.6384,-0.6384,-0.6345,-0.6217,-0.6084,-0.5947,-0.5811,-0.5683,-0.5601,-0.5601,-0.5601,-0.5601,-0.5598,-0.5789,-0.5899,-0.5899,-0.6089,-0.6202,-0.6202,-0.6202,-0.6777,-0.8042,-0.808,-0.808,-0.808,-0.808,-0.8199,-0.8403,-0.8403,-0.8403,-0.8403,-0.8403,-0.828,-0.808,-0.808,-0.797,-0.7783,-0.7557,-0.7249,-0.6865,-0.6676,-0.644,-0.6202,-0.6202,-0.6202,-0.6163,-0.5977,-0.5899,-0.5864,-0.5676,-0.551,-0.5395,-0.5395,-0.5065,-0.4691,-0.4632,-0.4464,-0.43,-0.43,-0.43,-0.4337,-0.4563,-0.4594,-0.4524,-0.4263,-0.4199,-0.416,-0.4023,-0.3996,-0.4052,-0.4166,-0.4193,-0.4249,-0.4463,-0.4605,-0.4688,-0.4688,-0.4822,-0.4979,-0.5254,-0.5304,-0.5523,-0.6127,-0.6182,-0.6317,-0.6561,-0.6588,-0.6588,-0.6588,-0.6588,-0.6588,-0.6588,-0.6588,-0.6588,-0.6588,-0.7192,-0.7494,-0.7494,-0.7494,-0.7494,-0.7494,-0.7494,-0.7494,-0.7494,-0.7494,-0.7494,-0.7494,-0.7494,-0.7494,-0.7494,-0.7494,-0.7494,-0.7494,-0.7494,-0.7494,-0.7494,-0.5908,-0.5908,-0.5869,-0.5745,-0.5692,-0.5625,-0.554,-0.5489,-0.5436,-0.5345,-0.5334,-0.5263,-0.5182,-0.5362,-0.5476,-0.5476,-0.567,-0.5789,-0.5789,-0.5789,-0.5941,-0.6325,-0.6626,-0.6777,-0.6777,-0.6938,-0.7134,-0.7365,-0.7484,-0.7565,-0.7565,-0.7403,-0.7249,-0.7057,-0.6857,-0.6738,-0.6665,-0.6475,-0.6325,-0.617,-0.5983,-0.5867,-0.5789,-0.5789,-0.5789,-0.5747,-0.5553,-0.5476,-0.5437,-0.5249,-0.5148,-0.5101,-0.5011,-0.4776,-0.4567,-0.4531,-0.443,-0.43,-0.43,-0.43,-0.4325,-0.4386,-0.431,-0.4226,-0.4153,-0.4029,-0.392,-0.3883,-0.3778,-0.3722,-0.3777,-0.3777,-0.3833,-0.399,-0.4045,-0.4104,-0.419,-0.4328,-0.4439,-0.4519,-0.4739,-0.4987,-0.5254,-0.5367,-0.5504,-0.5664,-0.5687,-0.5687,-0.5687,-0.5687,-0.5687,-0.5687,-0.5687,-0.5687,-0.5687,-0.648,-0.6864,-0.6864,-0.6864,-0.6864,-0.6864,-0.6864,-0.6864,-0.6864,-0.6864,-0.6864,-0.6864,-0.6864,-0.6864,-0.6864,-0.6864,-0.6864,-0.6864,-0.6864,-0.6864,-0.6864,-0.5688,-0.5688,-0.5664,-0.5594,-0.554,-0.5483,-0.5453,-0.5401,-0.5366,-0.5203,-0.5186,-0.5143,-0.5029,-0.509,-0.5168,-0.5168,-0.5287,-0.5365,-0.5365,-0.5365,-0.5365,-0.5365,-0.5592,-0.5783,-0.5977,-0.6135,-0.6293,-0.6518,-0.6637,-0.6679,-0.6676,-0.6556,-0.6402,-0.6215,-0.6018,-0.5977,-0.5938,-0.5744,-0.567,-0.5631,-0.544,-0.5365,-0.5365,-0.5365,-0.5365,-0.5365,-0.5207,-0.5168,-0.5168,-0.5054,-0.5018,-0.4996,-0.4833,-0.4732,-0.4594,-0.4534,-0.4457,-0.4357,-0.4314,-0.43,-0.43,-0.43,-0.4243,-0.4178,-0.4097,-0.4004,-0.3901,-0.3802,-0.3728,-0.3665,-0.3621,-0.3613,-0.3638,-0.3719,-0.3716,-0.3747,-0.383,-0.3916,-0.3971,-0.4024,-0.4215,-0.4408,-0.4601,-0.4684,-0.4822,-0.4979,-0.4979,-0.4979,-0.4979,-0.4979,-0.4979,-0.4979,-0.4979,-0.4979,-0.4979,-0.55,-0.5878,-0.6095,-0.6154,-0.6213,-0.6213,-0.6263,-0.629,-0.629,-0.629,-0.629,-0.629,-0.629,-0.629,-0.629,-0.629,-0.629,-0.629,-0.629,-0.629,-0.629,-0.5688,-0.5688,-0.5688,-0.5688,-0.5597,-0.5524,-0.5524,-0.5472,-0.5396,-0.5219,-0.5203,-0.5156,-0.5031,-0.5018,-0.5018,-0.5018,-0.5018,-0.5018,-0.5018,-0.5018,-0.5018,-0.5018,-0.5018,-0.5171,-0.5521,-0.5559,-0.5634,-0.5864,-0.5864,-0.5864,-0.5864,-0.5864,-0.5747,-0.5559,-0.5559,-0.5559,-0.5521,-0.5362,-0.5282,-0.5243,-0.5054,-0.5018,-0.5018,-0.5018,-0.5018,-0.5018,-0.5018,-0.5018,-0.5018,-0.5018,-0.5018,-0.4996,-0.4849,-0.4804,-0.475,-0.4588,-0.4512,-0.4479,-0.4333,-0.43,-0.43,-0.43,-0.43,-0.427,-0.4159,-0.4094,-0.4056,-0.3862,-0.3826,-0.375,-0.3646,-0.3619,-0.3613,-0.3613,-0.3613,-0.3613,-0.3613,-0.3613,-0.3638,-0.3771,-0.3769,-0.3882,-0.411,-0.4138,-0.4218,-0.4408,-0.4408,-0.4408,-0.4408,-0.4408,-0.4408,-0.4408,-0.4408,-0.4408,-0.4408,-0.4408,-0.468,-0.5226,-0.5426,-0.5513,-0.5513,-0.5641,-0.5691,-0.5691,-0.5691,-0.5719,-0.5719,-0.5719,-0.5719,-0.5719,-0.5719,-0.5719,-0.5719,-0.5719,-0.5719,-0.5719,-0.5688,-0.5688,-0.5688,-0.5688,-0.5667,-0.565,-0.565,-0.5629,-0.5578,-0.5399,-0.5372,-0.5249,-0.504,-0.5018,-0.5018,-0.5018,-0.5018,-0.5018,-0.5018,-0.5018,-0.5018,-0.5018,-0.5018,-0.5054,-0.5135,-0.5135,-0.5249,-0.5437,-0.5437,-0.5437,-0.5437,-0.5437,-0.5321,-0.5135,-0.5135,-0.5135,-0.5135,-0.5093,-0.5054,-0.5054,-0.5015,-0.5018,-0.5018,-0.5018,-0.5018,-0.5018,-0.5018,-0.5018,-0.5018,-0.5018,-0.5018,-0.5012,-0.4947,-0.4874,-0.4769,-0.4692,-0.458,-0.4479,-0.4333,-0.43,-0.43,-0.43,-0.43,-0.4295,-0.4268,-0.4186,-0.4102,-0.405,-0.3917,-0.3804,-0.375,-0.3671,-0.3613,-0.3613,-0.3613,-0.3613,-0.3613,-0.3613,-0.361,-0.3638,-0.3638,-0.3666,-0.3722,-0.3722,-0.3749,-0.3805,-0.3805,-0.3805,-0.3805,-0.3805,-0.3805,-0.3805,-0.3805,-0.3805,-0.3805,-0.3805,-0.4079,-0.468,-0.4712,-0.4739,-0.4739,-0.4763,-0.4846,-0.4932,-0.4932,-0.4987,-0.5089,-0.5089,-0.5089,-0.5089,-0.5089,-0.5089,-0.5089,-0.5089,-0.5089,-0.5089,-0.5688,-0.5688,-0.5688,-0.5688,-0.5688,-0.5688,-0.5688,-0.564,-0.5534,-0.5435,-0.5361,-0.5214,-0.5037,-0.5018,-0.5018,-0.5018,-0.5018,-0.5018,-0.5018,-0.5018,-0.5018,-0.5018,-0.5018,-0.5018,-0.5018,-0.5018,-0.5054,-0.5168,-0.5168,-0.5168,-0.5168,-0.5168,-0.5093,-0.5018,-0.5018,-0.5018,-0.5018,-0.5018,-0.5018,-0.5018,-0.5018,-0.5018,-0.5018,-0.5018,-0.5018,-0.5018,-0.5018,-0.5018,-0.5018,-0.5018,-0.5018,-0.5018,-0.5018,-0.4936,-0.486,-0.4776,-0.469,-0.4566,-0.4449,-0.4341,-0.43,-0.43,-0.43,-0.43,-0.43,-0.4251,-0.4189,-0.4097,-0.4015,-0.3939,-0.3852,-0.3775,-0.3693,-0.3693,-0.3649,-0.3613,-0.3613,-0.3613,-0.3613,-0.3613,-0.3613,-0.3613,-0.3613,-0.3613,-0.3613,-0.3613,-0.3613,-0.3613,-0.3613,-0.3613,-0.3613,-0.3613,-0.3613,-0.3613,-0.3613,-0.3613,-0.3749,-0.4079,-0.4132,-0.4156,-0.4156,-0.4242,-0.4298,-0.4356,-0.4356,-0.4408,-0.446,-0.446,-0.4519,-0.4574,-0.4574,-0.4629,-0.4708,-0.4708,-0.4708,-0.4708,-0.5597,-0.5597,-0.5597,-0.5597,-0.5597,-0.5599,-0.5644,-0.5542,-0.5422,-0.5385,-0.5303,-0.5143,-0.5029,-0.5018,-0.5018,-0.5018,-0.5018,-0.5018,-0.5018,-0.5018,-0.5018,-0.5018,-0.5018,-0.5018,-0.5018,-0.5018,-0.5018,-0.5018,-0.5018,-0.5018,-0.5018,-0.5018,-0.5018,-0.5018,-0.5018,-0.5018,-0.5018,-0.5018,-0.5018,-0.5018,-0.5018,-0.5018,-0.5018,-0.5018,-0.5018,-0.5018,-0.5018,-0.5018,-0.5018,-0.5018,-0.5018,-0.5018,-0.5018,-0.5018,-0.4993,-0.4833,-0.4762,-0.469,-0.4545,-0.4435,-0.4325,-0.4306,-0.43,-0.43,-0.43,-0.43,-0.427,-0.417,-0.4132,-0.4054,-0.3954,-0.3865,-0.3813,-0.3813,-0.3717,-0.3641,-0.3641,-0.3624,-0.3613,-0.3613,-0.3613,-0.3613,-0.3613,-0.3613,-0.3613,-0.3613,-0.3613,-0.3613,-0.3613,-0.3613,-0.3613,-0.3613,-0.3613,-0.3613,-0.3613,-0.3613,-0.3613,-0.3613,-0.3716,-0.3771,-0.3771,-0.3885,-0.3941,-0.3965,-0.3965,-0.3965,-0.3996,-0.3996,-0.4079,-0.4166,-0.4166,-0.4273,-0.4463,-0.4491,-0.4491,-0.4491,-0.5099,-0.5099,-0.5099,-0.5099,-0.5099,-0.5191,-0.5416,-0.5318,-0.5291,-0.5385,-0.5303,-0.5143,-0.5029,-0.5018,-0.5018,-0.5018,-0.5018,-0.5018,-0.5018,-0.5018,-0.5018,-0.5018,-0.5018,-0.5018,-0.5018,-0.5018,-0.5018,-0.5018,-0.5018,-0.5018,-0.5018,-0.5018,-0.5018,-0.5018,-0.5018,-0.5018,-0.5018,-0.5018,-0.5018,-0.5018,-0.5018,-0.5018,-0.5018,-0.5018,-0.5018,-0.5018,-0.5018,-0.5018,-0.5018,-0.5018,-0.5018,-0.5018,-0.5018,-0.5018,-0.4993,-0.4833,-0.4785,-0.476,-0.4566,-0.4492,-0.4457,-0.4325,-0.43,-0.43,-0.43,-0.43,-0.4298,-0.4278,-0.4191,-0.4081,-0.4065,-0.3962,-0.3878,-0.3878,-0.3808,-0.3761,-0.3761,-0.3673,-0.3613,-0.3613,-0.3613,-0.3613,-0.3613,-0.3613,-0.3613,-0.3613,-0.3613,-0.3613,-0.3613,-0.3613,-0.3613,-0.3613,-0.3613,-0.3613,-0.3613,-0.3613,-0.3613,-0.3613,-0.361,-0.3638,-0.3638,-0.3638,-0.3719,-0.3824,-0.3824,-0.3882,-0.3996,-0.3996,-0.4024,-0.4024,-0.4024,-0.4107,-0.4276,-0.4436,-0.4491,-0.4491,-0.501,-0.501,-0.501,-0.501,-0.501,-0.5099,-0.5371,-0.5224,-0.5178,-0.5377,-0.5208,-0.5072,-0.5023,-0.5018,-0.5018,-0.5018,-0.5018,-0.5018,-0.5018,-0.5018,-0.5018,-0.5018,-0.5018,-0.5018,-0.5018,-0.5018,-0.5018,-0.5018,-0.5018,-0.5018,-0.5018,-0.5018,-0.5018,-0.5018,-0.5018,-0.5018,-0.5018,-0.5018,-0.5018,-0.5018,-0.5018,-0.5018,-0.5018,-0.5018,-0.5018,-0.5018,-0.5018,-0.5018,-0.5018,-0.5018,-0.5018,-0.5018,-0.5018,-0.5018,-0.5007,-0.4914,-0.4849,-0.4774,-0.4703,-0.4575,-0.4492,-0.4443,-0.4346,-0.43,-0.43,-0.43,-0.43,-0.43,-0.4257,-0.4221,-0.4221,-0.4086,-0.4005,-0.4005,-0.3933,-0.3833,-0.3791,-0.3739,-0.3682,-0.3619,-0.3613,-0.3613,-0.3613,-0.3613,-0.3613,-0.3613,-0.3613,-0.3613,-0.3613,-0.3613,-0.3613,-0.3613,-0.3613,-0.3613,-0.3613,-0.3613,-0.3613,-0.3613,-0.3613,-0.3613,-0.3613,-0.3613,-0.3638,-0.3691,-0.3691,-0.3719,-0.3777,-0.3777,-0.383,-0.3882,-0.3882,-0.3965,-0.4107,-0.419,-0.4273,-0.4328]}]]